     2.11           OBSERVATION DATA    G (GPS)             RINEX VERSION / TYPE
teqc 2010Oct21 OPUS Account 20111029 19:09:04UTC            PGM / RUN BY / DATE
Y 1521                                                      MARKER NAME
1154                                                        MARKER NUMBER
CSMIDDLETON NGS                                             OBSERVER / AGENCY
0220320139 TRIMBLE 5700 2.01                                REC # / TYPE / VERS
12696910 TRM41249.00 NONE                                   ANT # / TYPE
  -738720.7836 -5485922.9033  3158181.3332                  APPROX POSITION XYZ
        2.0000        0.0000        0.0000                  ANTENNA: DELTA H/E/N
     1     1                                                WAVELENGTH FACT L1/2
     5    L1    L2    C1    P1    P2                        # / TYPES OF OBSERV
    15                                                      LEAP SECONDS
  2011     9    23     0     0   30.0000000     GPS         TIME OF FIRST OBS
                                                            END OF HEADER
 11  9 23  0  0 30.0000000  0  9G29G12G02G30G10G05G25G15G26
 -14985775.71957 -11667623.08255  22406002.6094                   22406004.0004
 -26685303.15258 -20782375.54356  21605491.7504                   21605492.9024
 -31334551.69557 -24391325.84456  21595150.4064                   21595149.3444
 -12129609.85557  -9440970.42655  22649155.8364                   22649158.5864
 -18117311.37556 -14097673.49253  23681457.9774                   23681462.0044
 -31736226.46158 -24717694.55157  20330557.2814                   20330557.6764
 -23027874.88758 -17932027.11356  21529857.3204                   21529860.6254
   -196030.61355   -142066.08653  24562879.0784                   24562890.2624
  -7619054.98056  -5926352.54354  23626236.1954                   23626242.5784
 11  9 23  0  1  0.0000000  0  9G29G12G02G30G10G05G25G15G26
 -15090048.27347 -11748874.37145  22386160.4774                   22386162.0234
 -26640019.56648 -20747089.69146  21614108.5004                   21614109.9414
 -31317262.08247 -24377853.43446  21598440.1644                   21598439.5434
 -12181648.69147  -9481520.10945  22639252.8364                   22639255.0634
 -18034911.54346 -14033465.86343  23697138.3754                   23697141.9804
 -31734624.58248 -24716446.32447  20330862.2274                   20330862.0234
 -23040138.43448 -17941583.12146  21527523.2344                   21527526.5314
   -314024.42046   -234008.69543  24540424.2504                   24540436.5704
  -7738032.57046  -6019062.04343  23603594.2424                   23603602.6564
 11  9 23  0  1 30.0000000  0  9G29G12G02G30G10G05G25G15G26
 -15194215.01647 -11830043.19145  22366337.6414                   22366339.9654
 -26594333.56647 -20711490.26246  21622802.3364                   21622803.1994
 -31299870.52747 -24364301.59046  21601749.9534                   21601749.1914
 -12233104.09047  -9521615.20345  22629461.5394                   22629463.6484
 -17952363.05946 -13969142.42243  23712846.2344                   23712851.0594
 -31732501.96948 -24714792.32447  20331265.9534                   20331266.0124
 -23051827.98848 -17950691.85546  21525298.9304                   21525302.6294
   -432132.12146   -326040.23843  24517949.8054                   24517960.6174
  -7856923.87546  -6111704.35244  23580970.1644                   23580977.0984
 11  9 23  0  2  0.0000000  0  9G29G12G02G30G10G05G25G15G26
 -15298274.00847 -11911128.04345  22346535.4694                   22346538.3524
 -26548247.85548 -20675579.38346  21631572.4534                   21631573.9804
 -31282377.05147 -24350670.32046  21605078.7584                   21605078.0474
 -12283975.10947  -9561254.93045  22619781.2734                   22619783.5314
 -17869668.31646 -13904705.03143  23728582.6724                   23728586.5004
 -31729860.09848 -24712733.70347  20331768.2504                   20331768.8014
 -23062944.05948 -17959353.71946  21523183.4144                   21523187.2624
   -550350.94146   -418158.16443  24495451.8444                   24495462.4844
  -7975725.23446  -6204276.57443  23558363.2194                   23558368.9104
 11  9 23  0  2 30.0000000  0  9G29G12G02G30G10G05G25G15G26
 -15402219.08247 -11992124.12545  22326755.7114                   22326757.6684
 -26501761.30547 -20639356.15246  21640418.4534                   21640420.2544
 -31264777.85547 -24336956.68046  21608427.9694                   21608427.5234
 -12334257.46947  -9600435.96945  22610212.6334                   22610214.8554
 -17786826.30546 -13840152.86343  23744347.8364                   23744351.2384
 -31726696.93748 -24710268.88747  20332370.2424                   20332370.8524
 -23073483.78548 -17967566.49646  21521177.6954                   21521180.7154
   -668674.18746   -510357.50844  24472935.8444                   24472945.1214
  -8094429.30547  -6296772.99643  23535774.6024                   23535779.8794
 11  9 23  0  3  0.0000000  0  9G29G12G02G30G10G05G25G15G26
 -15506045.41847 -12073027.67645  22306998.1094                   22306999.6564
 -26454873.57847 -20602820.32046  21649341.1564                   21649342.4694
 -31247070.21547 -24323158.51246  21611797.4844                   21611796.7774
 -12383947.69547  -9639155.61744  22600756.6884                   22600758.2464
 -17703836.39146 -13775485.41843  23760140.2894                   23760143.9144
 -31723010.70748 -24707396.48847  20333071.9534                   20333072.4924
 -23083445.21948 -17975328.65646  21519282.0474                   21519285.3594
   -787096.73046   -602634.25043  24450400.3754                   24450409.4454
  -8213029.80947  -6389188.65644  23513205.8054                   23513210.2934
 11  9 23  0  3 30.0000000  0  9G29G12G02G30G10G05G25G15G26
 -15609752.69147 -12153838.47345  22287263.3834                   22287264.9694
 -26407588.53147 -20565974.88346  21658339.2504                   21658340.5394
 -31229255.62147 -24309277.00846  21615187.1094                   21615186.4344
 -12433046.62547  -9677414.53544  22591413.3524                   22591415.3134
 -17620702.58246 -13710705.87944  23775960.4064                   23775964.4924
 -31718805.07448 -24704119.35547  20333872.0864                   20333872.4924
 -23092830.63748 -17982641.96546  21517496.3364                   21517499.8714
   -905617.41846   -694987.48043  24427846.5944                   24427855.2384
  -8331524.03547  -6481521.57044  23490657.3524                   23490660.9344
 11  9 23  0  4  0.0000000  0  9G29G12G02G30G10G05G25G15G26
 -15713335.75847 -12234552.46945  22267551.7734                   22267554.1024
 -26359905.90247 -20528819.64146  21667412.9064                   21667414.4384
 -31211331.43447 -24295310.12546  21618598.3984                   21618597.3834
 -12481550.87147  -9715210.03145  22582183.1414                   22582185.6134
 -17537425.00046 -13645814.28943  23791807.3364                   23791810.6954
 -31714078.18048 -24700436.03947  20334771.9774                   20334772.0354
 -23101637.93448 -17989504.78946  21515820.3674                   21515823.9534
  -1024230.61346   -787412.73443  24405274.7424                   24405283.7734
  -8449905.82447  -6573766.83644  23468129.7974                   23468133.0944
 11  9 23  0  4 30.0000000  0  9G29G12G02G30G10G05G25G15G26
 -15816792.25847 -12315167.83645  22247864.4924                   22247866.9024
 -26311828.55148 -20491356.82846  21676561.7424                   21676563.5904
 -31193297.12547 -24281257.41846  21622030.2814                   21622029.7584
 -12529459.54747  -9752541.47344  22573066.4144                   22573069.6294
 -17454005.76646 -13580812.31644  23807681.6884                   23807684.9024
 -31708831.07047 -24696347.35547  20335770.2034                   20335770.5354
 -23109867.97748 -17995917.79346  21514254.0084                   21514257.3594
  -1142933.21946   -879907.75443  24382685.7344                   24382694.8404
  -8568171.37147  -6665921.53143  23445624.7194                   23445626.1484
 11  9 23  0  5  0.0000000  0  9G29G12G02G30G10G05G25G15G26
 -15920117.40247 -12395680.84845  22228202.4844                   22228204.5594
 -26263355.86347 -20453585.95746  21685785.5164                   21685787.1994
 -31175149.60247 -24267116.48446  21625483.6174                   21625482.7194
 -12576769.29747  -9789406.23045  22564063.8914                   22564066.6684
 -17370444.38346 -13515699.54743  23823582.0234                   23823586.2304
 -31703063.09447 -24691852.80547  20336867.8984                   20336867.9344
 -23117518.58648 -18001879.30546  21512798.4384                   21512802.0864
  -1261719.68046   -972468.10943  24360080.3914                   24360089.5314
  -8686314.07846  -6757980.46544  23423141.5704                   23423147.3634
 11  9 23  0  5 30.0000000  0  9G29G12G02G30G10G05G25G15G26
 -16023310.99647 -12476091.34845  22208565.3984                   22208567.0274
 -26214492.21548 -20415510.45746  21695084.4064                   21695085.5474
 -31156891.12547 -24252889.09046  21628957.9384                   21628957.4144
 -12623481.40247  -9825805.29744  22555174.5864                   22555177.0594
 -17286745.10246 -13450479.40643  23839510.0314                   23839513.8754
 -31696777.39548 -24686954.84047  20338064.1254                   20338064.0164
 -23124592.62148 -18007391.53946  21511452.2734                   21511455.7234
  -1380589.43046  -1065093.34843  24337460.7344                   24337468.1914
  -8804331.92647  -6849942.14844  23400682.8594                   23400688.9064
 11  9 23  0  6  0.0000000  0  9G29G12G02G30G10G05G25G15G26
 -16126372.66447 -12556399.05545  22188953.6564                   22188955.0704
 -26165242.28147 -20377133.94946  21704456.0394                   21704457.5744
 -31138523.35547 -24238576.53946  21632453.5234                   21632452.1724
 -12669597.32847  -9861739.78945  22546399.1884                   22546401.3284
 -17202912.39146 -13385155.33643  23855462.7034                   23855466.1954
 -31689977.55148 -24681656.23847  20339357.9224                   20339357.9264
 -23131093.06248 -18012456.81246  21510215.4454                   21510218.4414
  -1499541.59046  -1157782.82443  24314823.7734                   24314832.1844
  -8922223.44947  -6941805.39544  23378249.5704                   23378253.6914
 11  9 23  0  6 30.0000000  0  9G29G12G02G30G10G05G25G15G26
 -16229299.44147 -12636601.66045  22169367.1414                   22169368.6604
 -26115607.78548 -20338457.78146  21713901.3754                   21713902.7194
 -31120045.33247 -24224178.09446  21635969.4144                   21635968.5664
 -12715115.57447  -9897208.56244  22537737.6254                   22537739.4264
 -17118947.87146 -13319728.49643  23871441.6094                   23871444.1024
 -31682664.16048 -24675957.47747  20340749.7194                   20340749.8444
 -23137019.78548 -18017075.04746  21509087.6024                   21509091.0004
  -1618572.21946  -1250533.46543  24292173.0634                   24292181.6524
  -9039983.73047  -7033566.38744  23355839.3754                   23355844.1414
 11  9 23  0  7  0.0000000  0  9G29G12G02G30G10G05G25G15G26
 -16332087.61747 -12716696.24645  22149807.1724                   22149808.4884
 -26065589.82847 -20299482.79746  21723419.8054                   21723421.0554
 -31101455.68047 -24209692.64146  21639507.0084                   21639506.8484
 -12760034.31647  -9932210.18044  22529189.5004                   22529191.3674
 -17034852.35946 -13254199.61744  23887443.6804                   23887447.1884
 -31674837.15248 -24669858.48047  20342239.2814                   20342239.2584
 -23142372.34448 -18021245.86746  21508068.4614                   21508072.7424
  -1737677.03946  -1343341.92643  24269507.6564                   24269516.8554
  -9157607.59447  -7125221.07844  23333456.8054                   23333460.4614
 11  9 23  0  7 30.0000000  0  9G29G12G02G30G10G05G25G15G26
 -16434736.76247 -12796682.50845  22130273.6644                   22130275.3524
 -26015192.62148 -20260212.30946  21733010.3524                   21733011.9184
 -31082755.97347 -24195121.45346  21643065.6334                   21643064.7344
 -12804354.73447  -9966745.57844  22520755.8754                   22520758.4264
 -16950630.07046 -13188571.90243  23903470.8594                   23903474.4774
 -31666500.08248 -24663362.04347  20343825.4064                   20343825.7234
 -23147153.45748 -18024971.42246  21507159.3914                   21507162.3874
  -1856854.64846  -1436207.03543  24246828.7814                   24246838.5274
  -9275093.10247  -7216767.96544  23311099.5554                   23311104.7624
 11  9 23  0  8  0.0000000  0  9G29G12G02G30G10G05G25G15G26
 -16537243.03547 -12876557.42246  22110766.7034                   22110769.1604
 -25964417.32048 -20220647.19546  21742672.3914                   21742673.9924
 -31063944.10247 -24180462.84846  21646645.4844                   21646644.3404
 -12848074.60947 -10000813.01645  22512435.8284                   22512439.0944
 -16866281.51246 -13122845.80544  23919521.7974                   23919525.5944
 -31657652.75448 -24656468.00047  20345508.8134                   20345509.0744
 -23151362.33648 -18028251.09446  21506357.8204                   21506361.4184
  -1976101.32846  -1529125.96543  24224135.0784                   24224144.6844
  -9392434.65647  -7308202.72344  23288770.5394                   23288774.7854
 11  9 23  0  8 30.0000000  0  9G29G12G02G30G10G05G25G15G26
 -16639603.27347 -12956318.55145  22091288.7424                   22091290.3634
 -25913265.91448 -20180789.00846  21752406.1954                   21752407.9144
 -31045019.42647 -24165716.35246  21650246.7114                   21650245.7774
 -12891192.84047 -10034411.62945  22504230.9064                   22504233.5514
 -16781808.37147 -13057022.62144  23935596.5394                   23935599.8754
 -31648296.06648 -24649177.05547  20347289.6414                   20347289.9064
 -23154999.29748 -18031085.10546  21505665.9694                   21505669.7624
  -2095413.05546  -1622095.59043  24201431.8204                   24201439.9224
  -9509627.82847  -7399521.81244  23266468.9304                   23266473.6414
 11  9 23  0  9  0.0000000  0  9G29G12G02G30G10G05G25G15G26
 -16741814.84847 -13035963.85246  22071838.0944                   22071839.4534
 -25861740.18748 -20140639.15646  21762211.2974                   21762212.7774
 -31025981.29347 -24150881.43746  21653869.5084                   21653868.4494
 -12933708.49647 -10067540.69944  22496140.5004                   22496142.5004
 -16697212.58247 -12991103.84043  23951694.7664                   23951697.8324
 -31638431.12948 -24641490.06647  20349166.4614                   20349166.8164
 -23158064.84448 -18033473.87146  21505082.7194                   21505086.2584
  -2214786.35547  -1715113.21144  24178715.8754                   24178723.2074
  -9626668.28947  -7490721.91444  23244196.9694                   23244200.8524
 11  9 23  0  9 30.0000000  0  9G29G12G02G30G10G05G25G15G26
 -16843878.47347 -13115493.86746  22052415.8054                   22052417.8754
 -25809845.74648 -20100201.98046  21772086.1254                   21772087.7274
 -31006832.66447 -24135960.42246  21657513.0634                   21657512.5004
 -12975624.53147 -10100202.53144  22488164.0784                   22488166.2504
 -16612499.88747 -12925093.97743  23967814.9694                   23967819.2734
 -31628062.84048 -24633410.85247  20351139.7344                   20351139.7734
 -23160563.34448 -18035420.79346  21504607.4304                   21504610.7894
  -2334221.83247  -1808179.24644  24155987.1254                   24155995.8094
  -9743555.51647  -7581802.62544  23221953.8054                   23221957.6684
 11  9 23  0 10  0.0000000  0  9G29G12G02G30G10G05G25G15G26
 -16945791.06647 -13194906.17646  22033022.8754                   22033024.4614
 -25757584.97748 -20059479.35946  21782031.1094                   21782032.6724
 -30987572.50447 -24120952.50846  21661178.0004                   21661177.5084
 -13016939.58247 -10132396.03944  22480302.2504                   22480305.0314
 -16527671.50047 -12858993.94543  23983957.5314                   23983960.3054
 -31617191.62948 -24624939.76647  20353208.4304                   20353209.0004
 -23162494.92648 -18036925.96146  21504239.8204                   21504243.1914
  -2453715.55947  -1901290.71944  24133248.2894                   24133255.7424
  -9860284.63347  -7672760.13744  23199740.6884                   23199746.0434
 11  9 23  0 10 30.0000000  0  9G29G12G02G30G10G05G25G15G26
 -17047550.95347 -13274199.49645  22013658.5554                   22013660.2344
 -25704960.50048 -20018473.32046  21792045.3984                   21792046.7154
 -30968200.78947 -24105857.67645  21664864.8054                   21664863.6724
 -13057653.55547 -10164121.21145  22472554.6024                   22472557.5394
 -16442729.89846 -12792805.69143  24000121.0234                   24000124.1804
 -31605819.60548 -24616078.43447  20355372.5394                   20355372.7624
 -23163860.86348 -18037990.37546  21503979.9844                   21503983.1684
  -2573264.91846  -1994445.62143  24110497.9924                   24110505.5864
  -9976852.13347  -7763591.75044  23177558.6724                   23177562.5594
 11  9 23  0 11  0.0000000  0  9G29G12G02G30G10G05G25G15G26
 -17149156.59047 -13353372.62145  21994323.1644                   21994324.8134
 -25651975.65248 -19977186.47746  21802127.8754                   21802129.8404
 -30948718.28147 -24090676.49245  21668571.9844                   21668570.8714
 -13097767.03547 -10195378.43745  22464921.1174                   22464923.9774
 -16357678.35546 -12726531.73043  24016305.5394                   24016308.7034
 -31593949.42648 -24606828.92647  20357631.2344                   20357631.1644
 -23164663.18448 -18038615.60246  21503827.3204                   21503830.4884
  -2692867.69146  -2087642.06243  24087737.8444                   24087745.8754
 -10093255.07447  -7854295.10544  23155407.7114                   23155411.3554
 11  9 23  0 11 30.0000000  0  9G29G12G02G30G10G05G25G15G26
 -17250604.82047 -13432423.10245  21975017.9774                   21975019.4184
 -25598632.05148 -19935620.06646  21812279.0004                   21812280.7814
 -30929124.07847 -24075408.30146  21672300.7344                   21672299.6174
 -13137278.91847 -10226166.89144  22457401.8444                   22457404.6294
 -16272518.32046 -12660173.18743  24032511.6564                   24032513.5234
 -31581581.97748 -24597191.93747  20359984.9224                   20359984.8204
 -23164902.16448 -18038801.86746  21503781.6804                   21503785.3524
  -2812520.32446  -2180877.45343  24064968.9064                   24064975.6254
 -10209488.89147  -7944866.68444  23133289.6484                   23133292.6724
 11  9 23  0 12  0.0000000  0  9G29G12G02G30G10G05G25G15G26
 -17351893.97747 -13511349.64146  21955743.3444                   21955744.8794
 -25544933.28148 -19893776.92646  21822497.4614                   21822498.5594
 -30909418.75447 -24060053.50046  21676050.3364                   21676049.9884
 -13176189.48047 -10256486.80545  22449997.8444                   22450000.0514
 -16187252.71546 -12593732.53142  24048736.5084                   24048740.5514
 -31568719.29348 -24587169.05147  20362432.3364                   20362433.1764
 -23164579.59848 -18038550.57046  21503843.5314                   21503846.8094
  -2932220.50446  -2274149.83644  24042190.1024                   24042198.0354
 -10325550.23447  -8035303.89844  23111203.0004                   23111206.3284
 11  9 23  0 12 30.0000000  0  9G29G12G02G30G10G05G25G15G26
 -17453021.60947 -13590150.30546  21936499.6954                   21936501.5514
 -25490882.23048 -19851659.27746  21832782.9454                   21832784.8714
 -30889601.66047 -24044611.59446  21679821.3984                   21679821.1764
 -13214498.56247 -10286338.01645  22442708.0554                   22442710.3794
 -16101883.66446 -12527211.21543  24064981.6954                   24064986.4264
 -31555363.09048 -24576761.60547  20364974.0634                   20364973.8204
 -23163696.59448 -18037862.55946  21504011.5394                   21504015.0864
  -3051965.36746  -2367457.10244  24019403.4454                   24019409.8404
 -10441435.13747  -8125603.60944  23089150.4924                   23089155.0164
 11  9 23  0 13  0.0000000  0  9G29G12G02G30G10G05G25G15G26
 -17553987.31247 -13668824.78146  21917286.5704                   21917288.5704
 -25436483.27348 -19809270.52046  21843135.1254                   21843136.2934
 -30869674.65247 -24029084.05545  21683613.9064                   21683612.6024
 -13252207.84047 -10315721.84845  22435532.0084                   22435534.3674
 -16016415.68446 -12460612.84043  24081245.4614                   24081250.5474
 -31541516.88348 -24565972.33647  20367608.8914                   20367608.8164
 -23162256.34448 -18036740.33646  21504285.6954                   21504289.3164
  -3171753.79346  -2460798.23044  23996607.8984                   23996614.0164
 -10557141.68047  -8215764.34444  23067132.5164                   23067135.6994
 11  9 23  0 13 30.0000000  0  9G29G12G02G30G10G05G25G15G26
 -16079363.93747 -12519767.50446  22197897.7814                   22197899.4734
 -23806319.21948 -18539012.87146  22153345.1644                   22153346.7624
 -29274217.11747 -22785870.39145  21987219.2894                   21987218.3094
 -11713894.69947  -9117036.26645  22728263.5084                   22728265.6484
 -14355432.28946 -11166340.01243  24397319.9924                   24397324.6994
 -29951761.84848 -23327202.16847  20670129.0474                   20670129.4414
 -21584839.02348 -16807584.00046  21804457.7194                   21804461.0744
  -1716157.53946  -1326566.90643  24273598.3284                   24273605.1564
  -9097241.13347  -7078179.29744  23344941.5944                   23344945.7584
 11  9 23  0 14  0.0000000  0  9G29G12G02G30G10G05G25G15G26
 -16179993.57047 -12598180.11346  22178748.3754                   22178749.7974
 -23751226.38747 -18496083.43446  22163828.8284                   22163830.7114
 -29254064.41048 -22770166.97345  21991053.7274                   21991053.1174
 -11750398.55547  -9145480.82845  22721316.6564                   22721319.5234
 -14269767.23846 -11099588.02043  24413621.7814                   24413625.7464
 -29936935.88748 -23315649.45347  20672950.2114                   20672950.6764
 -21582282.60548 -16805592.03146  21804944.3284                   21804947.4774
  -1836018.60946  -1419964.75843  24250788.9614                   24250796.6454
  -9212574.35946  -7168049.14544  23322993.8524                   23322998.3054
 11  9 23  0 14 30.0000000  0  9G29G12G02G30G10G05G25G15G26
 -16280455.86347 -12676462.35946  22159631.5704                   22159632.6914
 -23695795.43048 -18452890.53946  22174376.9224                   22174378.6174
 -29233802.57847 -22754378.54745  21994909.9304                   21994908.9144
 -11786303.70747  -9173458.85945  22714484.1024                   22714486.1764
 -14184011.19546 -11032765.16443  24429940.8754                   24429944.8134
 -29921626.93448 -23303720.37947  20675863.5474                   20675863.8794
 -21579174.23448 -16803169.96946  21805535.9454                   21805539.7194
  -1955916.07446  -1513390.85943  24227972.8054                   24227980.4344
  -9327719.14846  -7257772.16844  23301082.6254                   23301086.6524
 11  9 23  0 15  0.0000000  0  9G29G12G02G30G10G05G25G15G26
 -16380746.65647 -12754610.96946  22140546.6094                   22140547.5864
 -23640027.37147 -18409434.94545  22184989.0704                   22184990.8754
 -29213429.87148 -22738503.71145  21998786.4384                   21998785.3444
 -11821608.31247  -9200968.89545  22707765.8754                   22707768.0664
 -14098164.58246 -10965871.68443  24446277.3984                   24446280.8244
 -29905834.82048 -23291414.82047  20678868.8914                   20678869.0084
 -21575513.52348 -16800317.48846  21806232.7424                   21806236.4654
  -2075844.96946  -1606841.53143  24205151.0164                   24205157.3794
  -9442670.24646  -7347344.22744  23279207.9774                   23279212.6454
 11  9 23  0 15 30.0000000  0  9G29G12G02G30G10G05G25G15G26
 -16480864.64547 -12832624.90246  22121494.2814                   22121495.9414
 -23583925.25447 -18365719.06646  22195665.4774                   22195667.2234
 -29192946.50047 -22722542.63745  22002684.4224                   22002683.2664
 -11856312.85547  -9228011.37544  22701161.6564                   22701164.7854
 -14012230.49646 -10898910.07443  24462630.0554                   24462634.2734
 -29889561.91848 -23278734.62547  20681965.3674                   20681965.8554
 -21571302.28548 -16797036.02746  21807033.8594                   21807037.7734
  -2195802.60246  -1700314.58643  24182322.7894                   24182328.6254
  -9557424.06246  -7436762.57044  23257371.0394                   23257374.5824
 11  9 23  0 16  0.0000000  0  9G29G12G02G30G10G05G25G15G26
 -16580805.87547 -12910501.09046  22102475.9694                   22102477.8284
 -23527490.71948 -18321744.15246  22206404.3204                   22206406.0784
 -29172351.35548 -22706494.48445  22006603.3364                   22006602.7274
 -11890416.34847  -9254585.50845  22694672.9694                   22694675.1134
 -13926210.05146 -10831881.17644  24478999.5554                   24479003.0784
 -29872809.00448 -23265680.39847  20685153.2194                   20685153.3674
 -21566540.94148 -16793325.90246  21807940.0784                   21807943.3634
  -2315785.66046  -1793807.44544  24159490.9694                   24159497.3714
  -9671975.64847  -7526023.35944  23235572.7664                   23235576.9454
 11  9 23  0 16 30.0000000  0  9G29G12G02G30G10G05G25G15G26
 -16680568.03148 -12988237.75846  22083492.2814                   22083493.8164
 -23470726.07848 -18277512.01246  22217206.2974                   22217207.9734
 -29151643.60247 -22690358.56645  22010544.1024                   22010543.2154
 -11923918.25847  -9280690.84445  22688296.6414                   22688299.4694
 -13840105.12546 -10764786.45343  24495384.4924                   24495387.7304
 -29855577.66848 -23252253.37947  20688432.3754                   20688432.4304
 -21561230.30548 -16789187.76246  21808950.8134                   21808954.2624
  -2435790.16047  -1887317.04344  24136654.5864                   24136660.5394
  -9786321.01247  -7615123.47744  23213812.8594                   23213817.2274
 11  9 23  0 17  0.0000000  0  9G29G12G02G30G10G05G25G15G26
 -16780149.06248 -13065833.31646  22064542.2344                   22064543.4774
 -23413634.64548 -18233025.24246  22228070.3364                   22228072.1604
 -29130823.53547 -22674135.14845  22014505.9064                   22014504.9384
 -11956819.26647  -9306327.96544  22682035.9454                   22682038.1024
 -13753918.25146 -10697627.91443  24511784.4454                   24511788.7464
 -29837870.07048 -23238455.24647  20691801.8754                   20691802.6804
 -21555372.47748 -16784623.22346  21810065.3204                   21810068.7464
  -2555813.93747  -1980841.64544  24113814.8054                   24113821.0904
  -9900456.41047  -7704059.98444  23192093.5704                   23192097.8324
 11  9 23  0 17 30.0000000  0  9G29G12G02G30G10G05G25G15G26
 -16879549.91047 -13143288.47346  22045626.9064                   22045628.1334
 -23356222.55148 -18188288.59445  22238995.8284                   22238998.2234
 -29109894.39147 -22657826.73845  22018488.5314                   22018487.9654
 -11989122.81247  -9331499.54745  22675889.2114                   22675890.7774
 -13667655.19546 -10630409.91443  24528199.6094                   24528204.2624
 -29819691.64548 -23224290.23847  20695261.2034                   20695261.2304
 -21548972.24648 -16779636.02746  21811283.2584                   21811286.9494
  -2675857.32446  -2074381.51244  24090970.3754                   24090977.5164
 -10014381.92647  -7792832.91844  23170414.3444                   23170417.2344
 11  9 23  0 18  0.0000000  0  9G29G12G02G30G10G05G25G15G26
 -16978765.44947 -13220599.23846  22026746.8364                   22026748.1684
 -23298489.39548 -18143301.77746  22249981.8284                   22249983.9694
 -29088852.85247 -22641430.73445  22022492.3134                   22022490.7854
 -12020826.25447  -9356203.47745  22669856.1644                   22669858.3404
 -13581315.49246 -10563132.24643  24544629.4064                   24544634.2274
 -29801041.31648 -23209757.50446  20698810.1414                   20698810.1604
 -21542028.25048 -16774225.13346  21812604.8834                   21812608.2734
  -2795914.58247  -2167932.21944  24068124.3364                   24068130.2344
 -10128090.50847  -7881436.80944  23148776.2664                   23148779.6844
 11  9 23  0 18 30.0000000  0  9G29G12G02G30G10G05G25G15G26
 -17077791.68747 -13297762.47746  22007902.5634                   22007903.9184
 -23240436.89847 -18098066.12146  22261028.8754                   22261030.9064
 -29067697.80547 -22624946.30945  22026518.3834                   22026517.8674
 -12051928.01647  -9380438.57045  22663937.2894                   22663940.5164
 -13494899.51646 -10495795.08643  24561074.5234                   24561078.0664
 -29781919.52348 -23194857.39147  20702448.9614                   20702449.2234
 -21534540.49648 -16768390.50846  21814029.5634                   21814033.3094
  -2915980.97746  -2261490.06244  24045275.5944                   24045282.1254
 -10241576.77346  -7969867.48844  23127180.8364                   23127183.8524
 11  9 23  0 19  0.0000000  0  9G29G12G02G30G10G05G25G15G26
 -17176632.22347 -13374781.02746  21989093.9144                   21989095.1564
 -23182073.38747 -18052588.12545  22272135.3754                   22272137.5434
 -29046434.01247 -22608377.12945  22030564.6804                   22030563.9384
 -12082433.78947  -9404209.24645  22658132.3444                   22658134.7664
 -13408414.74646 -10428404.30143  24577531.3444                   24577536.3284
 -29762333.52347 -23179595.57847  20706176.1484                   20706175.9774
 -21526515.90248 -16762137.59046  21815556.7344                   21815560.3364
  -3036059.02746  -2355056.94144  24022425.2424                   24022431.4144
 -10354842.41046  -8058126.23044  23105626.5474                   23105631.2154
 11  9 23  0 19 30.0000000  0  9G29G12G02G30G10G05G25G15G26
 -17275281.80547 -13451650.79346  21970321.7894                   21970322.9614
 -23123398.49647 -18006867.48045  22283300.7974                   22283302.0234
 -29025058.55548 -22591720.93045  22034632.0394                   22034631.5594
 -12112341.08647  -9427513.61345  22652441.0864                   22652443.2504
 -13321861.07045 -10360959.90242  24594002.5004                   24594006.9614
 -29742282.57448 -23163971.45747  20709991.5474                   20709991.7774
 -21517953.37548 -16755465.49646  21817186.3594                   21817189.7854
  -3156143.07446  -2448628.50444  23999573.9224                   23999579.9384
 -10467880.65246  -8146207.77044  23084115.9064                   23084119.5864
 11  9 23  0 20  0.0000000  0  9G29G12G02G30G10G05G25G15G26
 -17373739.59848 -13528371.10946  21951585.6644                   21951586.8594
 -23064417.13347 -17960908.03945  22294524.7344                   22294527.0434
 -29003572.79748 -22574978.80145  22038721.3364                   22038720.5124
 -12141651.61347  -9450352.95745  22646864.0554                   22646865.5084
 -13235242.02346 -10293464.45342  24610484.8524                   24610489.5474
 -29721770.11748 -23147987.71546  20713895.0554                   20713895.3874
 -21508855.94948 -16748376.57446  21818917.5474                   21818921.2544
  -3276231.54346  -2542203.50444  23976721.4304                   23976727.6604
 -10580689.43447  -8234110.50444  23062649.5784                   23062652.3834
 11  9 23  0 20 30.0000000  0  9G29G12G02G30G10G05G25G15G26
 -17472000.30547 -13604937.85546  21932887.1884                   21932888.4144
 -23005129.01247 -17914709.55945  22305807.2034                   22305808.7424
 -28981973.50047 -22558148.18046  22042831.2424                   22042830.9454
 -12170362.89547  -9472725.31645  22641400.2504                   22641402.4964
 -13148556.84045 -10225917.48442  24626980.7344                   24626985.1484
 -29700795.28948 -23131643.68446  20717886.2734                   20717886.9144
 -21499222.44148 -16740869.94546  21820750.3284                   21820754.3674
  -3396318.84046  -2635777.61744  23953869.5314                   23953875.0944
 -10693262.19947  -8321829.34445  23041226.4144                   23041230.1994
 11  9 23  0 21  0.0000000  0 10G29G12G02G30G10G05G25G15G26G21
 -17570065.05948 -13681351.91046  21914226.2504                   21914227.2894
 -22945540.41447 -17868276.94145  22317146.2034                   22317147.5704
 -28960264.10548 -22541231.77746  22046962.2894                   22046961.8324
 -12198478.63347  -9494633.64545  22636049.1804                   22636052.0124
 -13061811.48446 -10158323.64142  24643487.4454                   24643492.5084
 -29679363.52048 -23114943.58647  20721964.7274                   20721965.0634
 -21489058.03948 -16732949.62146  21822684.4304                   21822688.3444
  -3516405.22746  -2729351.01244  23931017.3594                   23931023.2034
 -10805598.35947  -8409363.82844  23019850.0554                   23019853.2344
   1455780.27056   1137258.44953  25258721.8524                   25258727.5234
 11  9 23  0 21 30.0000000  0 10G29G12G02G30G10G05G25G15G26G21
 -17667939.87948 -13757617.97346  21895601.5004                   21895602.8204
 -22885662.64547 -17821619.00445  22328540.5164                   22328542.9614
 -28938452.59848 -22524235.80146  22051112.8134                   22051112.0594
 -12226007.64547  -9516084.80545  22630811.0554                   22630813.2304
 -12975016.33246 -10090690.95742  24660005.0474                   24660008.2344
 -29657485.11348 -23097895.48446  20726127.8444                   20726128.3634
 -21478372.76648 -16724623.43046  21824718.0314                   21824721.3134
  -3636496.44547  -2822928.23044  23908164.9694                   23908170.1054
 -10917702.54747  -8496717.55544  22998517.2664                   22998520.4224
   1374595.79746   1073997.95343  25243273.8594                   25243278.4844
 11  9 23  0 22  0.0000000  0  9G29G12G02G30G05G25G15G26G21
 -17765625.61347 -13833736.68046  21877012.0554                   21877013.5164
 -22825501.66447 -17774740.38745  22339988.9924                   22339990.9654
 -28916541.94148 -22507162.55945  22055282.6414                   22055281.9344
 -12252953.33647  -9537081.42644  22625683.1954                   22625686.2074
 -29635165.53548 -23080503.59446  20730375.4694                   20730375.5984
 -21467171.43748 -16715895.12546  21826849.5474                   21826853.1604
  -3756592.54347  -2916509.23444  23885310.5634                   23885315.9574
 -11029574.21147  -8583890.09444  22977228.4844                   22977231.6414
   1293421.44546   1010745.34843  25227825.7344                   25227830.5044
 11  9 23  0 22 30.0000000  0  9G29G12G02G30G05G25G15G26G21
 -17863115.09848 -13909702.47346  21858460.6484                   21858461.9144
 -22765055.36747 -17727639.43445  22351491.7034                   22351493.5744
 -28894527.09048 -22490008.10945  22059471.3594                   22059471.0864
 -12279311.37947  -9557620.13344  22620667.6564                   22620669.4774
 -29612401.77048 -23062765.58246  20734707.0394                   20734707.1564
 -21455451.00448 -16706762.31646  21829079.5164                   21829083.7544
  -3876685.35247  -3010087.69144  23862457.7894                   23862463.1804
 -11141204.65247  -8670874.66444  22955985.3834                   22955988.1484
   1212261.12146    947503.68443  25212381.6884                   25212386.3714
 11  9 23  0 23  0.0000000  0  9G29G12G02G30G05G25G15G26G21
 -17960398.42247 -13985507.61346  21839947.9064                   21839949.1644
 -22704319.54747 -17680312.88345  22363049.2664                   22363051.0514
 -28872400.47748 -22472766.58645  22063682.4774                   22063681.2934
 -12305074.76247  -9577695.44945  22615764.9774                   22615766.6644
 -29589188.42648 -23044677.25046  20739124.1174                   20739124.6174
 -21443205.78148 -16697220.57446  21831409.7274                   21831413.6724
  -3996764.81247  -3103655.78144  23839607.2814                   23839612.4884
 -11252582.39147  -8757662.33244  22934791.2194                   22934793.7154
   1131121.97346    884278.50443  25196941.2894                   25196946.7344
 11  9 23  0 23 30.0000000  0  9G29G12G02G30G05G25G15G26G21
 -18057465.89547 -14061144.55546  21821476.8524                   21821477.7814
 -22643289.48047 -17632757.05545  22374663.3284                   22374665.3554
 -28850154.22747 -22455431.83245  22067915.2734                   22067914.7114
 -12330236.30547  -9597301.82845  22610976.7814                   22610979.2584
 -29565519.66447 -23026234.04746  20743628.2034                   20743628.4414
 -21430429.89548 -16687265.34046  21833841.0704                   21833845.0744
  -4116820.25847  -3197205.16444  23816761.0634                   23816766.5704
 -11363696.22747  -8844244.33244  22913646.8054                   22913650.1764
   1050011.19946    821075.46943  25181506.6174                   25181511.9654
 11  9 23  0 24  0.0000000  0  9G29G12G02G30G05G25G15G26G21
 -18154316.37147 -14136612.40246  21803046.2974                   21803047.7304
 -22581969.34847 -17584975.18746  22386331.6414                   22386334.2504
 -28827789.55547 -22438004.80545  22072171.3674                   22072170.3484
 -12354797.93047  -9616440.70745  22606303.3134                   22606305.5044
 -29541399.57448 -23007439.16447  20748218.2894                   20748218.3524
 -21417126.58648 -16676899.10946  21836372.7974                   21836376.6374
  -4236849.68747  -3290734.32844  23793920.3364                   23793925.0784
 -11474543.83647  -8930618.93044  22892552.5634                   22892556.3444
    968927.08646    757893.21943  25166076.2814                   25166081.2464
 11  9 23  0 24 30.0000000  0  9G29G12G02G30G05G25G15G26G21
 -18250951.41447 -14211912.37946  21784657.2734                   21784658.6374
 -22520366.01247 -17536972.65645  22398055.0394                   22398056.9964
 -28805309.99647 -22420488.25045  22076449.0084                   22076448.1724
 -12378763.96947  -9635115.53945  22601742.4534                   22601744.5634
 -29516833.84048 -22988297.01646  20752893.1254                   20752893.1604
 -21403301.59048 -16666126.37546  21839003.3754                   21839007.0824
  -4356854.28547  -3384244.10544  23771083.7584                   23771088.5784
 -11585125.16447  -9016786.00445  22871509.8524                   22871513.0634
    887865.24646    694728.36743  25150651.0634                   25150654.9144
 11  9 23  0 25  0.0000000  0  9G29G12G02G30G05G25G15G26G21
 -18347368.40647 -14287042.43746  21766310.0084                   21766311.0314
 -22458481.95748 -17488751.37945  22409830.7664                   22409832.9184
 -28782715.06247 -22402881.78945  22080749.0634                   22080747.9654
 -12402134.80947  -9653326.56245  22597295.2194                   22597297.1804
 -29491824.35548 -22968809.09447  20757652.0474                   20757652.6454
 -21388956.39148 -16654948.31246  21841733.2344                   21841737.1214
  -4476830.99646  -3477732.13344  23748252.5394                   23748257.3874
 -11695436.23047  -9102742.51245  22850518.8134                   22850520.8364
    806825.72346    631580.88343  25135229.7114                   25135233.6644
 11  9 23  0 25 30.0000000  0  9G29G12G02G30G05G25G15G26G21
 -18443568.38747 -14362003.39146  21748003.8594                   21748004.4494
 -22396323.46947 -17440316.23845  22421658.9774                   22421661.5474
 -28760007.76247 -22385187.77045  22085069.7894                   22085068.8754
 -12424914.23847  -9671076.75445  22592960.5634                   22592962.5434
 -29466376.30548 -22948979.43446  20762494.6724                   20762494.6334
 -21374096.17248 -16643368.92246  21844561.0004                   21844565.1334
  -4596779.83647  -3571198.43444  23725426.6884                   23725430.7894
 -11805476.31247  -9188487.86745  22829578.7504                   22829581.5864
    725804.62546    568447.73843  25119810.9694                   25119815.7424
 11  9 23  0 26  0.0000000  0  9G29G12G02G30G05G25G15G26G21
 -18539548.44547 -14436792.97746  21729739.2504                   21729740.1054
 -22333893.24647 -17391669.36745  22433539.3984                   22433541.2384
 -28737187.55147 -22367405.77345  22089411.9304                   22089411.2544
 -12447102.56247  -9688366.37145  22588738.1484                   22588740.2464
 -29440491.23448 -22928809.24246  20767420.5314                   20767420.6684
 -21358722.47348 -16631389.41846  21847486.7424                   21847490.8444
  -4716697.05547  -3664640.10944  23702607.1644                   23702610.9574
 -11915241.41447  -9274018.94945  22808690.7664                   22808693.9614
    644802.05946    505329.03542  25104396.2034                   25104401.4144
 11  9 23  0 26 30.0000000  0  9G29G12G02G30G05G25G15G26G21
 -18635305.57848 -14511408.85246  21711517.0864                   21711518.6884
 -22271193.19147 -17342812.25445  22445470.7584                   22445472.6414
 -28714253.54347 -22349535.08645  22093776.4924                   22093775.6054
 -12468699.51647  -9705195.16844  22584627.9224                   22584630.7384
 -29414170.68748 -22908299.70346  20772429.2584                   20772429.0864
 -21342836.32448 -16619010.60546  21850509.7664                   21850513.4104
  -4836579.29746  -3758054.49644  23679793.5004                   23679798.9184
 -12024726.83247  -9359332.09445  22787855.7034                   22787859.7234
    563817.96945    442224.77042  25088985.4224                   25088989.6024
 11  9 23  0 27  0.0000000  0  9G29G12G02G30G05G25G15G26G21
 -18730838.93048 -14585850.34846  21693337.4694                   21693338.5744
 -22208227.79347 -17293748.35545  22457453.0554                   22457455.2194
 -28691206.78947 -22331576.56245  22098162.0164                   22098161.1994
 -12489707.37147  -9721564.93045  22580630.4064                   22580632.7194
 -29387418.73448 -22887454.02046  20777520.0554                   20777519.8634
 -21326441.31248 -16606235.27346  21853629.6804                   21853633.2544
  -4956424.85547  -3851440.33244  23656988.1484                   23656993.2154
 -12133930.39147  -9444425.62144  22767074.6564                   22767077.4414
    482850.98046    379133.87142  25073577.9454                   25073581.6954
 11  9 23  0 27 30.0000000  0  9G29G12G02G30G05G25G15G26G21
 -18826146.34447 -14660115.78546  21675200.9534                   21675202.1954
 -22145000.01647 -17244480.02045  22469485.0394                   22469486.9264
 -28668047.35547 -22313530.22345  22102569.0164                   22102568.5314
 -12510127.17647  -9737476.47345  22576744.5394                   22576747.0864
 -29360237.48848 -22866273.80946  20782692.4064                   20782692.3284
 -21309539.73848 -16593065.23046  21856845.4534                   21856849.7664
  -5076231.03947  -3944795.45744  23634189.1414                   23634193.7424
 -12242848.73847  -9529296.89144  22746348.4844                   22746350.6804
    401900.13345    316055.49243  25058173.0784                   25058178.0514
 11  9 23  0 28  0.0000000  0  9G29G12G02G30G05G25G15G26G21
 -18921226.47747 -14734204.12146  21657107.9224                   21657108.9694
 -22081514.79347 -17195011.06645  22481565.2664                   22481567.4104
 -28644775.83647 -22295396.56245  22106997.7274                   22106996.5594
 -12529960.59047  -9752931.10245  22572970.3834                   22572973.1214
 -29332630.09048 -22844761.54346  20787945.9694                   20787945.8594
 -21292134.41848 -16579502.66846  21860157.7734                   21860161.1484
  -5195995.88747  -4038118.37144  23611398.8984                   23611402.4774
 -12351478.90247  -9613943.59844  22725676.7504                   22725679.9534
    320963.93845    252988.59443  25042771.4924                   25042776.8594
 11  9 23  0 28 30.0000000  0  9G29G12G02G30G05G25G15G26G21
 -19016075.61348 -14808112.47346  21639059.0394                   21639059.8324
 -22017773.13347 -17145342.31245  22493695.6254                   22493697.7974
 -28621390.72347 -22277174.37145  22111447.6804                   22111446.8014
 -12549206.96147  -9767928.31645  22569308.4694                   22569310.1684
 -29304597.27748 -22822917.77746  20793280.2894                   20793280.5314
 -21274226.03948 -16565548.10246  21863566.3284                   21863569.8444
  -5315714.82847  -4131405.53944  23588616.8444                   23588620.6914
 -12459815.72747  -9698361.76645  22705060.4534                   22705064.0744
    240043.66445    189934.08642  25027371.8834                   25027377.9184
 11  9 23  0 29  0.0000000  0  9G29G12G02G30G05G25G15G26G21
 -19110691.47348 -14881839.04746  21621053.9534                   21621054.9264
 -21953778.15647 -17095476.14545  22505873.2194                   22505875.1454
 -28597892.19547 -22258863.81645  22115919.2194                   22115918.3324
 -12567867.32847  -9782468.89145  22565757.6024                   22565759.1804
 -29276141.59848 -22800744.51246  20798695.1954                   20798695.7704
 -21255816.84848 -16551203.29746  21867068.8284                   21867072.5474
  -5435385.08647  -4224654.77044  23565844.1024                   23565848.4144
 -12567855.57447  -9782548.50445  22684501.8754                   22684504.1684
    159138.60546    126891.43443  25011976.2734                   25011981.5124
 11  9 23  0 29 30.0000000  0  9G29G12G02G30G05G25G15G26G21
 -19205074.32048 -14955384.03546  21603093.1414                   21603094.4184
 -21889535.09447 -17045416.66445  22518098.7194                   22518100.4574
 -28574281.82447 -22240466.10945  22120412.3984                   22120411.1644
 -12585944.90247  -9796555.35545  22562317.3754                   22562319.8164
 -29247267.52048 -22778245.22346  20804189.5864                   20804189.6684
 -21236911.30548 -16536471.71946  21870666.8284                   21870670.3874
  -5555006.27747  -4317865.76644  23543080.5704                   23543084.4304
 -12675597.37147  -9866503.02045  22663999.1024                   22664001.7344
     78245.67646     63858.26243  24996583.0394                   24996587.0594
 11  9 23  0 30  0.0000000  0  9G29G12G02G30G05G25G15G26G21
 -19299218.40248 -15028742.99246  21585178.2504                   21585178.7384
 -21825043.89147 -16995163.82845  22530370.8524                   22530372.2154
 -28550556.80547 -22221979.05545  22124927.0784                   22124925.6644
 -12603437.35247  -9810185.89545  22558988.5864                   22558990.4964
 -29217973.98048 -22755419.07846  20809764.2274                   20809763.9844
 -21217508.26648 -16521352.50046  21874358.7974                   21874362.6054
  -5674571.94146  -4411033.48844  23520327.5084                   23520331.1524
 -12783033.87947  -9950219.61745  22643554.0554                   22643556.5784
     -2632.05546       836.96543  24981193.1334                   24981196.6764
 11  9 23  0 30 30.0000000  0  9G29G12G02G30G05G25G15G26G21
 -19393118.62148 -15101911.91446  21567309.9224                   21567310.8014
 -21760304.83247 -16944717.86745  22542689.8054                   22542692.7034
 -28526713.97347 -22203400.21545  22129463.7584                   22129463.1684
 -12620342.82447  -9823359.03545  22555771.7344                   22555774.1884
 -29188260.71548 -22732265.87546  20815418.0474                   20815418.1914
 -21197607.14148 -16505845.16046  21878146.2664                   21878149.5864
  -5794076.19946  -4504153.37544  23497586.5634                   23497590.7854
 -12890158.59847 -10033693.27045  22623168.8204                   22623172.2114
    -83492.38346    -62170.80943  24965805.7814                   24965809.5594
 11  9 23  0 31  0.0000000  0  9G29G12G02G30G05G25G15G26G21
 -19486776.61748 -15174892.09846  21549487.4774                   21549488.3444
 -21695324.68447 -16894084.03945  22555055.0784                   22555057.4494
 -28502757.03947 -22184732.47345  22134022.6414                   22134022.2504
 -12636666.17247  -9836078.55945  22552665.3914                   22552667.6024
 -29158133.62148 -22708790.20346  20821151.7344                   20821151.6724
 -21177214.00048 -16489954.43446  21882026.6564                   21882030.3984
  -5913520.20346  -4597226.40644  23474856.3204                   23474861.1094
 -12996971.82447 -10116924.20345  22602842.7194                   22602845.7974
   -164339.88546   -125168.56643  24950420.6484                   24950424.5354
 11  9 23  0 31 30.0000000  0  9G29G12G02G30G05G25G15G26G21
 -19580191.81248 -15247683.09046  21531710.5234                   21531712.0704
 -21630108.79747 -16843266.54345  22567465.1024                   22567468.0824
 -28478687.59448 -22165977.05545  22138603.1254                   22138601.9844
 -12652410.20747  -9848346.66845  22549669.7504                   22549671.2584
 -29127596.73448 -22684995.20346  20826962.3444                   20826962.4774
 -21156332.78548 -16473683.38346  21886000.4384                   21886004.3634
  -6032902.31247  -4690251.14844  23452138.8754                   23452143.3324
 -13103471.62547 -10199910.87945  22582576.7114                   22582579.0514
   -245176.63746   -188158.01243  24935037.6174                   24935041.8634
 11  9 23  0 32  0.0000000  0  9G29G12G02G30G05G25G15G26G21
 -19673359.59848 -15320281.28146  21513981.4224                   21513982.5784
 -21564657.38747 -16792265.53545  22579919.9844                   22579923.5864
 -28454502.94147 -22147131.88745  22143205.3914                   22143204.3554
 -12667573.45347  -9860162.21145  22546783.6804                   22546785.9494
 -29096650.24648 -22660881.05546  20832850.9774                   20832851.3014
 -21134963.37148 -16457031.91846  21890066.7424                   21890070.6254
  -6152217.40246  -4783223.69944  23429433.9064                   23429437.4964
 -13209651.90647 -10282648.58645  22562370.9144                   22562373.1954
   -326000.80946   -251137.62143  24919657.0084                   24919661.5124
 11  9 23  0 32 30.0000000  0  9G29G12G02G30G05G25G15G26G21
 -19766278.26248 -15392685.35546  21496299.6804                   21496300.7974
 -21498974.37947 -16741084.02045  22592419.7194                   22592422.9184
 -28430203.50447 -22128197.25045  22147829.4224                   22147828.9144
 -12682157.73447  -9871526.63745  22544008.1724                   22544011.3754
 -29065297.17648 -22636450.07846  20838817.3984                   20838817.5394
 -21113108.60548 -16440002.27746  21894225.5314                   21894229.0514
  -6271463.49647  -4876142.44944  23406742.2814                   23406745.3014
 -13315509.68047 -10365135.02745  22542226.8594                   22542229.7234
   -406813.62146   -314108.40243  24904278.6414                   24904282.4694
 11  9 23  0 33  0.0000000  0  9G29G12G02G30G05G25G15G26G21
 -19858946.87948 -15464894.59046  21478665.2034                   21478666.0634
 -21433063.71147 -16689725.13745  22604962.8754                   22604964.6524
 -28405790.18447 -22109173.88745  22152474.8134                   22152474.4694
 -12696165.28947  -9882441.62945  22541343.6094                   22541345.2814
 -29033540.97348 -22611704.97746  20844860.2424                   20844860.2814
 -21090772.04748 -16422597.20746  21898475.8984                   21898480.0164
  -6390638.16047  -4969005.57444  23384063.8524                   23384067.2424
 -13421042.68747 -10447368.41445  22522144.7194                   22522146.5434
   -487616.59046   -377071.53943  24888902.4614                   24888906.5234
 11  9 23  0 33 30.0000000  0  9G29G12G02G30G05G25G15G26G21
 -19951361.46548 -15536905.87946  21461079.5474                   21461079.8984
 -21366927.14547 -16638190.23045  22617547.1804                   22617549.9264
 -28381261.59047 -22090060.70345  22157142.7424                   22157141.8094
 -12709595.92247  -9892907.08245  22538787.3284                   22538789.5594
 -29001382.40248 -22586646.34846  20850980.3204                   20850980.3014
 -21067954.55548 -16404817.37946  21902818.1804                   21902822.2774
  -6509737.59447  -5061810.05944  23361399.2894                   23361403.3444
 -13526245.74247 -10529344.69145  22502125.2424                   22502127.2974
   -568409.24646   -440026.61743  24873526.8444                   24873531.1054
 11  9 23  0 34  0.0000000  0  9G29G12G02G30G05G25G15G26G21
 -20043520.14548 -15608717.75846  21443541.8204                   21443542.2894
 -21300568.44547 -16586482.22345  22630175.4384                   22630177.4144
 -28356617.64548 -22070857.62145  22161832.3204                   22161830.9224
 -12722450.89547  -9902923.96945  22536341.3204                   22536343.6914
 -28968824.36748 -22561276.42646  20857175.4774                   20857175.8554
 -21044658.68048 -16386664.77346  21907251.0004                   21907255.1024
  -6628758.78947  -5154553.62544  23338750.0634                   23338753.1524
 -13631115.38347 -10611061.15245  22482168.4454                   22482170.6094
   -649191.78546   -502973.81643  24858154.3984                   24858158.5434
 11  9 23  0 34 30.0000000  0  9G29G12G02G30G05G25G15G26G21
 -20135421.87548 -15680329.41046  21426053.6884                   21426054.4964
 -21233991.43047 -16534604.07845  22642844.2584                   22642846.4184
 -28331859.30547 -22051565.43045  22166543.2194                   22166542.7274
 -12734732.58647  -9912494.12945  22534004.5234                   22534006.3594
 -28935870.18748 -22535597.83646  20863446.5864                   20863446.8914
 -21020887.83648 -16368142.07846  21911774.8674                   21911778.3134
  -6747699.79347  -5247234.69144  23316115.8754                   23316118.9144
 -13735649.12147 -10692515.87945  22462276.3134                   22462279.5434
   -729966.02346   -565914.58644  24842784.0784                   24842787.8284
 11  9 23  0 35  0.0000000  0  9G29G12G02G30G05G25G15G26G21
 -20227062.61748 -15751737.70746  21408615.0704                   21408615.1914
 -21167197.78547 -16482557.11345  22655555.0634                   22655557.1294
 -28306984.86347 -22032182.74245  22171276.9534                   22171276.5124
 -12746440.75047  -9921617.36745  22531776.3984                   22531778.6414
 -28902520.56648 -22509611.11746  20869792.4694                   20869792.8244
 -20996642.86748 -16349249.93046  21916388.4924                   21916392.3954
  -6866556.11347  -5339849.77044  23293498.4304                   23293501.3754
 -13839841.79747 -10773704.83645  22442448.8754                   22442452.1884
   -810731.09846   -628848.23443  24827414.4774                   24827418.3484
 11  9 23  0 35 30.0000000  0  9G29G12G02G30G05G25G15G26G21
 -20318441.80948 -15822942.18446  21391226.0474                   21391227.0124
 -21100192.66847 -16430345.39145  22668305.8834                   22668307.7704
 -28281995.96147 -22012710.87545  22176032.1804                   22176031.6174
 -12757578.25847  -9930295.94545  22529656.7894                   22529658.7344
 -28868779.99648 -22483319.74646  20876213.5084                   20876213.2624
 -20971928.08648 -16329991.68746  21921091.3364                   21921095.5864
  -6985326.87147  -5432398.16444  23270896.9224                   23270900.2274
 -13943691.46947 -10854626.50445  22422686.9614                   22422689.6334
   -891489.08646   -691776.31243  24812046.4924                   24812050.5554
 11  9 23  0 36  0.0000000  0  9G29G12G02G30G05G25G15G26G21
 -20409556.69548 -15893940.71146  21373887.3204                   21373887.8524
 -21032978.61747 -16377970.83245  22681096.2344                   22681098.5314
 -28256891.95347 -21993149.33245  22180809.1724                   22180808.5314
 -12768146.07847  -9938530.59845  22527645.7584                   22527648.3324
 -28834650.17648 -22456725.07846  20882708.0394                   20882708.0594
 -20946745.27748 -16310368.75846  21925883.3134                   21925887.1134
  -7104007.78146  -5524876.56644  23248312.7034                   23248316.0664
 -14047194.22347 -10935277.86345  22402990.9924                   22402993.2344
   -972240.14846   -754699.03143  24796680.7194                   24796683.5704
 11  9 23  0 36 30.0000000  0  9G29G12G02G30G05G25G15G26G21
 -20500406.77348 -15964732.91046  21356598.9694                   21356599.5044
 -20965560.05147 -16325436.94945  22693925.2034                   22693927.4924
 -28231674.10948 -21973499.05945  22185608.5784                   22185607.2034
 -12778146.89847  -9946323.43445  22525742.4774                   22525745.2074
 -28800135.08248 -22429830.18046  20889276.1884                   20889276.2074
 -20921098.35948 -16290384.19146  21930764.1174                   21930767.5044
  -7222598.01647  -5617284.30945  23225745.4304                   23225749.3204
 -14150348.05547 -11015657.33245  22383362.3754                   22383363.6724
  -1052986.54746   -817618.08643  24781314.5944                   24781317.8674
 11  9 23  0 37  0.0000000  0  9G29G12G02G30G05G25G15G26G21
 -20590986.71548 -16035314.61346  21339362.0164                   21339363.0634
 -20897937.25847 -16272743.89845  22706793.9144                   22706795.8134
 -28206339.09047 -21953757.46945  22190429.0164                   22190428.0514
 -12787578.99247  -9953673.11345  22523948.1564                   22523950.0044
 -28765233.90648 -22402634.45746  20895917.8134                   20895918.0234
 -20894986.71148 -16270037.48046  21935732.9924                   21935736.5594
  -7341091.53147  -5709616.66045  23203196.4614                   23203200.4454
 -14253145.87147 -11095759.41445  22363799.7584                   22363802.1884
  -1133725.29746   -880531.21143  24765950.1644                   24765954.1804
 11  9 23  0 37 30.0000000  0  9G29G12G02G30G05G25G15G26G21
 -20681295.52048 -16105685.02746  21322177.0944                   21322177.8054
 -20830114.84047 -16219895.30545  22719700.2424                   22719702.7304
 -28180888.22347 -21933925.63345  22195272.2424                   22195271.4804
 -12796445.47747  -9960582.05545  22522260.8674                   22522263.3014
 -28729950.35248 -22375140.77046  20902631.7894                   20902631.9734
 -20868414.55548 -16249331.96146  21940789.8754                   21940793.6414
  -7459486.95347  -5801872.59845  23180666.1484                   23180670.3014
 -14355586.21947 -11175582.92245  22344306.2974                   22344308.7464
  -1214458.89846   -943440.32443  24750587.1724                   24750591.3484
 11  9 23  0 38  0.0000000  0  9G29G12G02G30G05G25G15G26G21
 -20771330.79348 -16175842.30946  21305043.6724                   21305044.7584
 -20762095.80947 -16166893.55145  22732642.7584                   22732646.0904
 -28155321.74647 -21914003.68045  22200137.4454                   22200136.7194
 -12804747.76247  -9967051.35945  22520680.6644                   22520682.5704
 -28694287.83648 -22347351.78146  20909418.2034                   20909418.2544
 -20841384.39848 -16228269.51246  21945933.5004                   21945937.4144
  -7577781.31647  -5894049.76645  23158155.6094                   23158159.5904
 -14457665.35547 -11255124.94945  22324881.1334                   22324882.2544
  -1295187.80946  -1006345.78143  24735224.5634                   24735228.3914
 11  9 23  0 38 30.0000000  0  9G29G12G02G30G05G25G15G26G21
 -20861092.72748 -16245786.61746  21287962.4384                   21287963.3284
 -20693885.60947 -16113742.75845  22745623.5864                   22745626.1334
 -28129641.00847 -21893992.71145  22205024.1414                   22205023.2774
 -12812489.14147  -9973083.59045  22519207.1094                   22519210.2114
 -28658250.27748 -22319270.55946  20916275.9774                   20916275.9924
 -20813900.54748 -16206853.55946  21951163.3054                   21951166.8284
  -7695973.35547  -5986147.18745  23135664.3204                   23135668.0234
 -14559381.50847 -11334384.16445  22305524.5554                   22305526.5394
  -1375914.62946  -1069249.52743  24719861.9384                   24719866.7504
 11  9 23  0 39  0.0000000  0  9G29G12G02G30G05G25G15G26G21
 -20950577.31248 -16315514.80546  21270934.1254                   21270934.8914
 -20625485.82447 -16060444.27345  22758639.2114                   22758642.2464
 -28103844.57447 -21873891.58645  22209933.0554                   22209932.2154
 -12819669.69547  -9978678.81645  22517841.0004                   22517843.4104
 -28621838.92648 -22290898.07046  20923204.5554                   20923204.8014
 -20785964.23848 -16185085.04746  21956479.2974                   21956483.2034
  -7814058.73847  -6078161.51645  23113193.2504                   23113196.9104
 -14660729.90247 -11413356.80945  22286238.6954                   22286240.9304
  -1456638.54746  -1132151.12143  24704500.9064                   24704504.6804
 11  9 23  0 39 30.0000000  0  9G29G12G02G30G05G25G15G26G21
 -21039781.68748 -16385024.63746  21253958.9384                   21253959.7114
 -20556898.69946 -16006999.79745  22771691.2274                   22771693.7974
 -28077931.59047 -21853699.63345  22214864.3674                   22214864.0664
 -12826290.12547  -9983837.57045  22516580.9224                   22516583.6214
 -28585055.06247 -22262235.29746  20930204.8524                   20930204.4384
 -20757577.22748 -16162965.32846  21961880.7504                   21961884.8714
  -7932033.70346  -6170089.84045  23090743.8134                   23090746.5314
 -14761706.25047 -11492039.53145  22267023.5004                   22267025.6134
  -1537358.86745  -1195049.89543  24689141.2344                   24689143.8984
 11  9 23  0 40  0.0000000  0  9G29G12G02G30G05G25G15G26G21
 -21128703.87147 -16454314.60246  21237037.7034                   21237038.2074
 -20488127.97747 -15953412.25845  22784778.1564                   22784781.1804
 -28051902.30547 -21833417.05545  22219817.2034                   22219817.4574
 -12832352.37547  -9988561.37945  22515427.8134                   22515429.2974
 -28547901.95347 -22233284.80946  20937274.6484                   20937274.3444
 -20728742.55547 -16140496.77346  21967368.3524                   21967372.1024
  -8049895.83247  -6261930.19145  23068314.3134                   23068318.0004
 -14862307.52047 -11570429.97745  22247879.3914                   22247881.5434
  -1618076.96145  -1257946.90643  24673780.5474                   24673783.3134
 11  9 23  0 40 30.0000000  0  9G29G12G02G30G05G25G15G26G21
 -21217341.05547 -16523382.47746  21220170.5474                   21220170.9534
 -20419176.25047 -15899683.68445  22797899.0234                   22797901.6254
 -28025756.13747 -21813043.41445  22224792.5944                   22224792.3714
 -12837857.31247  -9992850.95345  22514379.8754                   22514382.2544
 -28510381.23448 -22204047.86746  20944414.2194                   20944414.1684
 -20699462.11348 -16117680.87946  21972940.5234                   21972944.3954
  -8167641.54747  -6353679.84444  23045908.3284                   23045910.8054
 -14962529.22747 -11648524.66845  22228807.6724                   22228809.8444
  -1698792.66846  -1320842.04342  24658420.2194                   24658423.0944
 11  9 23  0 41  0.0000000  0  9G29G12G02G30G05G25G15G26G21
 -21305692.29347 -16592227.54346  21203357.9144                   21203358.4804
 -20350047.94547 -15845817.49245  22811054.0474                   22811056.0434
 -27999493.60547 -21792579.09045  22229790.6094                   22229789.4144
 -12842807.96147  -9996708.59844  22513438.0314                   22513440.1954
 -28472496.73447 -22174527.46146  20951623.7894                   20951623.0164
 -20669739.89147 -16094520.73446  21978596.1804                   21978600.4964
  -8285269.03547  -6445337.41444  23023524.1334                   23023526.4574
 -15062369.53547 -11726322.19145  22209808.9534                   22209810.7894
  -1779507.68745  -1383736.68043  24643060.6884                   24643063.8484
 11  9 23  0 41 30.0000000  0  9G29G12G02G30G05G25G15G26G21
 -21393753.29348 -16660846.46546  21186600.2894                   21186600.9884
 -20280744.31647 -15791814.71545  22824242.1804                   22824244.5274
 -27973112.91047 -21772022.67645  22234810.6804                   22234809.3094
 -12847203.87947 -10000133.95745  22512601.3754                   22512603.7704
 -28434249.06648 -22144724.06646  20958901.8754                   20958901.7584
 -20639576.61747 -16071016.90646  21984336.5314                   21984339.7544
  -8402773.44547  -6536899.05944  23001163.2584                   23001166.1564
 -15161822.80148 -11803818.12945  22190883.7274                   22190885.2424
  -1860220.67245  -1446629.73843  24627700.7114                   24627704.5664
 11  9 23  0 42  0.0000000  0  9G29G12G02G30G05G25G15G26G21
 -21481521.25447 -16729237.02746  21169898.4924                   21169898.9734
 -20211267.83247 -15737677.21545  22837462.8984                   22837465.6484
 -27946613.35547 -21751373.66445  22239853.8364                   22239852.4844
 -12851046.02747 -10003127.83645  22511870.0474                   22511872.2934
 -28395640.05148 -22114639.09846  20966248.8054                   20966248.6454
 -20608974.18748 -16047170.89546  21990160.0084                   21990164.0664
  -8520151.16847  -6628361.99645  22978827.4614                   22978829.8014
 -15260885.10547 -11881009.39845  22172031.9694                   22172034.2734
  -1940931.61746  -1509521.26643  24612341.4844                   24612345.3984
 11  9 23  0 42 30.0000000  0 10G29G12G02G30G18G05G25G15G26G21
 -21568999.40247 -16797401.75846  21153252.1254                   21153252.4494
 -20141627.39547 -15683411.96545  22850715.2504                   22850717.5744
 -27919999.88747 -21730635.89145  22244917.8134                   22244916.7814
 -12854341.66847 -10005695.85545  22511243.3204                   22511245.2304
   1410296.46156   1109329.56653  24574569.9774                   24574576.4734
 -28356677.91447 -22084278.96946  20973663.1174                   20973663.1294
 -20577941.00447 -16022989.20346  21996065.0394                   21996069.2814
  -8637404.81647  -6719728.25044  22956514.0164                   22956517.1254
 -15359558.26247 -11957897.44145  22153255.5234                   22153256.8444
  -2021646.66846  -1572415.96143  24596982.2974                   24596985.9184
 11  9 23  0 43  0.0000000  0 10G29G12G02G30G18G05G25G15G26G21
 -21656189.42247 -16865341.98446  21136660.3364                   21136660.8984
 -20071829.84047 -15629024.30945  22863997.0314                   22863999.1644
 -27893276.35947 -21709812.35245  22250002.9924                   22250002.1094
 -12857096.17647 -10007842.20344  22510718.7974                   22510720.9654
   1298029.55946   1021849.27043  24553206.6644                   24553213.0664
 -28317368.64148 -22053648.35246  20981143.3524                   20981143.6884
 -20546483.27047 -15998476.70746  22002051.5004                   22002054.9344
  -8754534.75047  -6810998.11345  22934225.1724                   22934227.7544
 -15457842.63747 -12034482.54745  22134552.4614                   22134553.5274
  -2102369.91446  -1635317.12543  24581621.5704                   24581623.3874
 11  9 23  0 43 30.0000000  0 10G29G12G02G30G18G05G25G15G26G21
 -21743092.73448 -16933058.79346  21120123.2974                   21120123.5354
 -20001882.26247 -15574519.74245  22877308.0314                   22877310.1914
 -27866446.52747 -21688905.99245  22255108.1804                   22255107.8404
 -12859315.26247 -10009571.35245  22510296.6254                   22510298.9344
   1185921.40646    934492.69943  24531872.4694                   24531879.5864
 -28277718.94547 -22022752.47346  20988688.5164                   20988688.4844
 -20514607.75447 -15973638.67246  22008116.7974                   22008121.1054
  -8871542.31646  -6902172.60945  22911959.2114                   22911961.3524
 -15555738.94547 -12110765.25845  22115922.7734                   22115924.9144
  -2183105.99246  -1698228.27043  24566257.4304                   24566260.4264
 11  9 23  0 44  0.0000000  0 10G29G12G02G30G18G05G25G15G26G21
 -21829703.43447 -17000547.59446  21103641.3134                   21103642.1684
 -19931783.76647 -15519897.57444  22890646.6564                   22890649.6524
 -27839506.37547 -21667913.66045  22260235.1884                   22260234.2814
 -12860996.78947 -10010881.62145  22509976.5944                   22509978.9184
   1073977.59446    847264.23443  24510570.0394                   24510576.3954
 -28237727.43748 -21991590.23446  20996298.7734                   20996298.3794
 -20482313.27347 -15948474.16446  22014262.4224                   22014266.8674
  -8988420.91047  -6993246.61345  22889718.0704                   22889719.9614
 -15653239.68047 -12186739.73445  22097368.8594                   22097370.8404
  -2263851.64546  -1761146.87143  24550893.6254                   24550896.0864
 11  9 23  0 44 30.0000000  0 10G29G12G02G30G18G05G25G15G26G21
 -21916016.69547 -17067804.61746  21087216.9614                   21087217.0204
 -19861534.68447 -15465158.08645  22904015.1724                   22904017.7304
 -27812453.28547 -21646833.32045  22265383.2504                   22265382.3954
 -12862139.87147 -10011772.31245  22509759.2504                   22509761.1414
    962201.58646    760166.47343  24489299.2664                   24489305.0554
 -28197394.01648 -21960161.57046  21003973.6254                   21003973.9064
 -20449600.01247 -15922983.33246  22020487.6334                   22020491.7464
  -9105164.68447  -7084215.57045  22867502.2504                   22867504.7504
 -15750338.68447 -12262401.19945  22078892.2584                   22078893.8834
  -2344604.87146  -1824071.38743  24535526.6094                   24535528.8674
 11  9 23  0 45  0.0000000  0 10G29G12G02G30G18G05G25G15G26G21
 -22002027.69548 -17134826.11346  21070849.6024                   21070849.4654
 -19791136.46947 -15410302.39545  22917410.8674                   22917413.3404
 -27785284.21548 -21625662.62145  22270553.7194                   22270552.6884
 -12862743.78947 -10012242.87145  22509644.2344                   22509646.9024
    850597.65646    673202.86743  24468060.8674                   24468067.2464
 -28156718.51648 -21928466.35546  21011714.0474                   21011713.9144
 -20416468.17247 -15897166.33646  22026792.5004                   22026796.2194
  -9221768.23047  -7175075.28945  22845313.5474                   22845315.2974
 -15847030.18047 -12337745.08245  22060491.6954                   22060493.3674
  -2425363.77746  -1887000.29743  24520157.8594                   24520161.0904
 11  9 23  0 45 30.0000000  0 10G29G12G02G30G18G05G25G15G26G21
 -22087733.19147 -17201609.55946  21054539.7894                   21054540.3094
 -19720591.17247 -15355332.07845  22930835.3054                   22930838.0634
 -27757998.13347 -21604400.73045  22275745.9064                   22275744.6914
 -12862809.31647 -10012293.91444  22509631.8444                   22509634.5864
    739167.23346    586374.39543  24446856.6414                   24446861.9104
 -28115702.74248 -21896506.01246  21019519.0864                   21019518.9964
 -20382919.54747 -15871024.57046  22033176.7194                   22033180.0744
  -9338227.25046  -7265822.36345  22823151.6174                   22823154.2704
 -15943309.82447 -12412768.07445  22042170.5084                   22042171.6804
  -2506127.31246  -1949932.85943  24504788.9534                   24504791.0124
 11  9 23  0 46  0.0000000  0 10G29G12G02G30G18G05G25G15G26G21
 -22173128.65247 -17268151.40646  21038289.5634                   21038290.2464
 -19649899.48847 -15300247.72745  22944288.2194                   22944290.6764
 -27730592.44547 -21583045.64145  22280960.3984                   22280959.5904
 -12862336.02047 -10011925.10545  22509721.9774                   22509724.2154
    627914.09046    499684.00843  24425685.3134                   24425692.7894
 -28074346.74248 -21864280.53946  21027389.1254                   21027389.0944
 -20348954.50847 -15844558.32846  22039639.4694                   22039643.9224
  -9454536.59047  -7356452.81645  22801018.4454                   22801021.0314
 -16039171.75047 -12487465.58245  22023928.5634                   22023930.1094
  -2586893.99646  -2012867.81643  24489419.6724                   24489421.2384
 11  9 23  0 46 30.0000000  0 10G29G12G02G30G18G05G25G15G26G21
 -22258212.06248 -17334450.09446  21022098.7664                   21022099.1024
 -19579064.88347 -15245051.99245  22957767.5394                   22957769.7704
 -27703067.27347 -21561597.43045  22286198.8364                   22286197.4734
 -12861326.21947 -10011138.21945  22509913.6644                   22509915.5474
    516838.60946    413132.04742  24404547.9844                   24404554.1844
 -28032653.69548 -21831792.44146  21035323.0784                   21035323.0354
 -20314576.41447 -15817770.21546  22046181.6414                   22046186.0864
  -9570693.93047  -7446964.85245  22778914.3284                   22778915.4844
 -16134613.20747 -12561835.43745  22005766.6644                   22005767.6454
  -2667665.09446  -2075806.26643  24474049.5394                   24474051.3404
 11  9 23  0 47  0.0000000  0 10G29G12G02G30G18G05G25G15G26G21
 -22342982.27747 -17400504.73846  21005967.3134                   21005967.5634
 -19508091.48847 -15189748.11745  22971273.3134                   22971275.8834
 -27675423.54747 -21540056.82445  22291459.0314                   22291458.2304
 -12859782.60947 -10009935.39145  22510207.8364                   22510210.1954
    405941.80146    326719.44542  24383444.3444                   24383450.4264
 -27990626.81648 -21799044.21546  21043319.8674                   21043319.9804
 -20279788.83647 -15790663.03546  22052801.5784                   22052805.7464
  -9686697.00847  -7537356.68045  22756839.5474                   22756842.0904
 -16229631.47348 -12635875.51245  21987684.8914                   21987686.6484
  -2748441.43746  -2138748.74243  24458677.6954                   24458680.7384
 11  9 23  0 47 30.0000000  0 10G29G12G02G30G18G05G25G15G26G21
 -22427436.36348 -17466313.04346  20989896.5944                   20989897.1024
 -19436981.88747 -15134338.06645  22984804.9534                   22984807.3404
 -27647660.36747 -21518423.16845  22296742.0554                   22296740.7934
 -12857706.46947 -10008317.59045  22510603.0084                   22510605.1724
    295224.69145    240446.83642  24362375.5164                   24362381.2074
 -27948267.97348 -21766037.31246  21051380.5164                   21051380.4574
 -20244594.04347 -15763238.55946  22059498.9384                   22059502.6604
  -9802542.04746  -7627625.35945  22734794.6484                   22734796.6414
 -16324222.69947 -12709582.87545  21969684.7504                   21969686.0474
  -2829223.39146  -2201695.55543  24443305.7194                   24443308.8204
 11  9 23  0 48  0.0000000  0 10G29G12G02G30G18G05G25G15G26G21
 -22511571.01248 -17531872.43046  20973886.0314                   20973886.4184
 -19365737.84047 -15078823.28145  22998363.1094                   22998365.3984
 -27619776.44947 -21496695.41045  22302048.3054                   22302047.5944
 -12855098.52047 -10006285.39845  22511099.1724                   22511101.2934
    184689.97345    154316.32042  24341340.9774                   24341345.9304
 -27905578.64148 -21732772.89546  21059503.9614                   21059504.4534
 -20208993.60947 -15735497.98046  22066273.9774                   22066277.6764
  -9918224.93447  -7717767.68745  22712780.7584                   22712783.8674
 -16418382.13347 -12782953.77345  21951766.9224                   21951768.4454
  -2910010.38746  -2264646.28943  24427931.7894                   24427935.0904
 11  9 23  0 48 30.0000000  0 10G29G12G02G30G18G05G25G15G26G21
 -22595385.69148 -17597182.49246  20957936.2734                   20957936.7464
 -19294364.79747 -15023208.00845  23011943.9614                   23011947.0084
 -27591773.39547 -21474874.84445  22307377.4064                   22307376.3054
 -12851962.62147 -10003841.83645  22511695.6954                   22511697.8914
     74336.84845     68327.20742  24320341.3134                   24320346.5474
 -27862563.37148 -21699254.50046  21067690.1804                   21067689.9454
 -20172992.23047 -15707444.97745  22073124.2974                   22073127.8324
 -10033744.80546  -7807782.99645  22690798.2894                   22690799.6884
 -16512108.69547 -12855987.36345  21933931.7974                   21933933.0434
  -2990804.38746  -2327602.45343  24412557.1254                   24412560.7814
 11  9 23  0 49  0.0000000  0 10G29G12G02G30G18G05G25G15G26G21
 -21103453.33248 -16434637.72346  21241842.0234                   21241841.9264
 -17647445.88747 -13739894.62944  23325341.9144                   23325345.3754
 -25988229.83647 -20225360.35545  22612521.3914                   22612520.6024
 -11272878.75847  -8773386.86745  22812185.4614                   22812187.5784
   1539592.25445   1210085.14142  24599170.1724                   24599176.2034
 -26243804.19148 -20437883.71546  21375729.3524                   21375729.5634
 -18561172.01647 -14451481.20346  22379843.6414                   22379847.8674
  -8573672.75047  -6670064.32045  22968639.8054                   22968642.4144
 -15029973.33247 -11701076.59845  22215971.9144                   22215973.6214
  -1496181.55546  -1162961.05944  24696973.9614                   24696976.4924
 11  9 23  0 49 30.0000000  0 10G29G12G02G30G18G05G25G15G26G21
 -21186618.02348 -16499441.31246  21226016.0554                   21226016.5044
 -17575820.45347 -13684082.67245  23338972.8914                   23338975.4304
 -25959984.25847 -20203350.80145  22617895.8914                   22617895.4344
 -11268689.34047  -8770122.37544  22812982.3524                   22812984.8364
   1429609.10946   1124384.40243  24578240.2034                   24578246.7974
 -26200140.93048 -20403860.39146  21384038.2584                   21384038.3914
 -18524373.97747 -14422807.42645  22386845.9064                   22386849.5594
  -8688853.64847  -6759815.52045  22946721.9694                   22946724.4694
 -15122819.87547 -11773424.46945  22198304.0634                   22198305.2774
  -1576988.29746  -1225927.12143  24681596.8674                   24681600.2934
 11  9 23  0 50  0.0000000  0 10G29G12G02G30G18G05G25G15G26G21
 -21269453.23047 -16563988.14146  21210252.7424                   21210253.1524
 -17504072.11347 -13628174.90244  23352625.7424                   23352628.8674
 -25931615.88347 -20181245.56245  22623294.6884                   22623293.9774
 -11263975.01647  -8766448.87945  22813879.7194                   22813881.9654
   1319813.89546   1038830.07043  24557346.5164                   24557352.7304
 -26156156.00048 -20369586.42246  21392408.5864                   21392408.1564
 -18487180.68047 -14393825.66446  22393924.2194                   22393927.4844
  -8803859.36347  -6849430.19545  22924837.3134                   22924839.2624
 -15215220.42647 -11845424.80545  22180720.5864                   22180721.8594
  -1657800.85946  -1288897.75844  24666218.7504                   24666221.4734
 11  9 23  0 50 30.0000000  0 10G29G12G02G30G18G05G25G15G26G21
 -21351958.16047 -16628277.62146  21194552.7194                   21194552.8284
 -17432206.17647 -13572175.51244  23366301.4924                   23366303.8054
 -25903126.09447 -20159045.69545  22628715.5784                   22628715.0314
 -11258739.30147  -8762369.09845  22814876.3674                   22814878.4654
   1210206.18046    953421.84443  24536489.0004                   24536494.6294
 -26111853.98848 -20335065.35946  21400838.6804                   21400838.6884
 -18449596.59047 -14364539.37946  22401076.1174                   22401080.0784
  -8918688.41047  -6938907.22345  22902985.7194                   22902987.8364
 -15307173.12147 -11917076.15245  22163222.3594                   22163223.3834
  -1738621.16846  -1351874.40244  24650839.4454                   24650841.4454
 11  9 23  0 51  0.0000000  0 10G29G12G02G30G18G05G25G15G26G21
 -21434131.21148 -16692308.50046  21178915.6564                   21178916.1484
 -17360226.02047 -13516087.14544  23379998.9534                   23380001.3164
 -25874514.99247 -20136751.31245  22634160.6414                   22634159.0234
 -11252984.84447  -8757885.09845  22815970.7194                   22815973.9024
   1100786.44146    868160.11744  24515667.9614                   24515672.4454
 -26067237.80148 -20300299.48846  21409328.6174                   21409328.9574
 -18411625.18747 -14334951.29346  22408301.6804                   22408305.4924
  -9033338.39147  -7028244.71545  22881168.1254                   22881170.8444
 -15398675.32447 -11988376.49245  22145810.1334                   22145811.8284
  -1819450.46146  -1414858.05544  24635458.4614                   24635460.5664
 11  9 23  0 51 30.0000000  0 10G29G12G02G30G18G05G25G15G26G21
 -21515970.06648 -16756078.94946  21163342.1254                   21163342.8874
 -17288134.47747 -13459911.94945  23393717.3674                   23393720.3754
 -25845782.66447 -20114362.46945  22639627.6334                   22639626.5864
 -11246713.56247  -8752998.41045  22817164.8054                   22817167.2734
    991556.07046    783045.91443  24494880.5314                   24494885.2664
 -26022309.96948 -20265290.77346  21417878.6564                   21417878.1254
 -18373269.27347 -14305063.59846  22415600.6094                   22415604.3204
  -9147806.66047  -7117440.62945  22859385.8524                   22859387.6454
 -15489723.60247 -12059323.11345  22128484.2504                   22128486.0704
  -1900289.33646  -1477849.15644  24620074.5004                   24620076.9734
 11  9 23  0 52  0.0000000  0 10G29G12G02G30G18G05G25G15G26G21
 -21597469.28948 -16819584.74646  21147833.5004                   21147833.7624
 -17215932.05547 -13403650.37544  23407457.3984                   23407459.5124
 -25816925.63747 -20091876.47345  22645119.0474                   22645118.5274
 -11239924.53946  -8747708.28545  22818456.7274                   22818458.9454
    882519.16046    698082.46143  24474131.7974                   24474136.8634
 -25977069.73448 -20230038.62146  21426487.3054                   21426487.0864
 -18334528.63747 -14274876.10246  22422972.6884                   22422977.2624
  -9262086.42247  -7206489.64145  22837638.7344                   22837640.4144
 -15580311.43747 -12129910.93045  22111246.2584                   22111247.2464
  -1981134.94146  -1540845.53544  24604690.4774                   24604692.9384
 11  9 23  0 52 30.0000000  0 10G29G12G02G30G18G05G25G15G26G21
 -21678629.08648 -16882826.07846  21132388.7344                   21132389.3714
 -17143623.78147 -13347306.33244  23421217.2424                   23421219.4884
 -25787946.10947 -20069295.02745  22650633.8754                   22650633.1844
 -11232622.06246  -8742018.06244  22819846.0474                   22819847.2544
    773674.10546    613268.53144  24453418.7274                   24453423.4884
 -25931522.02348 -20194546.88746  21435154.6954                   21435154.6174
 -18295408.47747 -14244392.87146  22430417.0164                   22430421.0944
  -9376177.14547  -7295391.33245  22815927.5704                   22815929.6644
 -15670437.93747 -12200139.27045  22094095.3834                   22094095.7734
  -2061990.19546  -1603849.40644  24589303.4694                   24589306.2774
 11  9 23  0 53  0.0000000  0 10G29G12G02G30G18G05G25G15G26G21
 -21759446.85248 -16945800.87946  21117009.8754                   21117010.7504
 -17071212.90647 -13290882.30144  23434996.7274                   23434999.0434
 -25758843.16847 -20046617.40645  22656172.1334                   22656170.9774
 -11224807.87547  -8735929.11744  22821333.3444                   22821335.0594
    665022.64146    528605.38343  24432742.5164                   24432748.0004
 -25885669.29748 -20158817.48046  21443880.4144                   21443880.4384
 -18255911.39547 -14213615.93745  22437932.8284                   22437936.7274
  -9490075.53947  -7384143.16445  22794253.6414                   22794255.1914
 -15760099.53547 -12270005.35945  22077033.3984                   22077034.5044
  -2142855.10946  -1666860.81243  24573914.1804                   24573918.1134
 11  9 23  0 53 30.0000000  0 10G29G12G02G30G18G05G25G15G26G21
 -21839921.27348 -17008508.15246  21101696.2344                   21101696.8794
 -16998703.14847 -13234381.22745  23448794.9844                   23448797.7894
 -25729617.79347 -20023844.37545  22661733.5084                   22661732.6524
 -11216485.37546  -8729444.08244  22822916.6804                   22822918.7464
    556564.66046    444093.02043  24412104.1334                   24412108.6134
 -25839514.75848 -20122852.88746  21452663.0004                   21452662.9694
 -18216041.38347 -14182548.39845  22445519.7344                   22445523.8554
  -9603779.38347  -7472743.41045  22772616.7034                   22772618.8204
 -15849293.88347 -12339507.34445  22060060.2734                   22060061.7194
  -2223731.24646  -1729880.98043  24558524.7274                   24558526.7704
 11  9 23  0 54  0.0000000  0 10G29G12G02G30G18G05G25G15G26G21
 -21920048.09848 -17070944.56646  21086448.2974                   21086449.1174
 -16926095.62147 -13177803.97745  23462610.7194                   23462613.9224
 -25700267.48047 -20000974.00445  22667318.5554                   22667317.2974
 -11207654.41446  -8722562.82444  22824597.1094                   22824598.8404
    448303.34446    359733.89543  24391501.8674                   24391505.7704
 -25793059.00048 -20086653.57446  21461503.1724                   21461503.4064
 -18175799.22747 -14151190.89145  22453177.8914                   22453181.7194
  -9717284.09047  -7561188.45745  22751017.5084                   22751019.6764
 -15938015.73847 -12408641.16445  22043176.2974                   22043178.1254
  -2304616.98446  -1792908.63743  24543132.5554                   24543134.8754
 11  9 23  0 54 30.0000000  0 10G29G12G02G30G18G05G25G15G26G21
 -21999827.41848 -17133110.19546  21071267.1254                   21071267.0784
 -16853396.00847 -13121154.98844  23476445.3524                   23476448.1054
 -25670794.43047 -19978007.97745  22672927.2344                   22672926.2504
 -11198319.64847  -8715289.01245  22826373.1724                   22826375.2504
    340237.27746    275526.93043  24370937.4924                   24370941.8134
 -25746306.46548 -20050223.01246  21470400.2034                   21470399.6604
 -18135190.30947 -14119547.60545  22460905.6954                   22460909.1684
  -9830588.73047  -7649477.62945  22729456.5634                   22729457.3954
 -16026264.14847 -12477406.07445  22026383.0234                   22026384.7384
  -2385515.11346  -1855945.98443  24527738.2114                   24527740.6884
 11  9 23  0 55  0.0000000  0 10G29G12G02G30G18G05G25G15G26G21
 -22079255.18048 -17195001.89146  21056152.2814                   21056151.9104
 -16780605.22347 -13064434.93744  23490297.1024                   23490299.2894
 -25641196.53547 -19954944.68045  22678559.2274                   22678558.9414
 -11188481.18446  -8707622.71145  22828245.8204                   22828248.8634
    232369.92245    191474.79343  24350410.4454                   24350414.4924
 -25699258.48048 -20013562.23446  21479353.2974                   21479353.2504
 -18094215.57047 -14087619.25445  22468702.7114                   22468706.2424
  -9943688.12947  -7737606.87145  22707933.8054                   22707935.5164
 -16114034.07047 -12545798.14145  22009681.1804                   22009682.4694
  -2466424.22346  -1918991.87143  24512341.6024                   24512343.6294
 11  9 23  0 55 30.0000000  0 10G29G12G02G30G18G05G25G15G26G21
 -22158331.55148 -17256619.77346  21041104.6254                   21041104.4884
 -16707729.31247 -13007648.55545  23504165.5784                   23504167.7114
 -25611476.06247 -19931785.87545  22684215.2344                   22684214.4844
 -11178143.94946  -8699567.74645  22830212.9064                   22830216.3634
    124699.69946    107576.18443  24329921.7584                   24329925.5354
 -25651920.01648 -19976675.10946  21488361.2814                   21488361.4884
 -18052880.69547 -14055410.26646  22476568.9614                   22476572.4264
 -10056582.02747  -7825575.97345  22686450.1484                   22686451.3554
 -16201324.93447 -12613816.89545  21993070.3134                   21993071.2114
  -2547347.28146  -1982048.66043  24496942.6254                   24496944.5664
 11  9 23  0 56  0.0000000  0 10G29G12G02G30G18G05G25G15G26G21
 -22237051.96548 -17317960.29746  21026124.8984                   21026124.9104
 -16634768.31247 -12950795.89145  23518049.4844                   23518052.1564
 -25581630.16047 -19908529.33245  22689894.3674                   22689893.9414
 -11167307.51247  -8691123.80945  22832274.9694                   22832277.6684
     17229.48845     23833.44142  24309470.0864                   24309473.3094
 -25604290.79748 -19939561.43446  21497424.9064                   21497425.1024
 -18011185.96547 -14022920.87545  22484502.6644                   22484507.3754
 -10169264.82847  -7913380.60245  22665008.1094                   22665009.4694
 -16288130.83647 -12681457.75445  21976552.0634                   21976553.1684
  -2628282.17246  -2045114.68043  24481540.4694                   24481542.3134
 11  9 23  0 56 30.0000000  0 10G29G12G02G30G18G05G25G15G26G21
 -22315413.28148 -17379021.00446  21011212.8524                   21011212.9144
 -16561725.03946 -12893879.12144  23531948.7034                   23531950.9104
 -25551657.78147 -19885174.22345  22695598.3674                   22695597.5394
 -11155973.39547  -8682292.06245  22834432.1954                   22834434.3404
    -90038.41046    -59751.67643  24289057.7424                   24289061.3554
 -25556372.60548 -19902222.57046  21506543.3444                   21506543.5704
 -17969133.72747 -13990152.91445  22492504.8674                   22492509.4384
 -10281732.64147  -8001017.68445  22643605.9614                   22643606.5234
 -16374447.83247 -12748717.66845  21960125.9144                   21960126.8404
  -2709228.79346  -2108189.79743  24466136.8984                   24466139.2074
 11  9 23  0 57  0.0000000  0 10G29G12G02G30G18G05G25G15G26G21
 -22393412.93448 -17439799.89846  20996369.7974                   20996369.8754
 -16488601.43447 -12836899.75844  23545864.2894                   23545866.9024
 -25521558.16447 -19861719.96945  22701325.8984                   22701325.4654
 -11144143.63347  -8673074.09845  22836683.3594                   22836684.6724
   -197102.73446   -143178.17243  24268683.6024                   24268688.6134
 -25508167.39848 -19864660.05546  21515716.2584                   21515716.5164
 -17926726.60247 -13957108.41045  22500575.0634                   22500578.8014
 -10393982.20747  -8088484.72745  22622244.9144                   22622247.1644
 -16460272.50848 -12815593.94545  21943794.3594                   21943794.9064
  -2790186.68447  -2171273.76643  24450730.8754                   24450732.9414
 11  9 23  0 57 30.0000000  0 10G29G12G02G30G18G05G25G15G26G21
 -22471049.67248 -17500296.00846  20981596.2424                   20981596.2664
 -16415402.73447 -12779861.84844  23559793.6884                   23559795.9414
 -25491332.32047 -19838167.35545  22707077.5554                   22707076.8914
 -11131821.44547  -8663472.41445  22839027.4924                   22839029.8714
   -303963.37546   -226446.00842  24248349.4064                   24248352.7464
 -25459679.02348 -19826876.89546  21524943.6094                   21524943.2194
 -17883968.58647 -13923790.48445  22508711.1954                   22508715.3594
 -10506011.67647  -8175780.24645  22600926.5704                   22600927.6524
 -16545602.68447 -12882084.88745  21927556.4144                   21927557.1884
  -2871157.61747  -2234367.88744  24435323.5084                   24435324.5984
 11  9 23  0 58  0.0000000  0 10G29G12G02G30G18G05G25G15G26G21
 -22548321.78148 -17560507.98846  20966891.5004                   20966891.7424
 -16342131.92646 -12722767.77344  23573736.3834                   23573738.0004
 -25460980.29747 -19814516.43445  22712853.7814                   22712852.8954
 -11119009.51647  -8653489.11745  22841466.2504                   22841467.6954
   -410620.00846   -309554.78142  24228053.1954                   24228056.7274
 -25410910.36748 -19788875.32446  21534223.5784                   21534223.7854
 -17840863.18747 -13890201.87545  22516914.1094                   22516917.9734
 -10617818.05547  -8262901.94145  22579650.5784                   22579651.5904
 -16630435.70747 -12948188.44145  21911412.9534                   21911414.6484
  -2952142.35947  -2297472.78143  24419911.9064                   24419913.3054
 11  9 23  0 58 30.0000000  0 10G29G12G02G30G18G05G25G15G26G21
 -22625227.48448 -17620434.47346  20952257.0784                   20952256.9964
 -16268792.19546 -12665619.97744  23587692.1094                   23587694.3794
 -25430502.13347 -19790767.20745  22718653.3444                   22718652.1954
 -11105710.55947  -8643126.32045  22843997.0084                   22843999.0354
   -517071.73446   -392503.91443  24207795.0554                   24207799.0004
 -25361864.14548 -19750657.48046  21543557.0394                   21543556.7734
 -17797413.62147 -13856345.09845  22525182.3204                   22525186.3164
 -10729398.88347  -8349847.88345  22558417.5004                   22558418.2544
 -16714768.84447 -13013902.47345  21895365.0784                   21895365.9534
  -3033141.80946  -2360589.16843  24404497.8284                   24404499.6134
 11  9 23  0 59  0.0000000  0 10G29G12G02G30G18G05G25G15G26G21
 -22701762.78948 -17680072.31646  20937692.7894                   20937693.0394
 -16195384.78146 -12608419.46944  23601661.6174                   23601663.4144
 -25399896.07047 -19766918.30545  22724477.5554                   22724476.4344
 -11091925.07847  -8632384.42645  22846620.3674                   22846622.3714
   -623315.53546   -475291.06243  24187577.9064                   24187581.0634
 -25312540.95748 -19712223.81646  21552942.5864                   21552942.6374
 -17753621.23447 -13822221.18045  22533515.5164                   22533520.0634
 -10840749.33247  -8436614.30945  22537227.6334                   22537228.5704
 -16798596.96547 -13079222.99645  21879412.8754                   21879414.0354
  -3114154.71146  -2423716.01643  24389081.5784                   24389083.5004
 11  9 23  0 59 30.0000000  0 10G29G12G02G30G18G05G25G15G26G21
 -22777925.68048 -17739419.97747  20923199.4924                   20923199.5944
 -16121913.45346 -12551169.10944  23615642.4454                   23615645.0824
 -25369161.99647 -19742969.68045  22730326.0004                   22730325.1174
 -11077655.98447  -8621265.66045  22849335.3364                   22849337.6294
   -729351.31646   -557916.07843  24167399.4534                   24167402.9264
 -25262944.28148 -19673577.03946  21562380.7114                   21562380.6294
 -17709489.50447 -13787832.84445  22541914.0554                   22541917.8364
 -10951866.78547  -8523199.19545  22516082.6804                   22516084.0824
 -16881917.63347 -13144148.08645  21863557.2424                   21863558.5004
  -3195181.66046  -2486853.82043  24373662.9304                   24373664.2234
 11  9 23  1  0  0.0000000  0 10G29G12G02G30G18G05G25G15G26G21
 -22853716.33648 -17798477.58646  20908776.7274                   20908776.6724
 -16048383.71146 -12493873.26244  23629634.3984                   23629637.0824
 -25338301.44547 -19718922.50045  22736198.4534                   22736197.7074
 -11062907.56247  -8609773.39845  22852142.0394                   22852144.8284
   -835180.00446   -640379.74643  24147261.0474                   24147264.7154
 -25213078.34848 -19634720.45346  21571869.9844                   21571869.6214
 -17665023.47347 -13753184.01645  22550375.4304                   22550379.6454
 -11062750.09047  -8609601.62545  22494982.4844                   22494983.5744
 -16964729.74647 -13208676.90645  21847798.2664                   21847799.8444
  -3276225.31646  -2550004.65643  24358240.5394                   24358242.4654
 11  9 23  1  0 30.0000000  0 10G29G12G02G30G18G05G25G15G26G21
 -22929130.53548 -17857241.84846  20894425.7424                   20894426.0084
 -15974796.71546 -12436532.80544  23643638.0944                   23643640.8094
 -25307312.81247 -19694775.51645  22742094.9844                   22742094.4064
 -11047680.73447  -8597908.33644  22855039.0784                   22855042.1214
   -940799.16046   -722680.14543  24127162.5944                   24127165.8164
 -25162944.03148 -19595654.72346  21581410.3674                   21581410.1844
 -17620224.69547 -13718275.88745  22558900.1884                   22558903.7934
 -11173394.85547  -8695818.17645  22473927.1334                   22473927.2774
 -17047028.57447 -13272805.77045  21832137.3524                   21832138.8754
  -3357284.36746  -2613167.43443  24342815.3054                   24342817.5944
 11  9 23  1  1  0.0000000  0 10G29G12G02G30G18G05G25G15G26G21
 -23004166.50448 -17915711.38746  20880146.7664                   20880146.8524
 -15901155.49247 -12379150.05544  23657651.7424                   23657653.8134
 -25276196.09447 -19670528.71145  22748016.9224                   22748014.7774
 -11031978.13747  -8585672.53945  22858028.1804                   22858030.0554
  -1046207.97746   -804816.66444  24107103.6254                   24107106.5354
 -25112544.18048 -19556382.09846  21591001.2034                   21591000.7774
 -17575096.38747 -13683111.00445  22567488.0704                   22567492.1484
 -11283798.32047  -8781846.71945  22452917.5784                   22452918.5864
 -17128811.53947 -13336532.66045  21816574.5554                   21816575.6724
  -3438359.33246  -2676342.65643  24327387.0944                   24327389.3874
 11  9 23  1  1 30.0000000  0 10G29G12G02G30G18G05G25G15G26G21
 -23078819.50848 -17973882.50446  20865940.9534                   20865940.8594
 -15827460.46546 -12321725.39144  23671675.1254                   23671677.3054
 -25244948.16447 -19646179.66045  22753963.4224                   22753962.3834
 -11015799.34847  -8573065.73044  22861106.3284                   22861107.8874
  -1151402.68046   -886786.34443  24087085.3134                   24087089.8094
 -25061878.40648 -19516902.26246  21600642.5084                   21600642.4384
 -17529638.74647 -13647689.47745  22576138.3364                   22576142.7274
 -11393954.38747  -8867682.48045  22431955.5704                   22431956.8914
 -17210072.73447 -13399852.96945  21801111.4454                   21801112.3404
  -3519447.96546  -2739528.48843  24311956.9774                   24311957.8284
 11  9 23  1  2  0.0000000  0 10G29G12G02G30G18G05G25G15G26G21
 -23153091.57448 -18031756.79347  20851807.4774                   20851807.8754
 -15753718.72746 -12264264.32044  23685708.0784                   23685710.8914
 -25213572.94147 -19621731.39545  22759933.4924                   22759932.3874
 -10999150.98447  -8560092.99245  22864274.7114                   22864276.5984
  -1256386.62146   -968591.77043  24067107.7424                   24067111.3134
 -25010953.23048 -19477220.30946  21610332.9614                   21610333.3324
 -17483859.19947 -13612017.12545  22584849.9454                   22584854.0784
 -11503864.53547  -8953326.63745  22411040.1094                   22411041.1174
 -17290813.10247 -13462767.43445  21785746.5234                   21785747.3524
  -3600554.74646  -2802728.42243  24296522.2584                   24296524.3324
 11  9 23  1  2 30.0000000  0 10G29G12G02G30G18G05G25G15G26G21
 -23226978.34047 -18089330.84046  20837747.1484                   20837746.8834
 -15679931.55946 -12206767.88344  23699748.1644                   23699751.5984
 -25182067.96947 -19597182.07845  22765928.3054                   22765927.2774
 -10982033.62147  -8546754.82445  22867532.0004                   22867533.3524
  -1361156.59046  -1050230.43043  24047170.0004                   24047174.3524
 -24959769.08248 -19437336.56246  21620073.2424                   21620073.4884
 -17437758.77047 -13576094.73845  22593622.5944                   22593626.1334
 -11613523.85547  -9038775.32045  22390172.4064                   22390173.3874
 -17371027.87947 -13525272.36745  21770482.5084                   21770482.8984
  -3681678.07846  -2865941.27743  24281084.6804                   24281087.0004
 11  9 23  1  3  0.0000000  0 10G29G12G02G30G18G05G25G15G26G21
 -23300477.70748 -18146603.02746  20823760.7344                   20823760.4884
 -15606102.05947 -12149238.44944  23713798.6884                   23713801.5664
 -25150433.16847 -19572531.54745  22771948.4454                   22771947.5274
 -10964449.73847  -8533053.12544  22870878.1094                   22870879.7034
  -1465712.23846  -1131702.14143  24027273.5784                   24027277.4494
 -24908328.87148 -19397253.28546  21629861.5004                   21629861.5634
 -17391340.57447 -13539924.73045  22602455.7504                   22602459.9964
 -11722928.98447  -9124025.96545  22369353.2584                   22369354.5864
 -17450714.18047 -13587365.48845  21755318.4064                   21755318.6094
  -3762818.45746  -2929167.36743  24265644.2274                   24265646.4344
 11  9 23  1  3 30.0000000  0 10G29G12G02G30G18G05G25G15G26G21
 -23373586.74648 -18203571.06246  20809848.5394                   20809848.2194
 -15532232.58647 -12091677.85244  23727854.8834                   23727858.3324
 -25118667.71947 -19547779.23045  22777993.4064                   22777992.6374
 -10946401.32846  -8518989.43445  22874312.4064                   22874314.8714
  -1570051.93446  -1213005.62143  24007418.5554                   24007421.7384
 -24856634.62148 -19356972.05546  21639698.7424                   21639699.0124
 -17344607.16847 -13503509.11345  22611348.5004                   22611353.3794
 -11832076.57047  -9209075.89845  22348583.1804                   22348584.4304
 -17529868.36348 -13649043.96145  21740256.1334                   21740256.6024
  -3843975.52346  -2992406.49644  24250201.2974                   24250202.4774
 11  9 23  1  4  0.0000000  0 10G29G12G02G30G18G05G25G15G26G21
 -23446305.73048 -18260235.14146  20796010.4384                   20796010.2704
 -15458328.11747 -12034089.96944  23741918.4534                   23741921.7664
 -25086773.25047 -19522926.37945  22784062.4384                   22784061.6954
 -10927892.88347  -8504567.28545  22877834.6414                   22877837.0634
  -1674176.53946  -1294141.44943  23987604.1414                   23987607.0984
 -24804690.16048 -19316495.85946  21649583.8284                   21649583.5704
 -17297563.73847 -13466851.91445  22620300.7894                   22620305.2934
 -11940965.67647  -9293924.43445  22327862.3054                   22327864.0354
 -17608489.57048 -13710307.14545  21725294.8984                   21725296.1954
  -3925151.84446  -3055660.58644  24234753.8054                   24234754.6564
 11  9 23  1  4 30.0000000  0 10G29G12G02G30G18G05G25G15G26G21
 -23518631.04748 -18316592.48046  20782247.4454                   20782246.9574
 -15384390.70746 -11976476.42644  23755988.2034                   23755991.9574
 -25054748.26247 -19497971.82045  22790157.1484                   22790155.6094
 -10908925.94547  -8489787.86345  22881443.7344                   22881447.1994
  -1778084.23046  -1375108.21543  23967830.3364                   23967835.0474
 -24752497.65648 -19275826.37546  21659515.4614                   21659515.3014
 -17250212.23447 -13429954.67645  22629311.6174                   22629315.6414
 -12049592.30947  -9378568.46545  22307191.8284                   22307192.6954
 -17686573.85547 -13771151.94945  21710435.7894                   21710436.6024
  -4006346.62946  -3118929.06644  24219301.7114                   24219303.9494
 11  9 23  1  5  0.0000000  0 10G29G12G02G30G18G05G25G15G26G21
 -23590560.98448 -18372641.72746  20768559.4144                   20768559.1134
 -15310423.38346 -11918839.60944  23770064.6414                   23770067.5944
 -25022592.60547 -19472915.46145  22796275.7194                   22796274.3094
 -10889503.17647  -8474653.24244  22885139.6174                   22885142.4924
  -1881774.13346  -1455905.42643  23948098.8594                   23948102.3554
 -24700059.49248 -19234965.46146  21669494.4924                   21669494.0314
 -17202555.98047 -13392819.94945  22638380.1884                   22638383.9144
 -12157953.27747  -9463005.48845  22286570.8444                   22286572.5084
 -17764118.58647 -13831576.31645  21695679.2664                   21695679.7504
  -4087560.37546  -3182212.34043  24203847.3284                   24203848.7154
 11  9 23  1  5 30.0000000  0 10G29G12G02G30G18G05G25G15G26G21
 -23662091.62948 -18428379.83646  20754947.6954                   20754947.4654
 -15236427.69546 -11861180.67644  23784145.2194                   23784147.8054
 -24990304.73847 -19447756.04345  22802419.8204                   22802418.4774
 -10869625.38747  -8459164.07444  22888922.3984                   22888925.5164
  -1985243.87546  -1536530.98043  23928408.7974                   23928412.1254
 -24647376.30948 -19193913.62546  21679519.6414                   21679519.7774
 -17154596.30547 -13355448.80945  22647507.0554                   22647511.2734
 -12266043.98047  -9547231.89545  22266002.1174                   22266002.7814
 -17841118.76647 -13891576.35945  21681026.5634                   21681026.8714
  -4168791.93446  -3245509.41444  24188389.4774                   24188391.2934
 11  9 23  1  6  0.0000000  0 10G29G12G02G30G18G05G25G15G26G21
 -23733223.18448 -18483806.97346  20741411.5394                   20741411.4224
 -15162409.23847 -11803503.95744  23798230.6884                   23798233.6994
 -24957886.77047 -19422495.26645  22808588.9844                   22808588.0004
 -10849297.78547  -8443324.39144  22892790.5474                   22892793.5744
  -2088495.26246  -1616986.41843  23908760.6024                   23908763.4734
 -24594453.04348 -19152674.70746  21689590.2114                   21689589.8404
 -17106339.03147 -13317845.74245  22656689.5234                   22656693.9414
 -12373864.08647  -9631247.47345  22245484.3364                   22245485.7384
 -17917574.55947 -13951152.19945  21666477.3674                   21666477.6374
  -4250043.94946  -3308822.47344  24172927.4694                   24172929.5434
 11  9 23  1  6 30.0000000  0 10G29G12G02G30G18G05G25G15G26G21
 -23803950.58248 -18538919.18746  20727952.7584                   20727952.6374
 -15088367.59047 -11745809.18744  23812319.8054                   23812322.8834
 -24925335.07847 -19397130.28545  22814783.3524                   22814781.7504
 -10828519.70747  -8427133.71544  22896744.5704                   22896746.3714
  -2191523.85546  -1697268.27743  23889154.3834                   23889158.1684
 -24541288.94948 -19111248.12946  21699707.1484                   21699707.2624
 -17057784.02047 -13280010.68045  22665929.1024                   22665933.3714
 -12481407.35547  -9715047.30945  22225019.3204                   22225020.8754
 -17993479.59847 -14010298.90645  21652033.1024                   21652033.2544
  -4331313.89546  -3372149.50444  24157461.8054                   24157464.4574
 11  9 23  1  7  0.0000000  0 10G29G12G02G30G18G05G25G15G26G21
 -23874272.85247 -18593715.71546  20714570.8444                   20714570.5784
 -15014306.90246 -11688099.54744  23826413.2504                   23826415.8054
 -24892650.63747 -19371661.87544  22821002.7734                   22821001.7424
 -10807295.03947  -8410595.02744  22900783.7894                   22900785.7034
  -2294330.26246  -1777376.96143  23869591.5234                   23869594.5744
 -24487887.87147 -19069636.88746  21709869.1644                   21709868.8404
 -17008935.54747 -13241946.96545  22675225.0554                   22675228.5984
 -12588672.14147  -9798630.14545  22204607.3914                   22204608.8754
 -18068832.34847 -14069015.25845  21637693.5164                   21637694.5904
  -4412603.19546  -3435491.64544  24141993.2734                   24141995.1994
 11  9 23  1  7 30.0000000  0 10G29G12G02G30G18G05G25G15G26G21
 -23944187.24648 -18648194.41847  20701266.4694                   20701266.2074
 -14940229.59446 -11630376.98044  23840509.6024                   23840512.4654
 -24859832.32047 -19346089.14544  22827247.7274                   22827245.4534
 -10785625.65246  -8393709.80944  22904906.9614                   22904909.2624
  -2396912.97747  -1857311.33643  23850070.7344                   23850072.6764
 -24434251.61748 -19027842.36746  21720075.5554                   21720074.7734
 -16959796.14847 -13203656.53545  22684576.4844                   22684580.2114
 -12695654.34847  -9881992.79745  22184249.1884                   22184250.8594
 -18143629.61347 -14127298.76645  21623460.1094                   21623461.2934
  -4493911.14147  -3498848.33644  24126520.7504                   24126522.6914
 11  9 23  1  8  0.0000000  0 10G29G12G02G30G18G05G25G15G26G21
 -24013691.92248 -18702353.85947  20688040.3444                   20688040.2274
 -14866138.67646 -11572643.78544  23854608.9064                   23854611.3754
 -24826880.18447 -19320412.12944  22833518.0784                   22833518.1374
 -10763514.41447  -8376480.28944  22909114.9534                   22909117.0474
  -2499271.21546  -1937070.80543  23830592.1484                   23830594.9024
 -24380382.61348 -18985866.50446  21730326.3364                   21730326.3984
 -16910369.15247 -13165142.00845  22693981.5004                   22693985.8794
 -12802351.41847  -9965133.23045  22163945.3914                   22163946.7504
 -18217868.33247 -14185147.02745  21609332.9304                   21609333.9924
  -4575238.47347  -3562220.09844  24111044.9064                   24111045.9774
 11  9 23  1  8 30.0000000  0 10G29G12G02G30G18G05G25G15G26G21
 -24082784.75448 -18756192.37947  20674891.8914                   20674891.8284
 -14792037.51247 -11514902.59844  23868709.9304                   23868711.6174
 -24793793.78547 -19294630.50844  22839814.1724                   22839813.4144
 -10740964.07047  -8358908.62144  22913405.8914                   22913408.9614
  -2601404.11746  -2016654.66443  23811156.9614                   23811159.3634
 -24326283.34448 -18943711.19946  21740621.3054                   21740621.2894
 -16860657.75447 -13126405.85545  22703441.5864                   22703446.4144
 -12908760.47347 -10048049.28145  22143696.3674                   22143697.8364
 -18291546.23447 -14242558.29345  21595312.5314                   21595313.3714
  -4656585.66847  -3625607.37544  24095564.5634                   24095566.8914
 11  9 23  1  9  0.0000000  0 10G29G12G02G30G18G05G25G15G26G21
 -24151464.33248 -18809708.90246  20661822.5864                   20661822.3094
 -14717929.64547 -11457156.21544  23882812.1804                   23882814.2774
 -24760573.73447 -19268744.74244  22846135.9064                   22846135.5784
 -10717977.96947  -8340997.36744  22917780.3054                   22917783.1994
  -2703311.83646  -2096062.98443  23791764.0314                   23791766.9844
 -24271957.24648 -18901379.15246  21750959.1724                   21750958.9104
 -16810665.84047 -13087451.12945  22712954.7584                   22712958.8484
 -13014879.26648 -10130739.13345  22123502.6954                   22123503.6764
 -18364661.12147 -14299530.84846  21581399.0004                   21581400.4654
  -4737953.27047  -3689010.54344  24080081.0164                   24080082.0554
 11  9 23  1  9 30.0000000  0 10G29G12G02G30G18G05G25G15G26G21
 -24219728.01248 -18862901.34447  20648832.7424                   20648832.2274
 -14643817.51646 -11399406.53144  23896915.3134                   23896918.0204
 -24727219.17647 -19242754.18444  22852482.9304                   22852482.3094
 -10694558.52347  -8322748.46145  22922236.7504                   22922239.4264
  -2804993.25446  -2175295.02043  23772414.5234                   23772417.5204
 -24217406.15648 -18858871.77746  21761339.5784                   21761339.5904
 -16760396.24247 -13048280.01645  22722520.9384                   22722524.9064
 -13120704.51647 -10213200.23445  22103363.9844                   22103365.6254
 -18437209.85248 -14356062.24245  21567593.3364                   21567594.3164
  -4819341.83647  -3752430.03944  24064593.3444                   24064593.8794
 11  9 23  1 10  0.0000000  0 10G29G12G02G30G18G05G25G15G26G21
 -24287574.23048 -18915768.48047  20635921.8594                   20635922.1294
 -14569704.34046 -11341656.05943  23911017.4534                   23911021.9454
 -24693730.18447 -19216658.85544  22858855.8444                   22858855.2234
 -10670708.62547  -8304164.15244  22926775.3054                   22926777.3444
  -2906447.43047  -2254349.96543  23753108.3054                   23753110.9884
 -24162632.82447 -18816191.24646  21771762.9384                   21771762.8484
 -16709852.27347 -13008895.13745  22732138.4144                   22732142.9144
 -13226233.30547 -10295430.35545  22083282.6884                   22083283.7034
 -18509189.80547 -14412150.44145  21553895.9454                   21553896.7194
  -4900751.71947  -3815866.12144  24049101.1254                   24049102.5004
 11  9 23  1 10 30.0000000  0 10G29G12G02G30G18G05G25G15G26G21
 -24355002.38348 -18968309.85247  20623090.9454                   20623090.3244
 -14495594.62546 -11283908.26643  23925121.0084                   23925124.0634
 -24660107.98847 -19190459.73045  22865253.6254                   22865252.8714
 -10646432.42647  -8285247.66044  22931394.9144                   22931397.5004
  -3007675.43746  -2333228.63343  23733845.3204                   23733847.6724
 -24107641.17248 -18773340.57446  21782227.5314                   21782227.1414
 -16659038.68747 -12969300.13345  22741808.2814                   22741812.4144
 -13331464.24647 -10377428.35945  22063258.0164                   22063258.5474
 -18580600.02348 -14467794.69145  21540307.2274                   21540307.8404
  -4982184.70347  -3879320.28144  24033605.6564                   24033605.7894
 11  9 23  1 11  0.0000000  0 10G29G12G02G30G18G05G25G15G26G21
 -24422007.85948 -19020521.85947  20610340.0474                   20610339.8984
 -14421488.84446 -11226163.51644  23939223.0314                   23939226.1024
 -24626350.05147 -19164154.80545  22871678.4694                   22871677.2504
 -10621730.38747  -8265999.33244  22936095.0004                   22936098.1054
  -3108674.06646  -2411928.55143  23714625.7344                   23714627.7074
 -24052431.18748 -18730319.76646  21792733.4064                   21792733.0784
 -16607956.27347 -12929495.66445  22751528.7974                   22751532.8404
 -13436391.94547 -10459190.08245  22043291.1884                   22043291.4654
 -18651435.52047 -14522991.10946  21526827.9844                   21526828.7234
  -5063638.89147  -3942790.95344  24018103.9454                   24018105.5784
 11  9 23  1 11 30.0000000  0 10G29G12G02G30G18G05G25G15G26G21
 -24488590.59048 -19072404.45747  20597669.7664                   20597669.6564
 -14347391.69146 -11168425.50444  23953323.5634                   23953325.7154
 -24592457.45747 -19137744.94545  22878127.4774                   22878127.0234
 -10596606.77347  -8246422.50044  22940876.2814                   22940879.2624
  -3209444.08246  -2490450.35244  23695449.0944                   23695451.4734
 -23997006.73447 -18687131.84446  21803280.4774                   21803279.9534
 -16556609.81247 -12889485.45745  22761299.6174                   22761303.7584
 -13541015.14548 -10540714.54346  22023382.4144                   22023382.7544
 -18721695.14547 -14577738.78546  21513457.3984                   21513458.2384
  -5145115.96147  -4006279.46144  24002600.2584                   24002601.0044
 11  9 23  1 12  0.0000000  0 10G29G12G02G30G18G05G25G15G26G21
 -24554744.40648 -19123952.82447  20585080.9924                   20585080.4654
 -14273301.97747 -11110693.31244  23967422.7114                   23967425.1054
 -24558425.78947 -19111226.74245  22884603.5554                   22884602.6604
 -10571060.45747  -8226516.31244  22945737.7424                   22945740.0234
  -3309980.88346  -2568790.39143  23676317.8444                   23676319.7624
 -23941366.52047 -18643775.80146  21813868.3754                   21813867.7154
 -16504998.46947 -12849268.83645  22771121.0314                   22771125.8324
 -13645327.03148 -10621996.40246  22003532.1884                   22003532.7774
 -18791372.50447 -14632032.75846  21500198.4304                   21500198.9494
  -5226612.18747  -4069782.89544  23987091.8674                   23987092.2424
 11  9 23  1 12 30.0000000  0 10G29G12G02G30G18G05G25G15G26G21
 -24620470.45748 -19175167.87947  20572573.6804                   20572573.1604
 -14199226.07447 -11052971.87544  23981517.9844                   23981521.1134
 -24524258.23047 -19084602.64845  22891105.6644                   22891104.6174
 -10545097.38747  -8206285.35945  22950677.8204                   22950680.7664
  -3410286.80946  -2646950.55144  23657229.5394                   23657231.9774
 -23885516.22747 -18600256.06646  21824496.9614                   21824495.5944
 -16453128.73047 -12808850.88345  22780991.8524                   22780996.1134
 -13749327.75848 -10703035.80146  21983741.3134                   21983741.8634
 -18860467.86747 -14685873.23045  21487049.7974                   21487050.7734
  -5308131.28547  -4133304.14543  23971579.0634                   23971579.3954
 11  9 23  1 13  0.0000000  0 10G29G12G02G30G18G05G25G15G26G21
 -24685767.11748 -19226048.32847  20560147.8834                   20560147.8054
 -14125167.36747 -10995263.83244  23995611.2504                   23995614.2154
 -24489954.99647 -19057872.84445  22897632.8364                   22897632.1484
 -10518720.76647  -8185732.16444  22955697.3524                   22955699.9654
  -3510361.54346  -2724930.61343  23638186.1954                   23638189.0124
 -23829458.53147 -18556574.71146  21835163.4924                   21835163.5474
 -16401004.17247 -12768234.36345  22790910.5944                   22790914.3054
 -13853014.72748 -10783830.72346  21964009.8134                   21964010.3594
 -18928979.55947 -14739258.87945  21474012.5864                   21474013.1764
  -5389673.72347  -4196843.59444  23956061.5004                   23956062.0274
 11  9 23  1 13 30.0000000  0 10G29G12G02G30G18G05G25G15G26G21
 -24750631.40648 -19276591.87947  20547804.8594                   20547804.2974
 -14051127.91447 -10937570.76644  24009700.7584                   24009703.3634
 -24455514.77047 -19031036.27045  22904186.8674                   22904186.1254
 -10491932.77047  -8164858.38744  22960794.9454                   22960797.5784
  -3610203.91447  -2802729.58244  23619186.3754                   23619188.6884
 -23773195.10547 -18512733.08646  21845870.1414                   21845870.2114
 -16348627.21947 -12727421.18745  22800877.7894                   22800881.9534
 -13956384.47747 -10864378.44146  21944338.8284                   21944339.7304
 -18996903.89547 -14792186.86345  21461086.5784                   21461086.8594
  -5471239.07846  -4260400.92243  23940539.7114                   23940540.3164
 11  9 23  1 14  0.0000000  0 10G29G12G02G30G18G05G25G15G26G21
 -24815060.01248 -19326795.94147  20535544.4534                   20535544.3284
 -13977108.60547 -10879893.39544  24023786.0474                   24023788.7464
 -24420935.89547 -19004091.65645  22910767.0784                   22910766.4304
 -10464734.59047  -8143665.00844  22965970.8284                   22965973.1334
  -3709811.41847  -2880345.56643  23600230.8834                   23600234.4344
 -23716726.73047 -18468731.73446  21856615.8284                   21856615.9224
 -16295999.66047 -12686412.72345  22810891.5704                   22810896.6764
 -14059432.47747 -10944675.46945  21924729.6024                   21924730.7304
 -19064237.27748 -14844654.33645  21448273.6804                   21448273.9574
  -5552826.17247  -4323975.18444  23925014.7974                   23925015.2234
 11  9 23  1 14 30.0000000  0 10G29G12G02G30G18G05G25G15G26G21
 -24879052.26248 -19376659.97347  20523367.1644                   20523367.0904
 -13903114.02347 -10822235.32044  24037866.2584                   24037869.7544
 -24386218.95347 -18977039.50044  22917373.1564                   22917372.8874
 -10437129.96546  -8122154.90244  22971223.3754                   22971225.6644
  -3809184.41447  -2957778.81644  23581321.1024                   23581323.1334
 -23660056.98047 -18424573.47746  21867399.9534                   21867399.8014
 -16243125.51247 -12645212.12545  22820954.1564                   22820958.2344
 -14162156.82848 -11024720.30946  21905181.9384                   21905182.8404
 -19130977.72348 -14896659.80145  21435573.6094                   21435573.5944
  -5634436.16047  -4387567.31244  23909484.8754                   23909485.4494
 11  9 23  1 15  0.0000000  0 10G29G12G02G30G18G05G25G15G26G21
 -24942604.51648 -19426181.15247  20511273.5004                   20511273.1454
 -13829145.79347 -10764597.73043  24051942.3204                   24051944.9494
 -24351362.68747 -18949878.75445  22924005.8204                   22924005.5514
 -10409120.67647  -8100329.48444  22976553.2814                   22976555.8404
  -3908320.97747  -3035027.86344  23562456.0784                   23562457.9804
 -23603187.05947 -18380259.25446  21878221.7424                   21878221.9694
 -16190006.93047 -12603821.03945  22831062.0004                   22831066.2424
 -14264553.42248 -11104509.75046  21885696.2664                   21885696.6374
 -19197121.99647 -14948200.70746  21422986.7424                   21422986.7544
  -5716068.10947  -4451176.54744  23893950.5234                   23893952.1604
 11  9 23  1 15 30.0000000  0 10G29G12G02G30G18G05G25G15G26G21
 -25005716.55148 -19475359.30947  20499263.4454                   20499263.3524
 -13755207.54747 -10706983.52343  24066012.5864                   24066015.9384
 -24316368.02347 -18922610.19545  22930665.6254                   22930664.0944
 -10380711.01247  -8078192.07044  22981959.8204                   22981962.6914
  -4007221.82847  -3112093.23444  23543635.6564                   23543638.0784
 -23546120.41047 -18335791.71946  21889081.0784                   21889080.7464
 -16136648.51647 -12562243.09045  22841216.3914                   22841220.0864
 -14366620.60948 -11184042.52045  21866273.3754                   21866273.6604
 -19262668.84048 -14999276.09046  21410513.0864                   21410513.8874
  -5797723.62946  -4514804.10944  23878412.0864                   23878412.5944
 11  9 23  1 16  0.0000000  0 10G29G12G02G30G18G05G25G15G26G21
 -25068385.49248 -19524192.19947  20487338.2734                   20487338.2584
 -13681302.18746 -10649394.97343  24080075.9774                   24080079.4654
 -24281233.96147 -18895233.00444  22937351.6334                   22937350.0594
 -10351903.00847  -8055744.28544  22987442.1024                   22987444.3794
  -4105885.71147  -3188974.00044  23524860.5704                   23524862.8714
 -23488858.76247 -18291172.23446  21899977.6174                   21899976.9774
 -16083052.70347 -12520480.13345  22851415.3054                   22851419.5824
 -14468354.56648 -11263315.62946  21846914.0784                   21846914.5664
 -19327615.09848 -15049883.49646  21398154.4384                   21398154.5824
  -5879402.19947  -4578449.62544  23862868.5634                   23862869.8364
 11  9 23  1 16 30.0000000  0 10G29G12G02G30G18G05G25G15G26G21
 -25130609.75048 -19572678.59047  20475496.8834                   20475496.7194
 -13607432.49646 -10591834.19143  24094133.3754                   24094135.7194
 -24245960.39847 -18867747.11344  22944063.1094                   22944062.5864
 -10322699.81247  -8032988.55144  22992999.1644                   22993001.1174
  -4204312.10947  -3265669.70344  23506130.1564                   23506132.7194
 -23431404.88747 -18246402.98046  21910910.4844                   21910910.4264
 -16029222.94547 -12478534.90645  22861658.3134                   22861662.6564
 -14569753.11348 -11342327.35546  21827618.8364                   21827618.9104
 -19391958.59047 -15100021.20346  21385910.1484                   21385910.6954
  -5961104.12547  -4642113.33644  23847321.6804                   23847323.0664
 11  9 23  1 17  0.0000000  0 10G29G12G02G30G18G05G25G15G26G21
 -25192387.09048 -19620816.73847  20463741.2034                   20463741.2584
 -13533601.36346 -10534303.43043  24108182.3054                   24108184.9494
 -24210547.08647 -18840152.32444  22950801.8054                   22950801.3484
 -10293104.19547  -8009927.02044  22998631.0784                   22998633.0554
  -4302500.32447  -3342179.87144  23487445.8054                   23487446.8444
 -23373761.09447 -18201485.73046  21921880.1644                   21921879.7584
 -15975162.40247 -12436409.80545  22871945.7584                   22871949.0984
 -14670813.03548 -11421075.24246  21808387.3524                   21808388.0514
 -19455697.02747 -15149687.44945  21373781.1804                   21373781.8524
  -6042829.76247  -4705795.52744  23831769.3914                   23831770.7034
 11  9 23  1 17 30.0000000  0 10G29G12G02G30G18G05G25G15G26G21
 -25253717.15248 -19668606.35547  20452070.5314                   20452070.6604
 -13459812.82846 -10476805.92643  24122224.3054                   24122226.3094
 -24174995.28547 -18812449.60544  22957567.3134                   22957566.8134
 -10263120.58647  -7986563.14544  23004336.8984                   23004339.2704
  -4400450.87547  -3418504.82044  23468805.7894                   23468806.7894
 -23315931.18047 -18156423.43746  21932884.7344                   21932884.0474
 -15920875.62947 -12394108.48445  22882275.9924                   22882280.8914
 -14771533.07047 -11499558.28146  21789220.9694                   21789221.4734
 -19518829.34047 -15198881.38345  21361767.2584                   21361767.8014
  -6124580.81247  -4769497.50044  23816213.0164                   23816213.6374
 11  9 23  1 18  0.0000000  0 10G29G12G02G30G18G05G25G15G26G21
 -25314595.17248 -19716043.72347  20440486.0314                   20440485.5634
 -13386066.96146 -10419341.59443  24136258.1024                   24136261.2114
 -24139301.39146 -18784636.18444  22964360.5634                   22964359.2504
 -10232748.90247  -7962896.90244  23010116.4844                   23010119.1334
  -4498160.62147  -3494642.10244  23450212.4224                   23450213.5164
 -23257914.43747 -18111215.57046  21943924.8984                   21943924.5084
 -15866363.11347 -12351631.20745  22892649.5554                   22892654.2274
 -14871907.34448 -11577771.89546  21770120.4384                   21770120.1884
 -19581350.39148 -15247599.01645  21349869.9844                   21349870.3364
  -6206354.85946  -4833217.36344  23800651.7504                   23800652.2974
 11  9 23  1 18 30.0000000  0 10G29G12G02G30G18G05G25G15G26G21
 -25375021.25448 -19763128.95347  20428987.2274                   20428987.0594
 -13312368.77046 -10361914.47743  24150281.6094                   24150285.5864
 -24103467.32047 -18756713.51644  22971178.7974                   22971178.1174
 -10201994.23847  -7938932.21544  23015968.8134                   23015971.2734
  -4595630.87947  -3570592.82043  23431664.6254                   23431665.2934
 -23199715.18447 -18065865.48446  21955000.0554                   21954999.5004
 -15811630.04347 -12308982.07045  22903064.8284                   22903069.6414
 -14971935.19548 -11655715.55146  21751085.4384                   21751086.0274
 -19643259.99248 -15295840.18046  21338089.0394                   21338089.4694
  -6288153.77747  -4896956.64144  23785086.3754                   23785086.8404
 11  9 23  1 19  0.0000000  0 10G29G12G02G30G18G05G25G15G26G21
 -25434994.16848 -19809861.04747  20417574.6094                   20417574.3164
 -13238721.83647 -10304527.28544  24164297.3444                   24164300.4224
 -24067493.66447 -18728682.12544  22978024.8364                   22978023.8164
 -10170860.24647  -7914671.94944  23021893.3054                   23021895.3554
  -4692861.50847  -3646356.81643  23413161.8524                   23413162.7304
 -23141336.78547 -18020375.79346  21966108.7194                   21966108.5234
 -15756680.43447 -12266164.23445  22913521.6954                   22913526.0164
 -15071614.15248 -11733387.36746  21732117.2194                   21732117.7344
 -19704556.55548 -15343603.65646  21326424.8444                   21326424.6374
  -6369978.65646  -4960716.09044  23769514.5394                   23769516.1054
 11  9 23  1 19 30.0000000  0 10G29G12G02G30G18G05G25G15G26G21
 -25494509.65648 -19856236.71547  20406249.0004                   20406248.8204
 -13165126.48446 -10247180.25444  24178301.2344                   24178304.8984
 -24031377.50047 -18700539.64844  22984896.8754                   22984896.4024
 -10139347.41446  -7890116.48044  23027889.3594                   23027892.8444
  -4789849.64547  -3721931.78543  23394705.3444                   23394706.3484
 -23082778.95747 -17974746.30946  21977251.8594                   21977252.0904
 -15701515.01247 -12223178.20745  22924018.9924                   22924022.8244
 -15170939.20348 -11810783.39546  21713216.7274                   21713216.5004
 -19765235.26647 -15390885.70345  21314877.5234                   21314877.7114
  -6451826.99646  -5024493.81244  23753938.9694                   23753940.6644
 11  9 23  1 20  0.0000000  0 10G29G12G02G30G18G05G25G15G26G21
 -25553566.99648 -19902255.38747  20395010.7974                   20395010.5204
 -13091586.69147 -10189876.51644  24192296.0394                   24192299.2424
 -23995119.93747 -18672287.02344  22991796.9304                   22991795.6804
 -10107459.82446  -7865268.99244  23033957.9924                   23033960.7344
  -4886595.84847  -3797318.30143  23376295.0004                   23376296.4694
 -23024044.99247 -17928979.56646  21988428.9224                   21988428.5744
 -15646138.17647 -12180027.44945  22934556.8984                   22934561.3594
 -15269908.44148 -11887902.18046  21694383.0864                   21694383.4384
 -19825295.17247 -15437685.55146  21303448.4064                   21303448.5554
  -6533700.28547  -5088291.00044  23738358.5944                   23738359.1054
 11  9 23  1 20 30.0000000  0 10G29G12G02G30G18G05G25G15G26G21
 -25612163.78948 -19947915.18447  20383860.1094                   20383859.6254
 -13018104.57447 -10132617.76644  24206278.5474                   24206282.3134
 -23958719.93047 -18643923.34444  22998723.5864                   22998721.1564
 -10075199.80947  -7840131.30144  23040097.4304                   23040099.1844
  -4983098.79746  -3872515.21543  23357930.5234                   23357932.9774
 -22965136.67647 -17883076.95746  21999638.5704                   21999637.9774
 -15590552.50447 -12136713.96545  22945134.7274                   22945138.9344
 -15368518.47748 -11964741.05946  21675618.1954                   21675618.6134
 -19884733.57847 -15484001.11346  21292137.8284                   21292138.1214
  -6615597.87147  -5152107.11344  23722774.1884                   23722775.0634
 11  9 23  1 21  0.0000000  0 10G29G12G02G30G18G05G25G15G26G21
 -25670298.56647 -19993214.96147  20372797.6644                   20372796.9614
 -12944683.22747 -10075406.35244  24220250.2664                   24220253.4964
 -23922177.62946 -18615448.82844  23005677.3914                   23005676.0394
 -10042570.87547  -7814706.13344  23046306.3594                   23046307.8914
  -5079358.51246  -3947522.59844  23339613.2814                   23339615.5204
 -22906056.93047 -17837040.79346  22010881.0234                   22010881.0904
 -15534761.71147 -12093240.64845  22955751.5394                   22955755.7504
 -15466766.95348 -12041298.21946  21656921.7194                   21656922.2234
 -19943548.63347 -15529830.93446  21280945.3984                   21280945.9614
  -6697520.57046  -5215942.75844  23707184.6174                   23707186.0554
 11  9 23  1 21 30.0000000  0 10G29G12G02G30G18G05G25G15G26G21
 -25727969.14148 -20038153.03147  20361822.8754                   20361822.7854
 -12871325.44947 -10018244.41444  24234210.0004                   24234213.2544
 -23885492.74246 -18586863.19144  23012658.0314                   23012657.2464
 -10009575.66046  -7788995.55944  23052584.7734                   23052586.7304
  -5175373.78147  -4022339.51244  23321342.2584                   23321343.3674
 -22846807.57448 -17790872.45746  22022156.1804                   22022155.5124
 -15478768.61347 -12049609.70745  22966406.3054                   22966410.4964
 -15564650.90248 -12117571.30146  21638294.8284                   21638295.4924
 -20001737.84447 -15575173.09046  21269872.3674                   21269872.4344
  -6779468.35246  -5279797.93744  23691590.3914                   23691591.8164
 11  9 23  1 22  0.0000000  0 10G29G12G02G30G18G05G25G15G26G21
 -25785173.84848 -20082728.08247  20350937.3364                   20350936.9924
 -12798034.16047  -9961134.35244  24248156.5004                   24248160.4104
 -23848664.56647 -18558165.92244  23019666.6174                   23019665.4264
  -9976217.22346  -7763001.94944  23058932.2664                   23058934.7194
  -5271144.50046  -4096965.85944  23303117.6174                   23303118.7624
 -22787391.17248 -17744573.95346  22033462.3284                   22033461.9184
 -15422576.74247 -12005823.83245  22977099.7034                   22977103.6884
 -15662167.60947 -12193558.23846  21619738.0554                   21619739.0474
 -20059299.54347 -15620026.28946  21258918.8834                   21258918.9884
  -6861441.61347  -5343673.00044  23675991.5084                   23675992.2814
 11  9 23  1 22 30.0000000  0 10G29G12G02G30G18G05G25G15G26G21
 -25841911.34448 -20126939.06647  20340140.7894                   20340140.1454
 -12724812.59047  -9904078.59844  24262090.0944                   24262093.9414
 -23811693.71947 -18529357.43444  23026701.5084                   23026700.3954
  -9942499.30546  -7736728.24244  23065348.6334                   23065350.7974
  -5366670.86347  -4171401.77344  23284939.5474                   23284940.9384
 -22727810.74247 -17698147.62546  22044799.8524                   22044799.1684
 -15366189.83247 -11961886.05145  22987829.3914                   22987834.1564
 -15759314.85948 -12269257.28546  21601251.2974                   21601251.7384
 -20116231.88747 -15664389.07446  21248085.0084                   21248084.8594
  -6943440.75047  -5407568.19144  23660387.3834                   23660387.5204
 11  9 23  1 23  0.0000000  0 10G29G12G02G30G18G05G25G15G26G21
 -25898178.54348 -20170783.58247  20329433.4224                   20329433.1914
 -12651662.12547  -9847078.20344  24276010.3364                   24276013.3164
 -23774578.19946 -18500436.21944  23033764.2114                   23033763.1024
  -9908423.35246  -7710175.51244  23071833.4304                   23071835.2894
  -5461950.18447  -4245645.20744  23266808.1954                   23266809.1724
 -22668066.67648 -17651593.78546  22056169.2664                   22056169.0394
 -15309609.63747 -11917797.59045  22998596.4384                   22998600.9804
 -15856088.34048 -12344665.07846  21582835.9924                   21582835.5234
 -20172531.62148 -15708258.91046  21237371.0474                   21237371.1914
  -7025464.48047  -5471482.57044  23644778.8284                   23644779.1484
 11  9 23  1 23 30.0000000  0 10G29G12G02G30G18G05G25G15G26G21
 -25953974.31647 -20214260.75447  20318815.6724                   20318814.8364
 -12578586.02346  -9790135.74243  24289915.9304                   24289918.8554
 -23737318.52046 -18471402.66844  23040855.0164                   23040853.3634
  -9873992.99246  -7683346.65644  23078384.8754                   23078388.0664
  -5556983.07046  -4319696.64544  23248723.5314                   23248725.4494
 -22608161.97747 -17604914.77745  22067568.4224                   22067568.1884
 -15252839.97347 -11873561.49244  23009399.4224                   23009403.5204
 -15952485.69947 -12419779.80146  21564492.5864                   21564492.6254
 -20228197.07847 -15751634.51646  21226778.5634                   21226778.3524
  -7107513.80946  -5535416.90244  23629165.5234                   23629165.4844
 11  9 23  1 24  0.0000000  0 10G29G12G02G30G18G05G25G15G26G21
 -26009296.08647 -20257368.57447  20308288.0234                   20308287.7814
 -12505586.44946  -9733252.96143  24303806.9384                   24303810.2034
 -23699913.80946 -18442256.11744  23047972.1564                   23047971.4734
  -9839210.65246  -7656243.51644  23085004.1094                   23085006.8674
  -5651768.18446  -4393554.95344  23230686.7114                   23230688.3554
 -22548098.24647 -17558111.85545  22078998.2664                   22078998.1724
 -15195883.37947 -11829179.75044  23020237.4924                   23020241.8404
 -16048503.63747 -12494598.87146  21546220.1954                   21546220.7384
 -20283225.69947 -15794513.89145  21216306.9614                   21216307.3244
  -7189588.08246  -5599370.68444  23613547.0704                   23613547.1914
 11  9 23  1 24 30.0000000  0 10G29G12G02G30G18G05G25G15G26G21
 -26064142.92247 -20300106.30947  20297851.0164                   20297850.5274
 -12432666.41846  -9676432.15243  24317683.2424                   24317687.2304
 -23662364.48847 -18412996.87144  23055118.2274                   23055116.9654
  -9804079.81246  -7628868.83644  23091688.6954                   23091691.1604
  -5746305.81647  -4467220.45344  23212696.3834                   23212697.8794
 -22487878.25448 -17511187.18046  22090457.8674                   22090456.8164
 -15138743.70747 -11784655.37945  23031111.2974                   23031115.0274
 -16144140.03548 -12569120.62546  21528021.1334                   21528021.5314
 -20337616.21147 -15836896.02346  21205956.8834                   21205957.1804
  -7271687.85546  -5663344.35544  23597923.5314                   23597923.5314
 11  9 23  1 25  0.0000000  0 10G29G12G02G30G18G05G25G15G26G21
 -26118511.35947 -20342471.27347  20287505.1564                   20287504.3524
 -12359827.90246  -9619674.87943  24331544.3204                   24331547.8484
 -23624668.61746 -18383623.49244  23062291.2664                   23062290.0944
  -9768602.29746  -7601224.00844  23098440.0634                   23098442.0044
  -5840593.89547  -4540691.49644  23194754.1564                   23194754.9304
 -22427503.05948 -17464141.54345  22101946.9844                   22101946.5434
 -15081422.83247 -11739989.78545  23042018.7894                   23042022.8094
 -16239390.74648 -12643341.85546  21509895.5394                   21509895.6334
 -20391365.09047 -15878778.19546  21195728.5084                   21195728.0554
  -7353811.90647  -5727336.98444  23582295.5474                   23582295.9104
 11  9 23  1 25 30.0000000  0 10G29G12G02G30G18G05G25G15G26G21
 -24596978.17248 -19156860.94547  20577043.0704                   20577042.3014
 -10711655.93446  -8335385.02043  24645181.5474                   24645183.7424
 -22011407.55546 -17126536.95344  23369285.4534                   23369283.6604
  -8157362.66446  -6345712.60944  23405048.9304                   23405051.3714
  -4359209.10247  -3386365.50044  23476652.1484                   23476653.1524
 -20791556.88747 -16189378.27345  22413256.7114                   22413256.2074
 -13448506.16447 -10467587.19145  23352752.9694                   23352757.4614
 -14758830.10248 -11489658.14146  21791637.0554                   21791637.2234
 -18869049.13347 -14692557.90646  21485415.7034                   21485415.4414
  -5860538.22746  -4563746.94944  23866456.1804                   23866456.7544
 11  9 23  1 26  0.0000000  0 10G29G12G02G30G18G05G25G15G26G21
 -24650388.11348 -19198479.03547  20566879.8674                   20566878.9184
 -10638991.16446  -8278763.07843  24659009.3984                   24659011.5864
 -21973421.27746 -17096937.23844  23376513.0944                   23376512.7344
  -8121204.22346  -6317537.18744  23411929.8134                   23411932.6374
  -4452999.93447  -3459449.09044  23458804.5004                   23458805.5314
 -20730880.82448 -16142098.20746  22424802.9224                   22424802.2854
 -13390835.77347 -10422649.25045  23363727.2974                   23363731.9694
 -14853304.42248 -11563274.39846  21773659.0864                   21773659.5044
 -18921512.40247 -14733438.31646  21475432.0554                   21475431.7734
  -5942714.57846  -4627780.35244  23850817.7344                   23850818.6994
 11  9 23  1 26 30.0000000  0 10G29G12G02G30G18G05G25G15G26G21
 -24703315.93048 -19239721.43747  20556807.6724                   20556807.1414
 -10566416.90246  -8222211.65243  24672819.2194                   24672821.4384
 -21935288.58246 -17067223.46145  23383769.9144                   23383768.2624
  -8084709.50046  -6289099.73044  23418874.1334                   23418877.3524
  -4546541.18047  -3532338.21944  23441003.6644                   23441004.9884
 -20670057.47347 -16094703.37145  22436377.2504                   22436376.9654
 -13332994.98047 -10377578.53145  23374734.1804                   23374737.5164
 -14947385.80548 -11636584.46546  21755756.1024                   21755756.3874
 -18973329.67647 -14773815.34446  21465571.3834                   21465571.7344
  -6024916.77746  -4691833.90244  23835175.1954                   23835175.2664
 11  9 23  1 27  0.0000000  0 10G29G12G02G30G18G05G25G15G26G21
 -24755759.19148 -19280586.26247  20546828.0944                   20546827.3834
 -10493935.46946  -8165732.60543  24686611.6804                   24686614.5084
 -21897009.20746 -17037395.37144  23391054.0394                   23391053.0474
  -8047881.07846  -6260402.23044  23425882.1484                   23425884.7154
  -4639831.75447  -3605031.97744  23423250.7504                   23423251.8914
 -20609088.64847 -16047195.19145  22447978.9614                   22447978.4964
 -13274986.66447 -10332377.27345  23385772.5864                   23385776.9264
 -15041071.35548 -11709586.09846  21737927.9924                   21737928.5164
 -19024498.68748 -14813687.23846  21455834.0314                   21455834.3284
  -6107144.45746  -4755907.29744  23819528.3914                   23819527.8364
 11  9 23  1 27 30.0000000  0 10G29G12G02G30G18G05G25G15G26G21
 -24807714.69148 -19321071.02747  20536941.3984                   20536940.6954
 -10421547.79746  -8109326.59443  24700387.1724                   24700388.9654
 -21858581.24246 -17007451.45744  23398366.3204                   23398365.8714
  -8010720.50446  -6231445.94944  23432953.8444                   23432956.4414
  -4732869.50847  -3677528.83644  23405546.4844                   23405547.6334
 -20547974.78548 -15999573.98845  22459608.9534                   22459608.9344
 -13216812.44147 -10287046.71945  23396842.2974                   23396847.3554
 -15134356.93447 -11782276.04746  21720176.3444                   21720176.3984
 -19075016.02747 -14853051.34446  21446221.3524                   21446221.4614
  -6189396.33246  -4819999.58244  23803875.6724                   23803875.3954
 11  9 23  1 28  0.0000000  0 10G29G12G02G30G18G05G25G15G26G21
 -24859183.20748 -19361176.31247  20527147.0314                   20527146.5634
 -10349258.81646  -8052997.43743  24714142.1804                   24714144.3914
 -21820006.50046 -16977393.18045  23405707.1804                   23405706.2154
  -7973232.87946  -6202234.81244  23440087.2114                   23440089.8054
  -4825655.94547  -3749829.79744  23387888.5784                   23387890.2424
 -20486720.13347 -15951843.08645  22471265.1954                   22471264.4224
 -13158477.53547 -10241590.97345  23407943.4304                   23407948.1644
 -15227241.70348 -11854653.69946  21702500.9224                   21702500.6334
 -19124882.14547 -14891907.98846  21436732.2504                   21436731.8794
  -6271674.33246  -4884112.25044  23788219.4064                   23788218.8874
 11  9 23  1 28 30.0000000  0 10G29G12G02G30G18G05G25G15G26G21
 -24910156.31647 -19400895.57447  20517447.3444                   20517446.6454
 -10277064.74646  -7996742.34043  24727881.4614                   24727883.5664
 -21781277.90647 -16947215.07444  23413077.3754                   23413075.5744
  -7935414.97346  -6172766.31244  23447283.6954                   23447286.4414
  -4918184.55547  -3821929.87944  23370281.7664                   23370282.2584
 -20425320.33647 -15903999.09045  22482949.4384                   22482948.5554
 -13099978.73447 -10196007.53945  23419075.5474                   23419079.9064
 -15319716.46148 -11926711.86746  21684903.1954                   21684903.1294
 -19174088.45347 -14930250.50046  21427368.6724                   21427367.7424
  -6353971.82046  -4948240.10544  23772558.5474                   23772558.2384
 11  9 23  1 29  0.0000000  0 10G29G12G02G30G18G05G25G15G26G21
 -24960641.50048 -19440234.64147  20507840.0394                   20507839.1644
 -10204976.93046  -7940570.00443  24741598.3204                   24741601.7734
 -21742404.58246 -16916924.19144  23420474.2504                   23420472.1254
  -7897278.74647  -6143049.78944  23454541.2034                   23454543.8674
  -5010463.77046  -3893835.61744  23352721.4534                   23352722.3134
 -20363786.59047 -15856050.70345  22494658.5164                   22494658.4454
 -13041328.26647 -10150305.90645  23430236.2274                   23430240.6414
 -15411787.58648 -11998455.50846  21667382.8054                   21667382.7074
 -19222642.72347 -14968084.92646  21418128.2344                   21418128.0044
  -6436298.16846  -5012390.46944  23756892.4064                   23756891.5274
 11  9 23  1 29 30.0000000  0 10G29G12G02G30G18G05G25G15G26G21
 -25010632.58647 -19479188.68747  20498327.1564                   20498326.4964
 -10132994.16446  -7884479.48443  24755296.2894                   24755300.1094
 -21703381.58646 -16886516.68745  23427900.8204                   23427899.1954
  -7858822.89847  -6113084.19144  23461858.8674                   23461861.0474
  -5102488.26647  -3965542.86744  23335209.7344                   23335210.4614
 -20302116.53147 -15807996.10945  22506394.2034                   22506394.0864
 -12982524.83247 -10104485.10544  23441426.7814                   23441431.0084
 -15503447.81248 -12069878.98446  21649940.1954                   21649939.7934
 -19270538.44547 -15005406.19946  21409014.2504                   21409013.9064
  -6518648.76247  -5076559.68744  23741220.8674                   23741220.9104
 11  9 23  1 30  0.0000000  0 10G29G12G02G30G18G05G25G15G26G21
 -25060128.76648 -19517757.09447  20488907.9844                   20488907.5474
 -10061119.63746  -7828473.31244  24768973.9144                   24768976.8404
 -21664209.60947 -16855993.06245  23435354.1094                   23435353.7464
  -7820051.51246  -6082872.76244  23469237.2974                   23469240.0784
  -5194258.99247  -4037052.37944  23317746.2504                   23317747.8054
 -20240313.41047 -15759837.82845  22518154.9534                   22518155.1884
 -12923572.60247 -10058548.32845  23452644.3674                   23452649.0354
 -15594695.34848 -12140980.86346  21632576.6414                   21632576.4454
 -19317775.16048 -15042213.95746  21400025.5234                   21400025.0824
  -6601024.58246  -5140748.58644  23725545.2114                   23725545.5784
 11  9 23  1 30 30.0000000  0 10G29G12G02G30G18G05G25G15G26G21
 -25109128.95348 -19555939.01647  20479583.7114                   20479582.8794
  -9989356.34847  -7772553.89843  24782630.8134                   24782631.9774
 -21624888.67247 -16825353.38344  23442837.4064                   23442835.0314
  -7780968.01647  -6052418.08644  23476674.8594                   23476677.0314
  -5285775.55147  -4108363.85244  23300331.3284                   23300332.2034
 -20178379.70347 -15711577.78945  22529940.6094                   22529939.8554
 -12864475.06647 -10012498.35244  23463890.1414                   23463894.8834
 -15685528.14848 -12211759.57846  21615291.2664                   21615291.7584
 -19364351.21547 -15078506.91446  21391162.2274                   21391162.1054
  -6683426.05547  -5204957.46944  23709864.6334                   23709864.9184
 11  9 23  1 31  0.0000000  0 10G29G12G02G30G18G05G25G15G26G21
 -25157631.35948 -19593733.05547  20470354.0944                   20470353.4304
  -9917706.97346  -7716723.18743  24796264.3134                   24796266.5784
 -21585418.46947 -16794597.35944  23450348.1724                   23450346.2974
  -7741575.31246  -6021722.48044  23484170.6724                   23484172.9414
  -5377037.87547  -4179477.20344  23282964.4064                   23282965.5784
 -20116317.33247 -15663217.49245  22541750.4774                   22541750.1844
 -12805235.35247  -9966337.56244  23475163.3284                   23475168.0084
 -15775943.51248 -12282213.01246  21598086.1334                   21598085.8164
 -19410265.03948 -15114283.85946  21382425.1094                   21382424.9264
  -6765852.89547  -5269186.08244  23694179.5164                   23694179.8484
 11  9 23  1 31 30.0000000  0 10G29G12G02G30G18G05G25G15G26G21
 -25205633.82048 -19631137.53147  20461219.3674                   20461218.8754
  -9846173.39546  -7660982.69144  24809878.2424                   24809879.8954
 -21545797.92246 -16763724.20344  23457886.8284                   23457885.9494
  -7701876.22346  -5990788.11344  23491725.4304                   23491727.7664
  -5468045.02347  -4250391.72344  23265645.6724                   23265646.4804
 -20054127.96547 -15614758.22345  22553584.7114                   22553584.1174
 -12745856.12947  -9920068.06244  23486463.2894                   23486467.1884
 -15865938.23448 -12352338.66046  21580960.2504                   21580960.1374
 -19455514.67247 -15149543.23846  21373814.1094                   21373813.8444
  -6848304.67247  -5333434.15244  23678489.6334                   23678489.7344
 11  9 23  1 32  0.0000000  0 10G29G12G02G30G18G05G25G15G26G21
 -25253134.47348 -19668150.98447  20452180.3284                   20452179.7774
  -9774757.32846  -7605333.79343  24823466.4924                   24823470.9534
 -21506026.66047 -16732733.58244  23465455.5314                   23465453.6564
  -7661873.05546  -5959616.83244  23499337.8754                   23499339.8284
  -5558795.77047  -4321106.43444  23248376.8134                   23248376.9224
 -19991813.04747 -15566201.15645  22565443.1334                   22565442.2154
 -12686339.91847  -9873691.84044  23497788.5944                   23497792.5634
 -15955508.83647 -12422133.84046  21563915.7344                   21563915.2854
 -19500097.78548 -15184283.25446  21365330.1724                   21365330.2304
  -6930780.89847  -5397701.24244  23662795.1804                   23662794.6334
 11  9 23  1 32 30.0000000  0 10G29G12G02G30G18G05G25G15G26G21
 -25300132.46948 -19704772.75447  20443236.7504                   20443236.1724
  -9703462.74646  -7549779.60943  24837033.3134                   24837036.6644
 -21466105.05946 -16701625.82844  23473051.6174                   23473050.2384
  -7621570.03547  -5928211.86744  23507007.1094                   23507008.4494
  -5649290.74246  -4391621.85544  23231155.8754                   23231157.4734
 -19929375.55947 -15517548.54345  22577324.4534                   22577324.1374
 -12626690.92647  -9827212.15244  23509140.0394                   23509143.8554
 -16044653.94547 -12491597.48446  21546952.0704                   21546951.8714
 -19544014.01648 -15218503.63346  21356973.4614                   21356973.2734
  -7013282.33247  -5461987.96944  23647095.1094                   23647094.8984
 11  9 23  1 33  0.0000000  0  9G29G02G30G18G05G25G15G26G21
 -25346627.21948 -19741002.39147  20434389.4534                   20434388.3874
 -21426033.56246 -16670401.23844  23480677.1174                   23480676.6024
  -7580971.03547  -5896576.30544  23514732.8284                   23514734.8634
  -5739530.19547  -4461938.18044  23213984.3444                   23213985.3324
 -19866818.34447 -15468802.65645  22589228.4534                   22589228.5904
 -12566913.07447  -9780632.04344  23520515.0164                   23520518.4774
 -16133371.65648 -12560728.07846  21530069.2504                   21530069.0434
 -19587262.37948 -15252203.58646  21348743.4454                   21348743.6094
  -7095809.61747  -5526294.83644  23631390.6954                   23631390.8284
 11  9 23  1 33 30.0000000  0  9G29G02G30G18G05G25G15G26G21
 -25392615.28548 -19776837.20347  20425637.9064                   20425637.2774
 -21385810.78946 -16639058.82844  23488332.0234                   23488329.5004
  -7540077.78947  -5864711.43444  23522514.4844                   23522517.1954
  -5829512.43047  -4532054.05544  23196860.9224                   23196861.3754
 -19804142.26647 -15419964.14145  22601155.8054                   22601155.3554
 -12507008.14847  -9733952.89145  23531914.0944                   23531920.0394
 -16221657.97347 -12629522.50846  21513268.6644                   21513268.0704
 -19629840.20348 -15285381.05946  21340641.0634                   21340640.6254
  -7178361.43747  -5590620.82844  23615682.0704                   23615681.7814
 11  9 23  1 34  0.0000000  0  9G29G02G30G18G05G25G15G26G21
 -25438089.09448 -19812271.29747  20416984.6094                   20416983.4924
 -21345429.42246 -16607592.81643  23496015.8364                   23496014.1484
  -7498886.73047  -5832614.51644  23530353.1804                   23530354.8634
  -5919230.44147  -4601964.02744  23179788.0864                   23179788.0554
 -19741342.69947 -15371029.40245  22613105.8054                   22613105.9774
 -12446972.65247  -9687172.03944  23543338.4844                   23543343.8754
 -16309503.40647 -12697973.41046  21496552.3984                   21496552.0864
 -19671739.27348 -15318029.64146  21332667.7274                   21332666.9184
  -7260931.28947  -5654960.84444  23599969.3524                   23599969.5084
 11  9 23  1 34 30.0000000  0  9G29G02G30G18G05G25G15G26G21
 -25483042.45748 -19847299.84847  20408430.3674                   20408429.2304
 -21304884.88346 -16575999.62943  23503731.3364                   23503729.5124
  -7457396.67247  -5800284.63344  23538248.2424                   23538250.8524
  -6008679.37147  -4671664.35244  23162766.3524                   23162766.5514
 -19678416.91847 -15321996.31645  22625080.2424                   22625080.2034
 -12386805.28547  -9640288.37944  23554788.8134                   23554792.8244
 -16396901.09047 -12766075.40246  21479921.2114                   21479921.3284
 -19712953.83248 -15350144.82846  21324824.9384                   21324824.3594
  -7343514.46547  -5719311.24244  23584254.2034                   23584253.4184
 11  9 23  1 35  0.0000000  0  9G29G02G30G18G05G25G15G26G21
 -25527477.80948 -19881924.77047  20399974.3444                   20399973.9534
 -21264180.72746 -16544282.06243  23511477.5004                   23511475.9884
  -7415614.52347  -5767727.09844  23546199.1884                   23546201.0434
  -6097862.62547  -4741157.64844  23145795.2584                   23145795.6764
 -19615371.09047 -15272869.68445  22637077.3914                   22637078.0904
 -12326513.04347  -9593307.44544  23566261.6254                   23566265.8404
 -16483852.70747 -12833829.81646  21463374.6254                   21463374.5274
 -19753486.37548 -15381728.56646  21317112.1254                   21317111.3054
  -7426114.89547  -5783675.07844  23568535.9384                   23568534.9694
 11  9 23  1 35 30.0000000  0  9G29G02G30G18G05G25G15G26G21
 -25571395.05548 -19916145.96547  20391617.0394                   20391616.4184
 -21223318.04346 -16512440.94144  23519253.0634                   23519252.0744
  -7373544.84447  -5734945.50844  23554204.6334                   23554207.0044
  -6186781.62147  -4810445.03544  23128874.6884                   23128874.6254
 -19552208.77047 -15223652.28545  22649096.6804                   22649096.4184
 -12266100.55547  -9546232.80544  23577757.9614                   23577762.2974
 -16570356.63348 -12901235.37546  21446913.3914                   21446912.7344
 -19793336.93448 -15412780.90646  21309528.6094                   21309528.2774
  -7508733.76647  -5848053.27044  23552813.1024                   23552813.4264
 11  9 23  1 36  0.0000000  0  9G29G02G30G18G05G25G15G26G21
 -25614793.51648 -19949962.90647  20383358.6954                   20383358.3284
 -21182297.18046 -16480476.65644  23527059.8594                   23527058.1024
  -7331191.51246  -5701942.95344  23562263.7504                   23562266.8674
  -6275436.63347  -4879526.72344  23112003.9454                   23112004.6134
 -19488932.55947 -15174346.13345  22661137.8914                   22661136.9884
 -12205571.54347  -9499067.35244  23589275.4844                   23589280.1374
 -16656410.98848 -12968290.62146  21430537.9224                   21430537.6174
 -19832504.96148 -15443301.39846  21302074.6334                   21302075.0434
  -7591371.70747  -5912446.33244  23537087.4144                   23537087.9304
 11  9 23  1 36 30.0000000  0  9G29G02G30G18G05G25G15G26G21
 -25657673.32848 -19983375.71547  20375198.8364                   20375198.6214
 -21141119.80147 -16448390.36744  23534894.9844                   23534894.1644
  -7288559.19547  -5668722.91044  23570376.6334                   23570379.5204
  -6363828.94147  -4948403.68044  23095182.8524                   23095183.0164
 -19425546.01647 -15124953.99645  22673199.9384                   22673199.5704
 -12144930.83647  -9451814.87945  23600816.0864                   23600819.9384
 -16742015.23848 -13034995.15246  21414248.3444                   21414247.8794
 -19870990.48448 -15473290.08246  21294751.3674                   21294751.1604
  -7674030.13347  -5976855.34844  23521358.4614                   23521357.9494
 11  9 23  1 37  0.0000000  0  9G29G02G30G18G05G25G15G26G21
 -25700033.77348 -20016383.81647  20367137.6884                   20367137.3594
 -21099786.43747 -16416182.55544  23542760.2974                   23542759.0904
  -7245651.89146  -5635288.62544  23578541.7034                   23578543.6564
  -6451958.66447  -5017076.03944  23078412.2734                   23078412.3364
 -19362051.88747 -15075478.04345  22685282.5944                   22685282.1174
 -12084182.27347  -9404478.36744  23612375.9144                   23612380.1484
 -16827167.44948 -13101347.43746  21398043.9614                   21398043.6644
 -19908793.04348 -15502746.56246  21287557.8594                   21287557.5354
  -7756709.94147  -6041281.02744  23505624.6484                   23505623.7194
 11  9 23  1 37 30.0000000  0  9G29G02G30G18G05G25G15G26G21
 -25741878.63748 -20048990.17247  20359175.1724                   20359174.5824
 -21058301.69547 -16383856.79744  23550655.1174                   23550653.7814
  -7202478.01647  -5601646.64144  23586757.1484                   23586760.3754
  -6539830.85547  -5085547.73844  23061690.8914                   23061691.4654
 -19298457.47347 -15025923.95745  22697383.9844                   22697383.4654
 -12023334.26647  -9357064.37944  23623954.0164                   23623958.4884
 -16911870.41848 -13167349.67246  21381925.2734                   21381924.5314
 -19945917.00048 -15531674.27346  21280493.3984                   21280492.9534
  -7839416.29347  -6105727.40644  23489885.9384                   23489885.7894
 11  9 23  1 38  0.0000000  0  9G29G02G30G18G05G25G15G26G21
 -25783202.79748 -20081190.77747  20351311.5004                   20351310.6024
 -21016661.39547 -16351409.80544  23558578.4384                   23558576.7664
  -7159036.93747  -5567796.46144  23595023.8444                   23595026.6524
  -6627441.75447  -5153815.81644  23045018.9844                   23045019.5434
 -19234760.94147 -14976290.26245  22709504.9144                   22709504.5864
 -11962386.21947  -9309572.47344  23635552.6334                   23635557.1334
 -16996117.88747 -13232996.96546  21365893.7344                   21365892.4654
 -19982357.16448 -15560069.14846  21273558.8444                   21273558.9064
  -7922144.51646  -6170190.84044  23474143.4384                   23474143.2974
 11  9 23  1 38 30.0000000  0  9G29G02G30G18G05G25G15G26G21
 -25824007.60948 -20112986.71147  20343546.2504                   20343545.9304
 -20974868.21147 -16318843.67244  23566531.7424                   23566529.9574
  -7115334.55147  -5533742.63744  23603340.0704                   23603342.9414
  -6714793.64147  -5221882.06244  23028396.4844                   23028396.9844
 -19170966.75447 -14926580.49645  22721645.3594                   22721644.9144
 -11901343.87147  -9262007.01644  23647168.3834                   23647172.9224
 -17079909.74648 -13298289.22346  21349948.0314                   21349948.1764
 -20018115.09448 -15587932.41846  21266754.4064                   21266754.0164
  -8004897.84447  -6234673.83244  23458396.4144                   23458395.3094
 11  9 23  1 39  0.0000000  0  9G29G02G30G18G05G25G15G26G21
 -25864289.83648 -20144375.42247  20335881.0394                   20335880.1024
 -20932920.28547 -16286156.94944  23574513.9304                   23574512.5044
  -7071372.22346  -5499486.25044  23611705.4694                   23611708.5514
  -6801884.39847  -5289744.83644  23011823.3984                   23011823.7584
 -19107075.36747 -14876794.98845  22733803.0944                   22733802.4694
 -11840208.66447  -9214369.22344  23658801.7894                   23658807.3594
 -17163242.14847 -13363223.48046  21334090.6954                   21334090.9694
 -20053188.01248 -15615261.91446  21260079.8444                   21260080.1024
  -8087674.30947  -6299174.87144  23442643.8834                   23442643.0204
 11  9 23  1 39 30.0000000  0  9G29G02G30G18G05G25G15G26G21
 -25904047.57448 -20175355.45747  20328315.3834                   20328314.2664
 -20890816.62547 -16253348.86744  23582525.3914                   23582524.8954
  -7027152.54746  -5465029.31644  23620120.1254                   23620123.0784
  -6888713.21147  -5357403.48844  22995299.8834                   22995300.3714
 -19043088.05147 -14826934.72745  22745979.2894                   22745979.5354
 -11778983.00047  -9166660.95344  23670452.9614                   23670457.8094
 -17246111.82048 -13427797.18446  21318321.4924                   21318320.6914
 -20087573.97748 -15642056.12146  21253536.6644                   21253536.5204
  -8170473.00447  -6363693.23044  23426887.9534                   23426887.2074
 11  9 23  1 40  0.0000000  0  9G29G02G30G18G05G25G15G26G21
 -25943281.48448 -20205927.30547  20320849.5784                   20320848.5434
 -20848558.74247 -16220420.65644  23590567.1024                   23590566.5984
  -6982680.63747  -5430375.85244  23628582.0944                   23628586.4144
  -6975281.61347  -5424859.26244  22978826.7114                   22978827.1174
 -18979008.64847 -14777002.70345  22758173.0634                   22758172.8524
 -11717672.00447  -9118886.18044  23682119.8914                   23682125.5824
 -17328518.49647 -13492010.08646  21302639.7344                   21302639.0594
 -20121274.07048 -15668315.87146  21247124.0634                   21247124.0164
  -8253295.81247  -6428230.39544  23411127.1644                   23411126.9614
 11  9 23  1 40 30.0000000  0  9G29G02G30G18G05G25G15G26G21
 -25981991.76248 -20236091.12147  20313482.6254                   20313482.1214
 -20806147.96546 -16187373.31244  23598637.3444                   23598636.9614
  -6937961.05946  -5395529.40644  23637092.9694                   23637095.4494
  -7061590.79747  -5492113.01244  22962402.0784                   22962402.5314
 -18914840.68447 -14727001.65645  22770384.0084                   22770383.6174
 -11656280.18747  -9071048.42244  23693802.6954                   23693807.3874
 -17410461.19947 -13555861.46146  21287046.1414                   21287046.2384
 -20154288.53948 -15694041.35946  21240841.2734                   21240840.9804
  -8336144.05947  -6492787.40244  23395362.0864                   23395361.1994
 11  9 23  1 41  0.0000000  0  9G29G02G30G18G05G25G15G26G21
 -26020176.52048 -20265845.43747  20306216.8364                   20306215.8324
 -20763583.58647 -16154206.22744  23606737.2344                   23606735.9844
  -6892996.46947  -5360492.03944  23645649.8834                   23645652.1804
  -7147639.89847  -5559164.10544  22946027.8754                   22946027.7854
 -18850585.21547 -14676932.45345  22782611.1024                   22782610.8404
 -11594810.02047  -9023149.61344  23705500.3754                   23705505.1724
 -17491936.51247 -13619348.64546  21271542.1024                   21271540.9224
 -20186615.97348 -15719231.49246  21234689.4844                   21234689.2734
  -8419016.80946  -6557363.48844  23379591.0784                   23379590.3014
 11  9 23  1 41 30.0000000  0  9G29G02G30G18G05G25G15G26G21
 -26057832.89548 -20295188.03147  20299051.0164                   20299050.0434
 -20720863.44547 -16120917.77344  23614866.9144                   23614865.3954
  -6847788.27747  -5325264.84844  23654252.8204                   23654255.0234
  -7233427.07047  -5626011.09844  22929702.8594                   22929703.4734
 -18786242.48447 -14626795.24245  22794854.8984                   22794854.6024
 -11533262.86747  -8975190.82444  23717212.1724                   23717216.7504
 -17572940.85248 -13682468.83646  21256127.3134                   21256126.8674
 -20218253.55148 -15743884.09046  21228668.9534                   21228668.4654
  -8501912.18047  -6621957.22344  23363816.2584                   23363815.3984
 11  9 23  1 42  0.0000000  0  9G29G02G30G18G05G25G15G26G21
 -26094960.60548 -20324118.68047  20291985.8834                   20291984.8714
 -20677988.43447 -16087508.65644  23623026.0164                   23623023.4924
  -6802340.84847  -5289851.25044  23662900.9064                   23662902.7974
  -7318953.18047  -5692654.67244  22913427.7424                   22913427.8014
 -18721815.14547 -14576592.08645  22807115.2274                   22807115.0784
 -11471643.05547  -8927175.39144  23728938.3594                   23728942.7584
 -17653472.84448 -13745220.96146  21240802.5634                   21240801.8554
 -20249201.31648 -15767999.16846  21222779.7584                   21222778.8794
  -8584831.28547  -6686569.44944  23348037.9224                   23348037.0864
 11  9 23  1 42 30.0000000  0  9G29G02G30G18G05G25G15G26G21
 -26131555.39148 -20352634.05947  20285021.9844                   20285021.0744
 -20634955.26247 -16053976.31644  23631215.0474                   23631212.8794
  -6756654.34447  -5254251.34844  23671594.5944                   23671597.0274
  -7404215.18747  -5759092.46544  22897202.7344                   22897202.4884
 -18657302.79347 -14526322.70745  22819391.4924                   22819391.5664
 -11409950.50847  -8879103.28544  23740678.0784                   23740683.4774
 -17733526.90648 -13807600.66846  21225568.6564                   21225568.1214
 -20279455.65648 -15791573.91046  21217022.7664                   21217022.4804
  -8667770.55947  -6751197.39144  23332255.1484                   23332254.8834
 11  9 23  1 43  0.0000000  0  9G29G02G30G18G05G25G15G26G21
 -26167618.07848 -20380734.80547  20278159.2114                   20278158.4144
 -20591765.69146 -16020322.04744  23639433.4694                   23639431.4614
  -6710733.83246  -5218469.14144  23680332.7114                   23680335.1524
  -7489214.40247  -5825325.47744  22881028.2274                   22881027.6254
 -18592709.18047 -14475989.99245  22831683.4614                   22831682.7854
 -11348190.27347  -8830978.41844  23752430.1644                   23752435.0274
 -17813102.76248 -13869607.75446  21210425.8364                   21210425.1374
 -20309017.59848 -15814609.13346  21211396.9924                   21211396.9104
  -8750731.77747  -6815842.42245  23316467.7194                   23316468.0474
 11  9 23  1 43 30.0000000  0  9G29G02G30G18G05G25G15G26G21
 -26203146.82848 -20408419.52047  20271398.4694                   20271397.1994
 -20548418.81647 -15986545.22344  23647681.6954                   23647680.5124
  -6664582.11747  -5182506.73844  23689115.3594                   23689117.5234
  -7573950.68746  -5891353.60244  22864903.0234                   22864902.8714
 -18528035.40647 -14425594.83645  22843990.7424                   22843989.9774
 -11286365.09447  -8782802.96944  23764195.2734                   23764200.0004
 -17892197.70348 -13931240.09846  21195374.5634                   21195374.1214
 -20337885.71948 -15837103.71946  21205903.8834                   21205903.0234
  -8833714.40647  -6880504.12944  23300676.8524                   23300676.0904
 11  9 23  1 44  0.0000000  0  9G29G02G30G18G05G25G15G26G21
 -26238141.00448 -20435687.66447  20264739.2974                   20264738.6954
 -20504914.98846 -15952646.08244  23655960.2814                   23655959.3054
  -6618202.66847  -5146366.87144  23697941.5634                   23697943.3554
  -7658423.84846  -5957176.71144  22848827.6724                   22848828.5824
 -18463283.60547 -14375138.85545  22856312.2424                   22856311.9184
 -11224478.24246  -8734579.44944  23775971.4144                   23775974.9224
 -17970809.71548 -13992496.13746  21180415.5004                   21180414.4064
 -20366059.56248 -15859057.29746  21200542.3204                   21200541.8364
  -8916718.48447  -6945182.55945  23284881.8834                   23284881.2814
 11  9 23  1 44 30.0000000  0  9G29G02G30G18G05G25G15G26G21
 -26272600.14148 -20462538.89847  20258181.7974                   20258180.9574
 -20461254.96946 -15918625.27344  23664268.3754                   23664267.3554
  -6571599.72347  -5110052.85544  23706809.3914                   23706812.0434
  -7742634.57847  -6022795.31644  22832803.1334                   22832803.4224
 -18398457.00447 -14324624.62145  22868648.5164                   22868648.0204
 -11162533.88347  -8686311.09444  23787759.7034                   23787763.3484
 -18048937.64148 -14053374.96546  21165548.0004                   21165546.8094
 -20393539.40248 -15880470.10246  21195312.7734                   21195312.7274
  -8999744.58247  -7009878.13745  23269081.6414                   23269081.3204
 11  9 23  1 45  0.0000000  0  9G29G02G30G18G05G25G15G26G21
 -26306523.48848 -20488972.63747  20251726.6564                   20251725.5904
 -20417438.62547 -15884482.60544  23672606.7974                   23672604.8524
  -6524776.54347  -5073567.21944  23715719.7664                   23715721.9384
  -7826583.11347  -6088209.60244  22816828.3674                   22816827.6804
 -18333557.44947 -14274053.53945  22880998.7344                   22880997.5474
 -11100535.09447  -8638000.38744  23799557.4614                   23799562.8164
 -18126579.26648 -14113874.86746  21150773.1484                   21150772.3284
 -20420324.75848 -15901341.74246  21190215.5634                   21190215.0434
  -9082792.70347  -7074590.88344  23253278.9144                   23253278.3914
 11  9 23  1 45 30.0000000  0  9G29G02G30G18G05G25G15G26G21
 -26339910.35548 -20514988.32847  20245372.9384                   20245372.2734
 -20373465.77747 -15850218.02044  23680974.2274                   23680972.6094
  -6477736.67647  -5036912.73044  23724671.4454                   23724673.2544
  -7910269.60247  -6153419.72344  22800902.7034                   22800902.6334
 -18268586.55147 -14223426.84845  22893361.5634                   22893361.1374
 -11038485.34047  -8589649.87544  23811365.4774                   23811370.6644
 -18203732.56648 -14173994.25846  21136091.2814                   21136090.3014
 -20446415.22748 -15921671.92646  21185251.0634                   21185250.4264
  -9165863.00047  -7139320.88745  23237471.3524                   23237469.9264
 11  9 23  1 46  0.0000000  0  9G29G02G30G18G05G25G15G26G21
 -26372759.91848 -20540585.35247  20239122.1644                   20239121.2274
 -20329336.59847 -15815831.61743  23689371.9694                   23689369.2934
  -6430483.58647  -5000092.08643  23733662.4774                   23733664.8714
  -7993693.97747  -6218425.59044  22785027.7194                   22785027.5084
 -18203546.79347 -14172746.51645  22905738.6024                   22905738.3984
 -10976387.82047  -8541262.22744  23823181.5864                   23823186.8284
 -18280395.52048 -14233731.54746  21121502.6884                   21121501.9734
 -20471810.01248 -15941460.02046  21180418.5634                   21180418.1884
  -9248955.50847  -7204068.20745  23221659.3444                   23221658.0394
 11  9 23  1 46 30.0000000  0  9G29G02G30G18G05G25G15G26G21
 -26405072.25848 -20565763.75447  20232973.0234                   20232972.2854
 -20285052.43046 -15781324.44943  23697798.8054                   23697795.9924
  -6383021.79747  -4963108.82843  23742694.8754                   23742696.5004
  -8076857.52747  -6283228.19544  22769201.8754                   22769202.1604
 -18138441.19947 -14122014.87945  22918127.4144                   22918127.1174
 -10914247.00846  -8492840.80944  23835008.1334                   23835011.8444
 -18356567.35948 -14293086.15646  21107007.7274                   21107006.6914
 -20496510.30548 -15960706.95746  21175718.1954                   21175717.8014
  -9332071.15647  -7268833.52045  23205842.4454                   23205841.6094
 11  9 23  1 47  0.0000000  0  9G29G02G30G18G05G25G15G26G21
 -26436839.96548 -20590517.77347  20226927.8524                   20226926.7544
 -20240606.64546 -15746691.29743  23706255.7974                   23706253.9344
  -6335348.29347  -4925960.63343  23751766.3054                   23751768.1604
  -8159753.89147  -6347822.62944  22753427.4614                   22753427.1914
 -18073265.40647 -14071228.53945  22930530.3444                   22930529.7274
 -10852059.63747  -8444383.09444  23846841.1564                   23846845.2584
 -18432239.71548 -14352051.54346  21092607.4064                   21092606.8014
 -20520509.07447 -15979407.24246  21171150.9774                   21171150.6524
  -9415203.31247  -7333611.73845  23190023.0084                   23190021.7034
 11  9 23  1 47 30.0000000  0  9G29G02G30G18G05G25G15G26G21
 -26468069.22748 -20614852.21947  20220985.2274                   20220984.1024
 -20196006.21946 -15711937.68043  23714743.5474                   23714741.3134
  -6287473.29747  -4888655.39144  23760876.1884                   23760877.7384
  -8242389.93047  -6412214.22344  22737702.5944                   22737701.8164
 -18008028.42247 -14020394.52345  22942943.9384                   22942944.0234
 -10789835.89847  -8395897.06644  23858682.0084                   23858685.9534
 -18507417.32448 -14410631.42246  21078301.6564                   21078300.8444
 -20543812.87547 -15997566.00446  21166716.6644                   21166715.9574
  -9498358.85547  -7398408.13344  23174199.0474                   23174197.7934
 11  9 23  1 48  0.0000000  0  9G29G02G30G18G05G25G15G26G21
 -26498757.60948 -20638765.20347  20215145.4694                   20215144.2074
 -20151249.27747 -15677062.12943  23723260.9304                   23723258.9454
  -6239398.46147  -4851194.45743  23770025.3134                   23770027.8164
  -8324764.18047  -6476401.79344  22722026.9384                   22722026.1564
 -17942730.31247 -13969512.87145  22955370.0784                   22955369.3554
 -10727577.18047  -8347383.77344  23870529.2974                   23870534.6684
 -18582096.47748 -14468822.89546  21064090.9304                   21064090.0554
 -20566419.76248 -16015181.71946  21162414.4694                   21162414.0004
  -9581535.78547  -7463221.22744  23158370.1564                   23158369.6454
 11  9 23  1 48 30.0000000  0  9G29G02G30G18G05G25G15G26G21
 -26528905.03148 -20662256.66847  20209408.5784                   20209407.4844
 -20106336.32446 -15642065.03544  23731807.5864                   23731805.2974
  -6191127.88346  -4813580.97744  23779210.5004                   23779212.2074
  -8406877.11347  -6540385.77044  22706401.1724                   22706400.6684
 -17877373.69547 -13918585.62545  22967806.9614                   22967806.5084
 -10665287.41046  -8298846.27744  23882382.5314                   23882387.5594
 -18656276.11748 -14526625.13346  21049974.7504                   21049973.7274
 -20588329.75447 -16032254.37946  21158245.1414                   21158244.8284
  -9664734.84047  -7528051.54344  23142538.4144                   23142537.4734
 11  9 23  1 49  0.0000000  0  9G29G02G30G18G05G25G15G26G21
 -26558506.11747 -20685322.40647  20203775.6094                   20203774.7974
 -20061263.31646 -15606943.16444  23740384.5084                   23740383.0704
  -6142660.87146  -4775814.44943  23788432.8134                   23788434.9304
  -8488725.08646  -6604163.27044  22690826.1884                   22690825.6454
 -17811956.33647 -13867611.03545  22980255.2814                   22980255.2974
 -10602965.62146  -8250283.85244  23894242.1094                   23894246.3404
 -18729950.15647 -14584033.39846  21035955.4144                   21035954.0044
 -20609538.59447 -16048780.70346  21154209.3364                   21154208.9454
  -9747951.40246  -7592895.49244  23126702.9064                   23126701.6994
 11  9 23  1 49 30.0000000  0  9G29G02G30G18G05G25G15G26G21
 -26587564.73048 -20707965.44147  20198245.8524                   20198244.6484
 -20016034.81646 -15571700.11343  23748990.3284                   23748989.5234
  -6094005.21946  -4737900.92643  23797692.4144                   23797694.8444
  -8570311.79346  -6667737.19944  22675300.4144                   22675300.2464
 -17746484.75447 -13816594.21945  22992714.1414                   22992714.0234
 -10540619.46146  -8201702.44944  23906106.0554                   23906110.7934
 -18803120.71948 -14641049.35546  21022030.8594                   21022030.1884
 -20630050.56248 -16064764.00046  21150305.9304                   21150305.4964
  -9831190.03147  -7657756.66044  23110862.5634                   23110861.1214
 11  9 23  1 50  0.0000000  0  9G29G02G30G18G05G25G15G26G21
 -26616076.80948 -20730182.60947  20192820.0164                   20192819.8874
 -19970647.38746 -15536333.25443  23757626.6724                   23757626.3874
  -6045161.00046  -4699840.47343  23806987.2504                   23806988.2464
  -8651635.03947  -6731105.83644  22659825.1564                   22659825.0234
 -17680957.44547 -13765533.96945  23005183.8754                   23005182.7854
 -10478248.93447  -8153102.03144  23917974.7734                   23917979.7384
 -18875782.89148 -14697669.15646  21008203.6484                   21008203.2234
 -20649862.16448 -16080201.56646  21146536.1564                   21146535.6804
  -9914447.35947  -7722632.37945  23095019.1884                   23095017.9804
 11  9 23  1 50 30.0000000  0  9G29G02G30G18G05G25G15G26G21
 -26644040.68448 -20751972.60547  20187499.0474                   20187497.8284
 -19925099.57046 -15500841.41443  23766293.8594                   23766293.6024
  -5996130.11746  -4661634.53143  23816316.7974                   23816319.5664
  -8732693.23447  -6794267.91845  22644400.4064                   22644399.6374
 -17615374.79747 -13714430.58645  23017663.8594                   23017663.1134
 -10415855.52347  -8104483.78144  23929847.5004                   23929853.2194
 -18947933.24648 -14753890.13346  20994474.1954                   20994473.0984
 -20668971.54748 -16095091.95746  21142899.5474                   21142898.9574
  -9997721.98047  -7787521.56245  23079172.0864                   23079172.0944
 11  9 23  1 51  0.0000000  0  9G29G02G30G18G05G25G15G26G21
 -26671457.48848 -20773336.32047  20182281.1884                   20182280.1524
 -19879393.79346 -15465226.55143  23774992.7584                   23774990.8714
  -5946918.23046  -4623287.61343  23825681.7894                   23825684.4304
  -8813488.50447  -6857225.14144  22629025.3524                   22629024.2384
 -17549741.48447 -13663287.73445  23030153.2814                   23030152.6884
 -10353444.87946  -8055852.13744  23941724.4614                   23941728.6954
 -19019572.05948 -14809712.50446  20980841.6484                   20980840.5394
 -20687381.24648 -16109437.12546  21139396.4774                   21139395.6524
 -10081015.50447  -7852425.47744  23063322.4694                   23063321.3914
 11  9 23  1 51 30.0000000  0  9G29G02G30G18G05G25G15G26G21
 -26698326.36348 -20794273.06647  20177168.6174                   20177167.6644
 -19833529.87546 -15429488.40644  23783720.3524                   23783718.9654
  -5897528.70746  -4584802.25444  23835080.8594                   23835082.9224
  -8894020.91047  -6919977.55144  22613700.4144                   22613699.8094
 -17484058.79347 -13612106.43045  23042652.2274                   23042651.6724
 -10291020.07447  -8007209.40644  23953603.6724                   23953607.6724
 -19090697.78548 -14865135.07846  20967307.0004                   20967305.5634
 -20705090.80548 -16123236.72346  21136026.0314                   21136025.2734
 -10164327.79347  -7917344.02745  23047468.2274                   23047466.4024
 11  9 23  1 52  0.0000000  0  9G29G02G30G18G05G25G15G26G21
 -26724644.61348 -20814780.75847  20172160.4774                   20172159.1764
 -19787505.66447 -15393625.31244  23792478.5634                   23792477.1684
  -5847962.46146  -4546179.20744  23844513.2344                   23844514.9144
  -8974288.31647  -6982523.43445  22598425.8834                   22598424.9494
 -17418326.41047 -13560886.37545  23055161.0474                   23055159.6454
 -10228581.85947  -7958556.22744  23965485.0394                   23965489.4064
 -19161306.16448 -14920154.52046  20953870.4064                   20953869.4144
 -20722097.81248 -16136488.88346  21132789.7504                   21132789.5004
 -10247656.42247  -7982275.30145  23031611.3914                   23031609.3834
 11  9 23  1 52 30.0000000  0  9G29G02G30G18G05G25G15G26G21
 -26750411.92648 -20834859.15247  20167257.0634                   20167256.0314
 -19741321.26247 -15357637.41044  23801266.9454                   23801265.4924
  -5798223.51246  -4507421.59444  23853977.3984                   23853980.1994
  -9054291.56247  -7044863.47745  22583201.7424                   22583200.7234
 -17352546.77747 -13509629.52045  23067678.3364                   23067678.0354
 -10166133.92247  -7909895.41044  23977368.9534                   23977371.8984
 -19231395.77348 -14974769.73846  20940532.9924                   20940531.4924
 -20738402.93748 -16149194.11746  21129686.9924                   21129686.6684
 -10331001.52047  -8047219.40245  23015751.2114                   23015750.4024
 11  9 23  1 53  0.0000000  0  9G29G02G30G18G05G25G15G26G21
 -26775627.26248 -20854507.43447  20162458.4454                   20162457.2544
 -19694976.63747 -15321524.66044  23810086.2274                   23810084.4064
  -5748314.89546  -4468531.77743  23863475.0784                   23863477.0984
  -9134030.32447  -7106997.45345  22568027.9224                   22568026.7734
 -17286721.16047 -13458336.83245  23080205.0634                   23080203.8834
 -10103679.00447  -7861229.23844  23989253.2584                   23989257.2304
 -19300964.44548 -15028979.02746  20927294.2344                   20927293.0124
 -20754005.69148 -16161352.05546  21126717.5864                   21126716.9884
 -10414362.81247  -8112176.12145  22999888.2504                   22999886.9774
 11  9 23  1 53 30.0000000  0  9G29G02G30G18G05G25G15G26G21
 -26800291.41448 -20873726.21947  20157765.0164                   20157764.0204
 -19648472.82047 -15285287.86744  23818935.3524                   23818933.2544
  -5698240.91446  -4429513.08643  23873003.0084                   23873006.1764
  -9213505.87147  -7168926.30945  22552903.7504                   22552903.3834
 -17220852.53946 -13407010.61745  23092738.8284                   23092738.5204
 -10041221.34447  -7812560.87944  24001138.3134                   24001143.0944
 -19370011.47348 -15082781.83246  20914154.8524                   20914153.9654
 -20768907.20748 -16172963.56246  21123882.0784                   21123881.4344
 -10497741.03547  -8177146.05945  22984021.5554                   22984020.0634
 11  9 23  1 54  0.0000000  0  9G29G02G30G18G05G25G15G26G21
 -26824405.27048 -20892516.20747  20153176.3834                   20153175.3134
 -19601811.62147 -15248928.46944  23827815.1414                   23827813.2814
  -5648006.89846  -4390369.66443  23882562.6414                   23882565.1994
  -9292720.04747  -7230651.49645  22537829.7344                   22537829.0274
 -17154944.88347 -13355654.01645  23105280.4304                   23105280.2074
  -9978765.87947  -7763894.23444  24013022.9774                   24013026.5984
 -19438537.14548 -15136178.38746  20901114.8674                   20901113.7974
 -20783109.35248 -16184030.11746  21121179.7194                   21121178.4344
 -10581137.44947  -8242130.16845  22968151.9384                   22968149.9734
 11  9 23  1 54 30.0000000  0  9G29G02G30G18G05G25G15G26G21
 -26847966.44148 -20910875.53147  20148692.9304                   20148691.4884
 -19554990.98047 -15212444.86044  23836724.4384                   23836723.2344
  -5597614.21947  -4351102.63744  23892152.3134                   23892154.5594
  -9371671.19547  -7292171.72744  22522805.6174                   22522804.6134
 -17088997.61746 -13304266.55545  23117829.9774                   23117829.7114
  -9916313.74246  -7715230.20743  24024907.2194                   24024911.6054
 -19506537.47348 -15189165.59446  20888174.5704                   20888173.4884
 -20796610.08648 -16194550.12546  21118610.5784                   21118609.3284
 -10664550.52747  -8307127.25845  22952278.4064                   22952277.1334
 11  9 23  1 55  0.0000000  0  9G29G02G30G18G05G25G15G26G21
 -26870974.77748 -20928804.06647  20144314.5634                   20144313.7424
 -19508011.69946 -15175837.55943  23845663.7894                   23845663.7704
  -5547066.65647  -4311714.93044  23901771.0004                   23901773.1844
  -9450360.06247  -7353487.59044  22507831.7664                   22507830.7504
 -17023013.32846 -13252850.20345  23130387.1174                   23130384.6724
  -9853868.52747  -7666571.56643  24036790.2114                   24036794.0904
 -19574011.30948 -15241742.54746  20875334.7584                   20875334.1374
 -20809410.21148 -16204524.20346  21116174.4694                   21116174.0124
 -10747979.96547  -8372137.10944  22936402.6804                   22936400.8204
 11  9 23  1 55 30.0000000  0  9G29G02G30G18G05G25G15G26G21
 -26893431.23448 -20946302.57447  20140041.0704                   20140039.7894
 -19460875.01646 -15139107.60943  23854634.2974                   23854632.3164
  -5496369.10247  -4272210.36343  23911418.9844                   23911421.0864
  -9528788.24247  -7414600.32045  22492907.1954                   22492906.2384
 -16956995.17247 -13201407.50445  23142949.5234                   23142948.6884
  -9791434.87546  -7617921.92643  24048670.3204                   24048674.1884
 -19640958.12548 -15293908.83246  20862595.3524                   20862594.2934
 -20821511.46548 -16213953.69146  21113871.7894                   21113870.9064
 -10831426.57047  -8437160.33245  22920522.7114                   22920521.3444
 11  9 23  1 56  0.0000000  0  9G29G02G30G18G05G25G15G26G21
 -26915332.97748 -20963368.82447  20135873.0234                   20135872.4064
 -19413578.81646 -15102253.37943  23863634.1174                   23863632.9774
  -5445522.52047  -4232589.62144  23921094.7504                   23921096.4184
  -9606953.46547  -7475508.16845  22478032.4304                   22478031.4534
 -16890942.48047 -13149937.89544  23155518.5944                   23155517.5204
  -9729013.55546  -7569281.82843  24060549.2424                   24060554.5044
 -19707374.46948 -15345661.75446  20849956.4614                   20849955.0594
 -20832911.47748 -16222836.76646  21111702.5004                   21111701.1914
 -10914888.10947  -8502195.21545  22904640.8204                   22904638.4064
 11  9 23  1 56 30.0000000  0  9G29G02G30G18G05G25G15G26G21
 -26936676.94948 -20980000.46147  20131811.6724                   20131810.5744
 -19366120.31646 -15065272.72343  23872665.2584                   23872663.4494
  -5394527.65647  -4192853.35244  23930798.3364                   23930801.0594
  -9684853.35947  -7536209.25445  22463208.8754                   22463208.1994
 -16824854.39847 -13098440.69945  23168094.9774                   23168093.9064
  -9666604.80546  -7520651.64843  24072423.8754                   24072430.7234
 -19773256.32048 -15396998.19946  20837419.8134                   20837418.3634
 -20843607.78948 -16231171.50046  21109666.7344                   21109666.2934
 -10998361.64847  -8567239.42245  22888756.2114                   22888754.6604
 11  9 23  1 57  0.0000000  0  9G29G02G30G18G05G25G15G26G21
 -26957466.66448 -20996200.19947  20127855.4694                   20127854.3834
 -19318503.55146 -15028168.68443  23881726.1884                   23881725.5124
  -5343391.99646  -4153007.32444  23940528.8754                   23940531.9304
  -9762492.29747  -7596706.98845  22448434.6094                   22448433.6644
 -16758736.97347 -13046920.60244  23180676.7814                   23180675.6804
  -9604215.95346  -7472036.94943  24084297.2114                   24084301.7194
 -19838605.28948 -15447919.41846  20824984.1884                   20824982.9414
 -20853604.92248 -16238961.44146  21107764.3834                   21107763.2774
 -11081850.82447  -8632295.83245  22872868.7664                   22872867.5984
 11  9 23  1 57 30.0000000  0  9G29G02G30G18G05G25G15G26G21
 -26977700.76248 -21011967.00447  20124004.9774                   20124004.1844
 -19270728.09046 -14990941.04743  23890817.4224                   23890815.6564
  -5292118.12947  -4113053.62944  23950285.9774                   23950288.2774
  -9839869.63747  -7657000.90245  22433709.9454                   22433708.8634
 -16692591.06247 -12995378.33645  23193263.9454                   23193263.3984
  -9541849.30947  -7423439.53944  24096165.6644                   24096168.9064
 -19903419.17648 -15498423.67646  20812650.2664                   20812649.0744
 -20862902.41848 -16246206.20746  21105994.9614                   21105994.0984
 -11165354.99247  -8697363.93445  22856978.1254                   22856976.4924
 11  9 23  1 58  0.0000000  0  9G29G02G30G18G05G25G15G26G21
 -26997379.50048 -21027301.04747  20120260.3364                   20120258.8984
 -19222794.09046 -14953589.80943  23899938.7974                   23899937.2664
  -5240709.67246  -4072995.05144  23960068.7344                   23960070.0204
  -9916986.19947  -7717091.62145  22419035.2894                   22419034.0784
 -16626418.67247 -12943815.44544  23205855.7424                   23205855.5394
  -9479508.29347  -7374862.09044  24108029.1884                   24108033.6604
 -19967696.91448 -15548510.15646  20800418.8134                   20800417.4454
 -20871500.82848 -16252906.23046  21104359.1254                   21104358.5554
 -11248873.92247  -8762443.52745  22841085.4144                   22841083.2154
 11  9 23  1 58 30.0000000  0  9G29G02G30G18G05G25G15G26G21
 -27016500.37548 -21042200.39847  20116621.4534                   20116620.6254
 -19174699.53147 -14916113.50444  23909090.7814                   23909089.9024
  -5189167.82446  -4032832.59043  23969877.1024                   23969879.1954
  -9993839.81647  -7776977.44145  22404410.0864                   22404409.6524
 -16560219.42246 -12892231.59844  23218452.7274                   23218452.6844
  -9417193.71947  -7326305.24644  24119887.1174                   24119890.8404
 -20031434.55948 -15598175.79746  20788289.7034                   20788288.7624
 -20879398.37548 -16259060.11746  21102855.4534                   21102854.4024
 -11332405.39547  -8827532.89545  22825189.2734                   22825188.1804
 11  9 23  1 59  0.0000000  0  9G29G02G30G18G05G25G15G26G21
 -27035060.66048 -21056662.92247  20113089.5944                   20113088.5474
 -19126441.91047 -14878510.10544  23918274.6484                   23918272.9024
  -5137493.52047  -3992566.86343  23979710.8134                   23979712.7464
 -10070428.27347  -7836656.64845  22389836.4924                   22389834.7814
 -16493992.69947 -12840626.37144  23231055.4534                   23231055.4494
  -9354906.27047  -7277769.51244  24131739.0394                   24131743.5704
 -20094628.32048 -15647417.62946  20776264.4774                   20776263.2194
 -20886593.17648 -16264666.42246  21101487.1484                   21101485.7274
 -11415946.06247  -8892629.43745  22809292.1884                   22809290.6844
 11  9 23  1 59 30.0000000  0  9G29G02G30G18G05G25G15G26G21
 -27053064.50048 -21070691.86347  20109663.5234                   20109662.7704
 -19078026.14147 -14840783.50844  23927487.5704                   23927486.7194
  -5085694.89547  -3952204.25043  23989566.6804                   23989569.6174
 -10146757.11347  -7896133.55945  22375310.7194                   22375309.5664
 -16427745.17247 -12789004.90244  23243661.9534                   23243661.2074
  -9292653.75847  -7229261.04344  24143585.4614                   24143590.6334
 -20157281.53948 -15696238.25046  20764341.4384                   20764340.3674
 -20893090.22748 -16269729.02046  21100250.5004                   21100249.4734
 -11499500.65647  -8957736.82445  22793391.9774                   22793390.6644
 11  9 23  2  0  0.0000000  0  9G29G02G30G18G05G25G15G26G21
 -27070510.11348 -21084285.81247  20106343.5784                   20106342.5704
 -19029450.98847 -14802932.73043  23936731.1254                   23936729.5744
  -5033773.86747  -3911746.29743  23999447.3134                   23999448.7194
 -10222824.76247  -7955406.93745  22360836.0554                   22360834.4104
 -16361476.68447 -12737367.10244  23256272.9614                   23256271.6954
  -9230437.76247  -7180781.03944  24155425.1094                   24155428.6454
 -20219391.30948 -15744635.41446  20752522.6174                   20752521.4104
 -20898888.73448 -16274247.29346  21099147.1804                   21099145.8094
 -11583067.19547  -9022853.55145  22777489.5314                   22777488.0234
 11  9 23  2  0 30.0000000  0  9G29G02G30G18G05G25G15G26G21
 -27087397.31248 -21097444.64547  20103130.0234                   20103129.0394
 -18980716.17347 -14764957.49643  23946004.3754                   23946001.7664
  -4981733.59047  -3871195.40243  24009350.3754                   24009353.2544
 -10298631.27047  -8014476.84045  22346410.2974                   22346408.8874
 -16295188.75847 -12685714.18045  23268887.2344                   23268886.2274
  -9168261.10947  -7132331.69144  24167256.8054                   24167261.4344
 -20280955.69948 -15792607.60946  20740807.1804                   20740806.1024
 -20903989.00448 -16278221.48046  21098175.9924                   21098175.7274
 -11666645.59447  -9087979.49245  22761585.3914                   22761583.7664
 11  9 23  2  1  0.0000000  0  9G29G02G30G18G05G25G15G26G21
 -27103724.44948 -21110167.05547  20100023.4614                   20100022.2154
 -18931820.91546 -14726857.09842  23955308.2274                   23955306.9574
  -4929576.32847  -3830553.34043  24019275.6724                   24019277.7034
 -10374175.88747  -8073342.68445  22332034.7734                   22332033.4494
 -16228882.05947 -12634046.60944  23281504.1334                   23281503.9964
  -9106125.70747  -7083914.48444  24179080.0704                   24179085.5664
 -20341972.09848 -15840152.79346  20729196.3054                   20729194.7074
 -20908390.41448 -16281651.12545  21097338.5944                   21097337.8634
 -11750233.96147  -9153113.23045  22745679.2974                   22745677.2584
 11  9 23  2  1 30.0000000  0  9G29G02G30G18G05G25G15G26G21
 -27119493.76248 -21122454.80947  20097022.1724                   20097021.2704
 -18882767.50046 -14688633.67642  23964642.9384                   23964640.4184
  -4877307.78946  -3789824.54343  24029221.2734                   24029223.4494
 -10449461.41447  -8132006.62545  22317708.2424                   22317706.6454
 -16162561.02747 -12582367.86745  23294125.3364                   23294125.3794
  -9044037.09047  -7035533.70344  24190896.0864                   24190901.6644
 -20402441.82848 -15887272.00846  20717689.3444                   20717687.8094
 -20912095.94148 -16284538.52046  21096633.2194                   21096632.3094
 -11833834.12547  -9218256.14545  22729770.3204                   22729767.9534
 11  9 23  2  2  0.0000000  0  9G29G02G30G18G05G25G15G26G21
 -27134702.92648 -21134306.06647  20094128.2504                   20094127.3284
 -18833553.85246 -14650285.30542  23974007.8984                   23974006.6024
  -4824929.12146  -3749009.98443  24039189.3284                   24039191.2814
 -10524485.85947  -8190467.12945  22303431.5784                   22303429.6524
 -16096224.75847 -12530677.25844  23306747.9774                   23306748.3244
  -8981995.96547  -6987189.93744  24202701.6884                   24202706.5234
 -20462361.09048 -15933962.28946  20706286.6644                   20706285.4264
 -20915104.03548 -16286882.44946  21096061.3444                   21096060.6294
 -11917443.61747  -9283406.32445  22713859.7974                   22713858.1484
 11  9 23  2  2 30.0000000  0  9G29G02G30G18G05G25G15G26G21
 -27149351.16848 -21145720.26247  20091340.7344                   20091339.7194
 -18784179.56647 -14611811.88343  23983405.0784                   23983402.5164
  -4772443.41446  -3708111.96143  24049176.3594                   24049178.8954
 -10599249.36347  -8248724.31245  22289204.0084                   22289202.8134
 -16029874.68047 -12478975.88345  23319375.0234                   23319374.7504
  -8920005.03546  -6938885.28943  24214498.1564                   24214502.0514
 -20521728.16848 -15980222.28946  20694989.8054                   20694988.3404
 -20917414.96548 -16288683.14146  21095621.3204                   21095620.5704
 -12001061.90647  -9348563.35945  22697947.6804                   22697946.1994
 11  9 23  2  3  0.0000000  0  9G29G02G30G18G05G25G15G26G21
 -27163439.34848 -21156698.04347  20088660.1254                   20088658.7894
 -18734646.14847 -14573214.36343  23992830.3674                   23992828.4454
  -4719854.74647  -3667133.84843  24059185.0944                   24059185.5514
 -10673753.03546  -8306779.02045  22275026.2034                   22275024.9574
 -15963513.28947 -12427265.71145  23332003.4064                   23332002.5634
  -8858068.16046  -6890622.78543  24226283.2814                   24226288.7734
 -20580542.68048 -16026051.72746  20683797.6484                   20683796.3914
 -20919030.59448 -16289942.03146  21095314.2034                   21095312.7034
 -12084689.56247  -9413727.68745  22682034.0704                   22682032.0864
 11  9 23  2  3 30.0000000  0  9G29G02G30G18G05G25G15G26G21
 -25601544.92248 -19939637.42647  20385878.3914                   20385877.7304
 -17109532.69947 -13306892.18444  24302079.3674                   24302077.1054
  -3091746.30946  -2398477.88743  24369001.9454                   24369004.0824
  -9172572.95347  -7137028.21945  22560690.9384                   22560690.0664
 -14321722.52747 -11147948.19545  23644425.0474                   23644424.5204
  -7220768.43046  -5614804.79344  24537852.1884                   24537856.8054
 -19063379.17248 -14843846.33246  20972504.2504                   20972502.8524
 -19344529.25848 -15063057.82446  21394931.2504                   21394930.3714
 -10592901.34847  -8251295.23045  22965912.1724                   22965910.0944
 11  9 23  2  4  0.0000000  0  9G29G02G30G18G05G25G15G26G21
 -25614509.94548 -19949740.02047  20383411.3594                   20383409.8444
 -17059677.89847 -13268044.30544  24311566.7584                   24311564.3404
  -3038959.07846  -2357344.91843  24379046.6094                   24379049.1804
  -9246555.40647  -7194676.78945  22546613.0634                   22546611.4844
 -14255340.58647 -11096222.01245  23657057.2814                   23657055.8714
  -7158945.85246  -5566631.39143  24549616.4064                   24549621.1214
 -19121081.62548 -14888809.23446  20961523.7734                   20961522.1994
 -19344753.12948 -15063232.23046  21394888.8914                   21394887.9804
 -10676543.61747  -8316470.94145  22949995.1024                   22949993.1684
 11  9 23  2  4 30.0000000  0  9G29G02G30G18G05G25G15G26G21
 -25626914.34848 -19959405.76247  20381050.8204                   20381049.5124
 -17009663.82447 -13229072.28145  24321084.0784                   24321082.6334
  -2986078.60946  -2316139.34043  24389110.0784                   24389112.3794
  -9320278.27747  -7252123.07845  22532584.4844                   22532582.7344
 -14188951.86747 -11044490.53545  23669690.3754                   23669689.4304
  -7097186.04346  -5518506.81243  24561368.1724                   24561374.2584
 -19178227.27748 -14933338.26246  20950649.2424                   20950648.0944
 -19344283.43448 -15062866.19946  21394978.2114                   21394977.2734
 -10760193.48447  -8381652.55145  22934077.1724                   22934075.6054
 11  9 23  2  5  0.0000000  0  9G29G02G30G18G05G25G15G26G21
 -25638754.77048 -19968632.03147  20378797.6564                   20378796.3364
 -16959487.60246 -13189973.90644  24330631.8674                   24330629.8484
  -2933105.34046  -2274861.44943  24399191.1484                   24399193.9144
  -9393739.91047  -7309365.81245  22518604.7894                   22518603.2934
 -14122555.24247 -10992752.91045  23682325.2734                   23682324.9264
  -7035488.95746  -5470431.12943  24573109.1804                   24573113.2194
 -19234811.69148 -14977429.95346  20939881.3914                   20939880.0354
 -19343117.93047 -15061957.97346  21395200.0474                   21395199.1454
 -10843847.46547  -8446837.37945  22918158.3984                   22918156.6954
 11  9 23  2  5 30.0000000  0  9G29G02G30G18G05G25G15G26G21
 -25650031.75048 -19977419.26247  20376651.7194                   20376650.4064
 -16909149.63346 -13150749.46145  24340210.7274                   24340209.6844
  -2880042.93046  -2233514.03943  24409288.0864                   24409289.6024
  -9466940.77347  -7366405.34845  22504674.7974                   22504673.0474
 -14056152.59047 -10941010.58245  23694960.5084                   23694960.8834
  -6973857.96146  -5422406.93043  24584837.7114                   24584843.1954
 -19290834.26248 -15021083.84846  20929220.7034                   20929218.8754
 -19341258.12148 -15060508.74246  21395553.8594                   21395553.3594
 -10927505.70747  -8512025.52345  22902238.4534                   22902237.0704
 11  9 23  2  6  0.0000000  0  9G29G02G30G18G05G25G15G26G21
 -25660746.67248 -19985768.53147  20374612.5784                   20374611.6564
 -16858651.43746 -13111400.14844  24349820.1414                   24349818.8714
  -2826895.91046  -2192100.73443  24419402.7194                   24419403.8714
  -9539882.35547  -7423242.85545  22490794.3444                   22490792.8674
 -13989746.71947 -10889265.75045  23707598.2344                   23707597.8954
  -6912297.28546  -5374437.53143  24596552.3204                   24596557.0944
 -19346294.88348 -15064299.85946  20918667.0784                   20918665.4184
 -19338705.95748 -15058520.00046  21396040.0004                   21396038.6094
 -11011168.98447  -8577217.60945  22886317.8284                   22886316.0474
 11  9 23  2  6 30.0000000  0  9G29G02G30G18G05G25G15G26G21
 -25670897.44948 -19993678.19947  20372680.8054                   20372679.9064
 -16807991.18446 -13071924.56644  24359459.7894                   24359459.5744
  -2773665.81246  -2150622.70343  24429531.2194                   24429534.1644
  -9612563.19147  -7479877.17245  22476963.7584                   22476961.9774
 -13923337.21147 -10837518.07445  23720234.9614                   23720235.0354
  -6850807.89146  -5326523.73843  24608252.5704                   24608256.0434
 -19401190.68047 -15107075.75446  20908220.2974                   20908219.2114
 -19335460.40647 -15055990.96546  21396657.1024                   21396656.2154
 -11094835.14547  -8642411.92245  22870396.8754                   22870395.2934
 11  9 23  2  7  0.0000000  0  9G29G02G30G18G05G25G15G26G21
 -25680486.15248 -20001149.89547  20370856.5704                   20370855.9494
 -16757170.74646 -13032324.18044  24369131.8284                   24369129.3244
  -2720357.59846  -2109083.78943  24439675.5394                   24439677.2704
  -9684985.62147  -7536310.12145  22463181.9774                   22463180.5084
 -13856927.51246 -10785770.23845  23732872.2734                   23732872.0554
  -6789394.56946  -5278669.18743  24619939.4844                   24619944.3914
 -19455521.99648 -15149411.78146  20897881.6094                   20897879.9804
 -19331524.21947 -15052923.77746  21397406.7974                   21397405.8284
 -11178505.09847  -8707609.19945  22854474.8204                   22854473.3594
 11  9 23  2  7 30.0000000  0  9G29G02G30G18G05G25G15G26G21
 -25689510.85248 -20008182.09847  20369139.2504                   20369137.3524
 -16706188.55146 -12992597.84043  24378832.0864                   24378830.2074
  -2666972.94146  -2067485.26643  24449834.0784                   24449836.7584
  -9757148.15648  -7592540.56645  22449450.2274                   22449448.3754
 -13790517.35547 -10734022.07845  23745510.0784                   23745509.1374
  -6728058.43747  -5230874.80143  24631612.0634                   24631617.7704
 -19509285.84847 -15191305.64146  20887650.2274                   20887649.1214
 -19326896.81247 -15049317.96945  21398286.3204                   21398285.6884
 -11262176.66847  -8772807.72345  22838551.8444                   22838550.9694
 11  9 23  2  8  0.0000000  0  9G29G02G30G18G05G25G15G26G21
 -25697972.51648 -20014775.58247  20367528.6724                   20367527.2114
 -16655045.97746 -12952746.50843  24388565.6484                   24388562.7154
  -2613516.14146  -2025830.52044  24460006.3444                   24460008.9614
  -9829052.32047  -7648569.69545  22435766.6334                   22435765.4774
 -13724109.58646 -10682275.77045  23758146.7664                   23758146.2814
  -6666803.52747  -5183143.68743  24643268.6174                   24643271.9454
 -19562482.55147 -15232757.57046  20877527.8134                   20877525.9734
 -19321580.10547 -15045175.04745  21399298.2734                   21399297.0984
 -11345850.29347  -8838007.85545  22822629.7194                   22822628.5784
 11  9 23  2  8 30.0000000  0  9G29G02G30G18G05G25G15G26G21
 -25705870.82848 -20020930.09047  20366025.4454                   20366024.8834
 -16603742.48046 -12912769.80943  24398328.3054                   24398325.3134
  -2559989.78147  -1984121.61744  24470192.5634                   24470194.3014
  -9900697.87947  -7704397.30545  22422133.2894                   22422131.7234
 -13657704.65646 -10630531.65245  23770783.5234                   23770782.5594
  -6605632.13747  -5135477.59043  24654908.3914                   24654913.8634
 -19615110.18048 -15273766.06246  20867512.9694                   20867511.6684
 -19315574.50847 -15040495.31245  21400440.7894                   21400440.2194
 -11429524.96547  -8903208.81645  22806707.0474                   22806705.6454
 11  9 23  2  9  0.0000000  0  9G29G02G30G18G05G25G15G26G21
 -25713206.89848 -20026646.48047  20364629.6094                   20364628.2074
 -16552279.47346 -12872668.72743  24408120.9534                   24408119.8054
  -2506398.29746  -1942361.96944  24480391.2114                   24480392.7704
  -9972086.44147  -7760024.65245  22408548.4454                   22408546.6804
 -13591305.44147 -10578791.98045  23783419.1174                   23783418.5984
  -6544548.10947  -5087879.66043  24666532.7734                   24666536.6094
 -19667168.66847 -15314331.06246  20857606.2974                   20857605.1684
 -19308882.38747 -15035280.65245  21401714.7504                   21401713.5044
 -11513201.31647  -8968411.06245  22790783.8284                   22790781.7194
 11  9 23  2  9 30.0000000  0  9G29G02G30G18G05G25G15G26G21
 -25719978.94948 -20031923.39147  20363341.1724                   20363339.9384
 -16500654.92246 -12832441.77743  24417945.3914                   24417942.2774
  -2452742.95346  -1900552.57044  24490601.0234                   24490601.6884
 -10043216.41047  -7815450.49645  22395012.5864                   22395011.0274
 -13524911.55547 -10527056.51245  23796052.8284                   23796052.7854
  -6483552.43446  -5040350.57844  24678139.5784                   24678143.5634
 -19718655.35247 -15354450.50846  20847808.6564                   20847806.7774
 -19301502.54747 -15029530.08245  21403118.9064                   21403117.7584
 -11596876.57847  -9033612.45745  22774860.8204                   22774858.6294
 11  9 23  2 10  0.0000000  0  8G29G30G18G05G25G15G26G21
 -25726187.77348 -20036761.41847  20362159.2974                   20362158.0864
  -2399027.71946  -1858696.43744  24500822.5704                   24500823.8594
 -10114088.82847  -7870675.67245  22381526.1724                   22381524.7624
 -13458525.02347 -10475326.72345  23808686.0634                   23808685.5984
  -6422648.59847  -4992893.05144  24689729.2894                   24689734.6054
 -19769569.44948 -15394123.77746  20838120.0634                   20838118.5354
 -19293437.25847 -15023245.39546  21404653.8524                   21404652.9104
 -11680551.07447  -9098813.26645  22758937.8524                   22758935.3914
 11  9 23  2 10 30.0000000  0  8G29G30G18G05G25G15G26G21
 -25731829.69948 -20041157.69947  20361085.7194                   20361084.9694
  -2345252.18747  -1816793.38344  24511055.2664                   24511057.9574
 -10184700.64847  -7925697.75045  22368088.9064                   22368087.4224
 -13392143.59047 -10423600.93045  23821318.4454                   23821317.4264
  -6361835.84847  -4945506.48444  24701300.8674                   24701306.6174
 -19819906.29748 -15433347.25446  20828541.5554                   20828540.1054
 -19284683.47347 -15016424.23046  21406319.7584                   21406318.3484
 -11764220.23447  -9164009.93445  22743015.8134                   22743014.0394
 11  9 23  2 11  0.0000000  0  8G29G30G18G05G25G15G26G21
 -25736898.64148 -20045107.49647  20360121.0394                   20360119.9614
  -2291413.18747  -1774840.87544  24521301.1094                   24521302.4844
 -10255045.48047  -7980511.82045  22354702.7194                   22354700.9144
 -13325762.29747 -10371875.23845  23833950.5234                   23833948.8634
  -6301110.61347  -4898188.11344  24712857.0314                   24712861.5904
 -19869658.78947 -15472115.38346  20819073.8674                   20819072.0474
 -19275236.33647 -15009062.78946  21408116.9844                   21408116.3914
 -11847877.45747  -9229197.29745  22727096.5234                   22727094.5824
 11  9 23  2 11 30.0000000  0  8G29G30G18G05G25G15G26G21
 -25741393.17648 -20048609.71547  20359265.9694                   20359264.8554
  -2237512.10546  -1732839.97344  24531557.5784                   24531559.6484
 -10325122.34047  -8035117.07445  22341367.3054                   22341365.4964
 -13259380.84847 -10320149.41844  23846581.7974                   23846581.5434
  -6240473.78147  -4850938.64144  24724396.0864                   24724400.4964
 -19918824.10547 -15510425.97746  20809717.9304                   20809716.1134
 -19265095.03547 -15001160.44945  21410047.0084                   21410046.1954
 -11931520.18447  -9294373.35545  22711179.3914                   22711177.5434
 11  9 23  2 12  0.0000000  0  8G29G30G18G05G25G15G26G21
 -25745315.59048 -20051666.12947  20358519.2504                   20358518.4264
  -2183554.71546  -1690795.17643  24541824.7194                   24541826.3954
 -10394934.05547  -8089515.72345  22328082.7194                   22328081.1564
 -13193002.96547 -10268426.37545  23859213.4144                   23859212.8634
  -6179930.73846  -4803762.21944  24735916.2814                   24735920.8674
 -19967403.14547 -15548279.73046  20800473.4774                   20800471.6724
 -19254263.49247 -14992720.25045  21412108.1094                   21412107.1994
 -12015150.72347  -9359539.91445  22695265.6804                   22695263.2424
 11  9 23  2 12 30.0000000  0  8G29G30G18G05G25G15G26G21
 -25748667.88348 -20054278.28547  20357881.3524                   20357879.7974
  -2129545.71946  -1648710.24243  24552102.1024                   24552103.9184
 -10464482.60247  -8143709.30545  22314847.9534                   22314846.7034
 -13126631.84047 -10216708.61345  23871842.9224                   23871842.8404
  -6119485.77046  -4756662.26644  24747418.6884                   24747423.5744
 -20015397.02348 -15585677.51646  20791340.5004                   20791338.8444
 -19242744.43047 -14983744.34045  21414300.2034                   21414299.1024
 -12098769.46947  -9424697.30545  22679353.6094                   22679351.7774
 11  9 23  2 13  0.0000000  0  8G29G30G18G05G25G15G26G21
 -25751451.41448 -20056447.25047  20357351.9454                   20357350.8324
  -2075489.52346  -1606588.53143  24562389.6484                   24562390.7664
 -10533769.79747  -8197699.25445  22301662.5944                   22301660.8054
 -13060270.15647 -10164998.19944  23884471.6644                   23884470.5084
  -6059143.01246  -4709641.90244  24758901.5474                   24758906.5984
 -20062806.14848 -15622619.63746  20782318.6484                   20782317.1174
 -19230540.37547 -14974234.65645  21416621.9304                   21416621.0594
 -12182377.02047  -9489845.94945  22663443.8444                   22663441.3364
 11  9 23  2 13 30.0000000  0  8G29G30G18G05G25G15G26G21
 -25753666.23048 -20058173.05947  20356930.4224                   20356928.9924
  -2021388.91446  -1564432.18043  24572684.1024                   24572686.4104
 -10602795.40647  -8251485.34445  22288527.5394                   22288525.4264
 -12993918.62547 -10113295.69545  23897098.2194                   23897097.0314
  -5998904.57046  -4662702.89543  24770364.7974                   24770369.7974
 -20109628.82448 -15659104.79346  20773408.7814                   20773407.5234
 -19217652.27747 -14964191.94145  21419074.8754                   21419073.7664
 -12265971.76248  -9554984.62945  22647536.0314                   22647533.5864
 11  9 23  2 14  0.0000000  0  7G29G30G18G05G15G26G21
 -25755314.71948 -20059457.57447  20356616.9844                   20356615.4384
  -1967249.29546  -1522245.48443  24582987.1414                   24582989.6724
 -10671562.48048  -8305069.99645  22275441.8054                   22275439.9804
 -12927581.27047 -10061604.21944  23909721.0164                   23909721.5594
 -20155866.82848 -15695134.36746  20764609.7114                   20764608.3284
 -19204083.73048 -14953619.03146  21421657.0784                   21421655.7544
 -12349556.46548  -9620115.48445  22631630.2114                   22631627.4844
 11  9 23  2 14 30.0000000  0  7G29G30G18G05G15G26G21
 -25756397.62148 -20060301.37547  20356410.7344                   20356409.8284
  -1913074.17645  -1480030.96942  24593293.5084                   24593299.3674
 -10740071.43747  -8358453.52345  22262404.6024                   22262403.7194
 -12861259.20747 -10009924.70344  23922341.6414                   23922341.4614
 -20201519.35248 -15730707.71146  20755922.4454                   20755920.9144
 -19189836.16048 -14942517.00046  21424368.4694                   21424367.2854
 -12433130.16048  -9685237.77045  22615726.5554                   22615724.1884
 11  9 23  2 15  0.0000000  0  7G29G30G18G05G15G26G21
 -25756908.28548 -20060699.28547  20356313.3984                   20356312.0864
  -1858859.71946  -1437785.94142  24603612.3754                   24603615.2384
 -10808316.12948  -8411631.11745  22249418.0234                   22249415.9774
 -12794947.04347  -9958252.87544  23934960.6414                   23934960.7814
 -20246578.80548 -15765818.93446  20747348.1024                   20747346.5474
 -19174904.57848 -14930881.97345  21427209.4064                   21427207.8874
 -12516685.09847  -9750345.43045  22599826.6484                   22599824.4804
 11  9 23  2 15 30.0000000  0  7G29G30G18G05G15G26G21
 -25756844.48848 -20060649.55147  20356325.7274                   20356324.6454
  -1804606.47746  -1395510.64542  24613936.7274                   24613938.7894
 -10876294.23047  -8464600.98045  22236482.0084                   22236480.5394
 -12728643.46147  -9906587.73444  23947577.4774                   23947576.2704
 -20291041.50848 -15800465.14846  20738886.8134                   20738885.1844
 -19159287.35548 -14918712.67645  21430181.2034                   21430179.8164
 -12600218.04748  -9815435.96545  22583930.8834                   22583928.4734
 11  9 23  2 16  0.0000000  0  7G29G30G18G05G15G26G21
 -25756206.57448 -20060152.46147  20356446.9924                   20356445.9384
  -1750317.78946  -1353207.75042  24624266.6334                   24624268.1884
 -10944006.46548  -8517363.68745  22223597.0634                   22223595.2344
 -12662349.93747  -9854930.45744  23960193.1884                   23960192.7704
 -20334906.88748 -15834645.91446  20730539.8914                   20730537.9414
 -19142985.96147 -14906010.28145  21433283.3444                   21433282.7774
 -12683727.98048  -9880508.54745  22568039.2814                   22568037.0004
 11  9 23  2 16 30.0000000  0  7G29G30G18G05G15G26G21
 -25754996.80548 -20059209.77047  20356677.3914                   20356675.7424
  -1695998.44146  -1310880.98442  24634604.5004                   24634604.7234
 -11011454.94148  -8569920.87945  22210762.4924                   22210760.6374
 -12596069.63746  -9803283.43043  23972805.1564                   23972803.9304
 -20378176.07048 -15868362.11746  20722305.6174                   20722303.8914
 -19126004.02048 -14892777.57045  21436514.8914                   21436513.3754
 -12767216.32847  -9945564.31645  22552151.9454                   22552149.6054
 11  9 23  2 17  0.0000000  0  7G29G30G18G05G15G26G21
 -25753219.96148 -20057825.20347  20357015.1724                   20357014.0594
  -1641655.85246  -1268536.09442  24644945.0634                   24644946.5234
 -11078644.32848  -8622276.16445  22197976.3674                   22197974.5634
 -12529807.74646  -9751650.75043  23985413.9774                   23985413.3874
 -20420852.62948 -15901616.53147  20714184.3524                   20714182.7274
 -19108347.00047 -14879018.83645  21439875.1724                   21439874.4384
 -12850686.88747 -10010606.23045  22536267.9614                   22536265.7114
 11  9 23  2 17 30.0000000  0  7G29G30G18G05G15G26G21
 -25750877.55548 -20055999.93747  20357461.1644                   20357459.4964
  -1587294.39546  -1226176.39842  24655288.7504                   24655291.9494
 -11145576.13347  -8674430.72345  22185239.4694                   22185237.9534
 -12463566.79346  -9700034.43043  23998019.9144                   23998019.3634
 -20462936.67647 -15934409.24246  20706176.3674                   20706174.6804
 -19090017.92247 -14864736.40645  21443362.4774                   21443361.5784
 -12934139.68047 -10075634.30545  22520387.0164                   22520384.8054
 11  9 23  2 18  0.0000000  0  7G29G30G18G05G15G26G21
 -25747970.81248 -20053734.93047  20358014.0864                   20358012.4384
  -1532917.77046  -1183804.93043  24665637.5164                   24665638.4384
 -11212252.04347  -8726385.89845  22172550.9694                   22172549.6094
 -12397348.98446  -9648436.14543  24010621.2974                   24010620.5044
 -20504428.48448 -15966740.46547  20698280.3914                   20698279.0474
 -19071018.94947 -14849931.98446  21446978.1724                   21446976.9064
 -13017574.67647 -10140648.49645  22504509.6334                   22504507.4964
 11  9 23  2 18 30.0000000  0  7G29G30G18G05G15G26G21
 -25744499.19148 -20051029.75447  20358674.6254                   20358673.1214
  -1478528.14146  -1141423.35943  24675986.8594                   24675988.8484
 -11278671.50847  -8778141.22745  22159912.2894                   22159910.4344
 -12331154.29346  -9596855.82843  24023216.8674                   24023215.4574
 -20545326.30548 -15998608.84847  20690497.9774                   20690496.4804
 -19051350.66448 -14834606.02045  21450720.8204                   21450719.5554
 -13100989.49247 -10205646.97745  22488636.6254                   22488634.0944
 11  9 23  2 19  0.0000000  0  7G29G30G18G05G15G26G21
 -25740463.81248 -20047885.28947  20359442.8204                   20359441.7074
  -1424129.09446  -1099034.43443  24686339.2974                   24686340.3634
 -11344835.46548  -8829697.44945  22147321.2974                   22147319.2894
 -12264984.82446  -9545295.19943  24035809.6334                   24035807.6914
 -20585630.09448 -16030014.35246  20682828.5554                   20682826.8444
 -19031015.10947 -14818760.09445  21454590.7504                   21454589.4804
 -13184384.92647 -10270630.34045  22472766.7114                   22472764.2974
 11  9 23  2 19 30.0000000  0  7G29G30G18G05G15G26G21
 -25735863.23448 -20044300.39847  20360318.2974                   20360316.5944
  -1369722.09047  -1056639.28143  24696692.6644                   24696692.9104
 -11410742.52747  -8881053.51245  22134779.5634                   22134777.6254
 -12198839.77346  -9493753.58243  24048396.8524                   24048394.8444
 -20625337.50448 -16060955.13746  20675272.1414                   20675270.5944
 -19010012.49647 -14802394.41045  21458587.1334                   21458585.9104
 -13267757.84847 -10335596.17245  22456901.1484                   22456898.8284
 11  9 23  2 20  0.0000000  0  7G29G30G18G05G15G26G21
 -25730700.98048 -20040277.85247  20361300.1564                   20361299.1134
  -1315312.84846  -1014242.42643  24707045.6094                   24707047.8204
 -11476395.99648  -8932211.98445  22122286.1174                   22122283.8714
 -12132723.25446  -9442234.18043  24060977.7894                   24060977.0514
 -20664450.53548 -16091432.77747  20667829.1024                   20667827.6644
 -18988346.87547 -14785512.09445  21462710.2424                   21462709.1844
 -13351110.18447 -10400545.95745  22441039.5394                   22441037.2074
 11  9 23  2 20 30.0000000  0  7G29G30G18G05G15G26G21
 -25724977.09448 -20035817.66447  20362389.3594                   20362388.6644
  -1260903.93746   -971845.82044  24717399.6954                   24717401.1054
 -11541795.69947  -8983172.70345  22109840.9694                   22109838.8954
 -12066635.89146  -9390737.49243  24073553.8914                   24073553.7344
 -20702968.19548 -16121446.49647  20660499.3834                   20660498.2304
 -18966019.84447 -14768114.38745  21466958.7734                   21466957.7034
 -13434440.72747 -10465478.78145  22425182.6644                   22425179.6334
 11  9 23  2 21  0.0000000  0  7G29G30G18G05G15G26G21
 -25718691.53948 -20030919.80947  20363585.5084                   20363584.2894
  -1206497.86346   -929451.47744  24727752.8834                   24727754.6524
 -11606942.07447  -9033936.02745  22097443.9064                   22097442.1884
 -12000578.45346  -9339264.18043  24086123.7194                   24086124.3164
 -20740889.47348 -16150995.50446  20653283.1334                   20653281.8324
 -18943032.30147 -14750201.99245  21471333.3524                   21471332.3054
 -13517747.82447 -10530393.33245  22409329.8054                   22409326.6604
 11  9 23  2 21 30.0000000  0  7G29G30G18G05G15G26G21
 -25711846.28548 -20025585.82447  20364888.0704                   20364887.0904
  -1152098.94146   -887062.65644  24738104.4454                   24738106.9064
 -11671836.83647  -9084503.29345  22085094.9694                   22085093.2974
 -11934553.25846  -9287815.93043  24098687.9694                   24098687.3674
 -20778215.29747 -16180080.51247  20646180.1334                   20646178.6254
 -18919387.47347 -14731777.43445  21475832.3984                   21475831.5904
 -13601032.19147 -10595290.17645  22393481.1174                   22393478.5944
 11  9 23  2 22  0.0000000  0  7G29G30G18G05G15G26G21
 -25704439.34848 -20019814.15647  20366297.5554                   20366296.2704
  -1097707.70746   -844679.87544  24748455.0864                   24748456.0514
 -11736477.98047  -9134872.93045  22072794.0474                   22072791.8914
 -11868558.64546  -9236391.54743  24111246.0634                   24111245.4104
 -20814942.18048 -16208698.82447  20639191.5944                   20639189.6884
 -18895084.49647 -14712840.02045  21480457.0084                   21480456.0204
 -13684290.72747 -10660166.89545  22377637.7504                   22377635.1604
 11  9 23  2 22 30.0000000  0  7G29G30G18G05G15G26G21
 -25696474.57448 -20013607.83647  20367813.3284                   20367812.1564
  -1043330.34446   -802307.90643  24758802.4144                   24758804.0004
 -11800868.93047  -9185047.62145  22060540.5474                   22060538.8284
 -11802599.14546  -9184994.49243  24123798.2504                   24123797.6024
 -20851072.93448 -16236852.62147  20632316.0704                   20632313.9184
 -18870128.16047 -14693393.50045  21485206.6564                   21485205.1764
 -13767524.81247 -10725024.55545  22361798.3594                   22361796.2154
 11  9 23  2 23  0.0000000  0  7G29G30G18G05G15G26G21
 -25687945.98448 -20006962.15647  20369436.3834                   20369434.7114
   -988962.99246   -759943.73043  24769147.7814                   24769148.8364
 -11865003.65247  -9235022.64845  22048336.0314                   22048334.1094
 -11736668.98446  -9133620.33644  24136344.3754                   24136343.1724
 -20886600.33247 -16264536.27046  20625555.2974                   20625553.3204
 -18844513.75847 -14673434.18745  21490080.5164                   21490079.2814
 -13850727.16447 -10789857.49245  22345965.6954                   22345962.7304
 11  9 23  2 23 30.0000000  0  7G29G30G18G05G15G26G21
 -25678863.40248 -19999884.81247  20371164.7424                   20371163.3364
   -934618.13346   -717597.07443  24779490.0784                   24779490.8554
 -11928892.04347  -9284805.72345  22036178.4304                   22036176.5664
 -11670779.03146  -9082277.48443  24148882.8054                   24148881.5044
 -20921533.54747 -16291756.92646  20618907.5864                   20618905.8444
 -18818252.73847 -14652971.03545  21495077.7894                   21495076.4774
 -13933906.52047 -10854672.51245  22330137.1954                   22330134.9064
 11  9 23  2 24  0.0000000  0  7G29G30G18G05G15G26G21
 -25669222.30948 -19992372.25847  20372999.3284                   20372998.2304
   -880293.37146   -675266.07843  24789826.8284                   24789828.2934
 -11992529.12947  -9334392.98045  22024068.4924                   22024066.5044
 -11604924.82045  -9030962.46943  24161414.0944                   24161413.5784
 -20955866.66047 -16318509.96947  20612374.2504                   20612372.5274
 -18791341.12147 -14632000.92245  21500198.9924                   21500197.0044
 -14017055.67647 -10919464.00845  22314314.2814                   22314312.1334
 11  9 23  2 24 30.0000000  0  6G29G18G05G15G26G21
 -25659025.04748 -19984426.32047  20374939.7584                   20374938.2504
 -12055917.37947  -9383786.33245  22012006.5394                   22012004.6134
 -11539108.93045  -8979677.40643  24173938.6254                   24173937.9924
 -20989600.80548 -16344796.28147  20605954.7424                   20605953.1254
 -18763782.89547 -14610526.95745  21505442.7114                   21505442.2074
 -14100176.45348 -10984233.39545  22298497.0554                   22298494.7664
 11  9 23  2 25  0.0000000  0  6G29G18G05G15G26G21
 -25648270.05148 -19976045.77747  20376986.0864                   20376984.8554
 -12119054.66847  -9432984.14145  21999991.6174                   21999989.8244
 -11473330.12945  -8928421.22343  24186454.9924                   24186455.3244
 -21022733.52048 -16370613.94947  20599649.8834                   20599648.2544
 -18735576.91447 -14588548.25445  21510810.6094                   21510809.3714
 -14183264.92248 -11048977.59845  22282685.6644                   22282683.4414
 11  9 23  2 25 30.0000000  0  6G29G18G05G15G26G21
 -25636951.97348 -19967226.48847  20379139.8984                   20379138.5744
 -12181935.56647  -9481982.17645  21988025.7814                   21988023.5594
 -11407583.12545  -8877189.84043  24198966.4844                   24198966.7274
 -21055257.85547 -16395957.54747  20593460.8204                   20593459.3364
 -18706719.67647 -14566062.07845  21516302.1954                   21516301.0354
 -14266313.98848 -11113691.09446  22266881.6484                   22266879.7274
 11  9 23  2 26  0.0000000  0  6G29G18G05G15G26G21
 -25625068.50448 -19957966.62547  20381401.6094                   20381399.9734
 -12244557.50047  -9530778.41845  21976109.3444                   21976106.9104
 -11341866.10245  -8825981.75443  24211471.8054                   24211471.8094
 -21087170.51247 -16420824.52047  20587387.8204                   20587386.2544
 -18677209.97747 -14543067.47745  21521917.2034                   21521915.3634
 -14349319.64148 -11178370.78145  22251086.4304                   22251083.8094
 11  9 23  2 26 30.0000000  0  6G29G18G05G15G26G21
 -25612621.20348 -19948267.41447  20383770.0084                   20383768.3834
 -12306922.03948  -9579374.08645  21964241.7814                   21964238.9574
 -11276181.06646  -8774798.59843  24223972.0234                   24223971.2234
 -21118472.34048 -16445215.52347  20581431.1804                   20581429.6094
 -18647050.68747 -14519566.71145  21527656.1724                   21527654.8874
 -14432281.48447 -11243016.32445  22235298.8134                   22235296.8054
 11  9 23  2 27  0.0000000  0  6G29G18G05G15G26G21
 -25599614.84448 -19938132.57447  20386245.0474                   20386243.4844
 -12369033.30948  -9627772.40645  21952422.1804                   21952420.3524
 -11210532.62946  -8723643.95344  24236463.9924                   24236463.5944
 -21149166.72348 -16469133.18746  20575590.4844                   20575589.0274
 -18616247.46947 -14495564.18445  21533518.2034                   21533516.6524
 -14515202.89548 -11307630.35945  22219520.1884                   22219517.3634
 11  9 23  2 27 30.0000000  0  6G29G18G05G15G26G21
 -25586054.24648 -19927565.85947  20388825.6414                   20388824.0004
 -12430895.83648  -9675976.89845  21940650.0704                   21940648.0664
 -11144925.84846  -8672521.75844  24248949.5164                   24248949.3914
 -21179257.43448 -16492580.46147  20569864.1804                   20569862.5474
 -18584806.37147 -14471064.59045  21539501.0314                   21539499.7774
 -14598086.28148 -11372214.75845  22203747.5784                   22203745.2034
 11  9 23  2 28  0.0000000  0  6G29G18G05G15G26G21
 -25571939.76248 -19916567.55947  20391511.4224                   20391510.0944
 -12492509.86348  -9723987.77345  21928925.0784                   21928923.1804
 -11079361.28546  -8621432.46544  24261426.2194                   24261425.4734
 -21208743.90648 -16515556.88347  20564253.0554                   20564251.2234
 -18552728.97347 -14446069.18445  21545605.0704                   21545603.8324
 -14680930.25847 -11436768.44145  22187982.7194                   22187980.6844
 11  9 23  2 28 30.0000000  0  6G29G18G05G15G26G21
 -25557271.53948 -19905137.75047  20394302.5474                   20394300.9614
 -12553875.03148  -9771804.72345  21917247.8754                   21917245.5904
 -11013838.97346  -8570376.09844  24273893.7344                   24273893.8284
 -21237624.73448 -16538061.39547  20558757.2814                   20558755.9494
 -18520016.51647 -14420578.93745  21551830.3754                   21551828.8094
 -14763732.90247 -11501289.93045  22172225.9844                   22172224.0514
 11  9 23  2 29  0.0000000  0  6G29G18G05G15G26G21
 -25542051.87948 -19893278.26647  20397198.9534                   20397197.3134
 -12614993.54748  -9819429.47745  21905617.2734                   21905614.6374
 -10948361.21146  -8519354.45344  24286354.1414                   24286353.5984
 -21265901.34848 -16560095.07847  20553376.5164                   20553374.9104
 -18486672.75047 -14394596.77045  21558175.3594                   21558174.0744
 -14846494.49648 -11565779.42645  22156477.0864                   22156474.5434
 11  9 23  2 29 30.0000000  0  6G29G18G05G15G26G21
 -25526280.32048 -19880988.73047  20400200.1724                   20400198.9144
 -12675864.20748  -9866861.09445  21894033.7114                   21894031.0594
 -10882927.44546  -8468367.10544  24298805.3444                   24298804.9574
 -21293572.13348 -16581656.69547  20548110.9454                   20548109.1414
 -18452698.00847 -14368122.93045  21564640.2734                   21564639.1684
 -14929212.48048 -11630234.94945  22140736.2584                   22140733.7624
 11  9 23  2 30  0.0000000  0  6G29G18G05G15G26G21
 -25509959.59048 -19868271.26647  20403305.7814                   20403304.1764
 -12736489.71948  -9914101.69545  21882497.1954                   21882494.8244
 -10817541.16846  -8417416.73444  24311248.3674                   24311248.0394
 -21320639.37948 -16602748.02047  20542959.8524                   20542958.1724
 -18418096.76247 -14341160.89545  21571224.5864                   21571223.1414
 -15011888.23847 -11694657.57045  22125003.4534                   22125000.8134
 11  9 23  2 30 30.0000000  0  6G29G18G05G15G26G21
 -25493089.69548 -19855125.89147  20406516.0864                   20406514.3244
 -12796869.52748  -9961150.83645  21871007.4774                   21871005.3324
 -10752201.50846  -8366502.70343  24323682.1564                   24323682.3674
 -21347101.70748 -16623367.97347  20537924.5164                   20537922.4224
 -18382869.84047 -14313711.33245  21577927.6174                   21577926.5904
 -15094519.35247 -11759045.39845  22109279.0784                   22109276.8874
 11  9 23  2 31  0.0000000  0  6G29G18G05G15G26G21
 -25475671.77748 -19841553.47347  20409830.6094                   20409829.5704
 -12857004.96948 -10008009.57445  21859563.9694                   21859561.4924
 -10686909.87946  -8315626.09043  24336106.2424                   24336105.7384
 -21372958.67248 -16643516.21947  20533003.9064                   20533002.0784
 -18347019.86347 -14285776.27045  21584749.7194                   21584749.3284
 -15177104.73847 -11823397.60245  22093563.6724                   22093560.9304
 11  9 23  2 31 30.0000000  0  6G29G18G05G15G26G21
 -25457707.96548 -19827555.68747  20413249.2814                   20413247.7704
 -12916897.18048 -10054678.78545  21848166.5704                   21848163.9844
 -10621668.29746  -8264788.43742  24348522.1174                   24348519.8054
 -21398211.41448 -16663193.64147  20528198.2344                   20528196.4844
 -18310549.96947 -14257358.14545  21591690.0704                   21591688.8714
 -15259644.29347 -11887714.08245  22077857.2974                   22077854.2304
 11  9 23  2 32  0.0000000  0  6G29G18G05G15G26G21
 -25439199.60248 -19813133.57447  20416771.0394                   20416769.5824
 -12976546.80548 -10101158.97345  21836815.5474                   21836813.4454
 -10556477.88345  -8213990.68042  24360926.6024                   24360925.4844
 -21422860.64548 -16682400.79747  20523507.9454                   20523506.4964
 -18273462.73447 -14228458.98445  21598747.2894                   21598746.2344
 -15342137.22747 -11951994.23845  22062159.2344                   22062156.5394
 11  9 23  2 32 30.0000000  0  6G29G18G05G15G26G21
 -25420145.94148 -19798286.55947  20420396.8444                   20420394.7894
 -13035952.91848 -10147449.41045  21825511.0474                   21825508.3324
 -10491337.523 5                  24373322.820
 -21446904.25048 -16701136.04347  20518932.3754                   20518930.1914
 -18235758.64147 -14199079.16045  21605922.6254                   21605920.8794
 -15424580.55147 -12016235.73445  22046470.3674                   22046467.8674
 11  9 23  2 33  0.0000000  0  6G29G18G05G15G26G21
 -25400551.40648 -19783018.07847  20424125.6564                   20424123.9804
 -13095119.28548 -10193553.01645  21814252.1884                   21814249.7274
 -10426251.531 5                  24385706.602
 -21470345.62148 -16719402.00446  20514471.6094                   20514469.8284
 -18197443.34447 -14169223.07045  21613213.9844                   21613212.3984
 -15506976.34047 -12080440.18745  22030790.9304                   22030788.3204
 11  9 23  2 33 30.0000000  0  6G29G18G05G15G26G21
 -25380412.91848 -19767325.73447  20427957.5784                   20427956.1254
 -13154042.69548 -10239467.30146  21803039.3984                   21803036.7774
 -10361216.402 5                  24398082.984
 -21493180.47748 -16737195.36747  20510126.4844                   20510124.5744
 -18158514.68747 -14138889.03545  21620621.7814                   21620620.1054
 -15589319.07847 -12144603.31245  22015121.9224                   22015118.9344
 11  9 23  2 34  0.0000000  0  6G29G18G05G15G26G21
 -25359735.36748 -19751213.35247  20431892.3914                   20431891.0664
 -13212727.16048 -10285195.42245  21791871.7424                   21791869.4884
 -10296236.984 5                  24410448.938
 -21515412.77748 -16754519.19947  20505895.4534                   20505893.9734
 -18118978.85947 -14108081.87145  21628144.9844                   21628142.9884
 -15671611.35947 -12208727.12145  21999462.0554                   21999459.3054
 11  9 23  2 34 30.0000000  0  6G29G18G05G15G26G21
 -25338516.87548 -19734679.44947  20435930.2114                   20435928.6994
 -13271170.25848 -10330735.45345  21780750.4694                   21780748.1414
 -10231311.238 5                  24422803.930
 -21537040.04347 -16771371.58646  20501780.0634                   20501778.0704
 -18078835.51647 -14076801.32845  21635783.9694                   21635782.8324
 -15753849.39147 -12272808.64845  21983812.3754                   21983809.7704
 11  9 23  2 35  0.0000000  0  7G29G22G18G05G15G26G21
 -25316760.71148 -19717726.58247  20440070.4224                   20440069.1334
   6163436.25457   4811368.59054  24577454.8524                   24577453.1604
 -13329375.18448 -10376089.89546  21769674.5314                   21769671.8954
 -10166442.090 6                  24435148.445
 -21558064.33247 -16787754.12147  20497779.3134                   20497777.6954
 -18038089.10247 -14045050.86345  21643537.8524                   21643536.4454
 -15836034.03147 -12336848.59046  21968173.4534                   21968170.1214
 11  9 23  2 35 30.0000000  0  7G29G22G18G05G15G26G21
 -25294471.57048 -19700358.41847  20444311.5234                   20444310.7584
   6069474.03547   4738151.38344  24559573.8444                   24559572.2854
 -13387345.86348 -10421261.80546  21758643.0704                   21758640.8754
 -10101633.79746  -7859567.65652  24447481.6484                   24447480.4964
 -21578488.79348 -16803669.25847  20493892.5084                   20493890.8204
 -17996745.38347 -14012834.96145  21651404.7504                   21651403.8554
 -15918167.35547 -12400848.53146  21952544.0634                   21952541.3874
 11  9 23  2 36  0.0000000  0  7G29G22G18G05G15G26G21
 -25271654.35948 -19682578.75847  20448654.0634                   20448652.3754
   5975664.80547   4665053.43044  24541722.4384                   24541720.5004
 -13445086.27748 -10466254.29345  21747655.4064                   21747653.0744
 -10036890.31246  -7809118.23842  24459801.3754                   24459800.0124
 -21598317.53148 -16819120.19547  20490119.1564                   20490117.5514
 -17954810.34447 -13980158.28945  21659384.9694                   21659383.9924
 -16000251.78948 -12464810.36346  21936923.8054                   21936920.6954
 11  9 23  2 36 30.0000000  0  7G29G22G18G05G15G26G21
 -25248311.54348 -19664389.55547  20453095.6254                   20453094.2664
   5882007.21547   4592073.63744  24523899.8914                   24523898.7734
 -13502598.23048 -10511068.75446  21736710.9064                   21736708.8794
  -9972213.93446  -7758721.02042  24472109.2504                   24472107.9264
 -21617552.09847 -16834108.13347  20486459.1024                   20486457.3754
 -17912287.83247 -13947023.84845  21667476.8524                   21667475.2464
 -16082287.43048 -12528734.17646  21921312.5864                   21921310.1254
 11  9 23  2 37  0.0000000  0  7G29G22G18G05G15G26G21
 -25224442.66448 -19645790.42247  20457637.7894                   20457636.8284
   5788503.50047   4519213.76644  24506106.8754                   24506105.1134
 -13559880.94548 -10555704.58246  21725810.4384                   21725808.3484
  -9907603.71946  -7708375.42642  24484403.7974                   24484403.6094
 -21636190.79347 -16848631.77046  20482912.2734                   20482910.0944
 -17869178.19147 -13913431.90645  21675680.2734                   21675679.0554
 -16164271.14848 -12592617.53146  21905711.6564                   21905708.9774
 11  9 23  2 37 30.0000000  0  7G29G22G18G05G15G26G21
 -25200043.84048 -19626778.34847  20462280.7034                   20462279.3244
   5695158.71146   4446477.72743  24488343.5554                   24488340.6254
 -13616929.99248 -10600158.33645  21714954.4694                   21714952.1214
  -9843055.43746  -7658078.12142  24496687.3364                   24496685.8204
 -21654228.86748 -16862687.37547  20479479.8134                   20479477.6684
 -17825479.32447 -13879380.83645  21683995.9064                   21683994.7504
 -16246196.59447 -12656455.48446  21890121.7814                   21890119.1024
 11  9 23  2 38  0.0000000  0  7G29G22G18G05G15G26G21
 -25175117.26648 -19607355.03147  20467024.3364                   20467023.0124
   5601971.84046   4373864.73043  24470610.1724                   24470607.1914
 -13673746.97348 -10644431.25046  21704142.4694                   21704140.0664
  -9778571.04345  -7607830.53942  24508959.0314                   24508957.9264
 -21671667.46148 -16876275.86747  20476161.0164                   20476159.4574
 -17781194.41847 -13844873.10945  21692422.8594                   21692421.5824
 -16328063.43448 -12720247.76246  21874543.0314                   21874540.5124
 11  9 23  2 38 30.0000000  0  7G29G22G18G05G15G26G21
 -25149661.44948 -19587519.32447  20471868.1334                   20471866.7704
   5508946.05146   4301377.23442  24452908.6024                   24452905.0234
 -13730329.40648 -10688521.39146  21693375.1804                   21693372.3984
  -9714148.04345  -7557630.82042  24521217.6414                   24521217.2704
 -21688504.02348 -16889395.24247  20472957.1804                   20472955.2584
 -17736323.18747 -13809908.49245  21700961.6414                   21700960.6174
 -16409867.30948 -12783990.98446  21858976.1804                   21858973.5554
 11  9 23  2 39  0.0000000  0  7G29G22G18G05G15G26G21
 -25123679.41848 -19567273.58647  20476812.6094                   20476811.0904
   5416079.67646   4229013.96943  24435235.8204                   24435233.6684
 -13786679.77048 -10732430.72346  21682652.3914                   21682649.4574
                                  24533465.1254                   24533464.6564
 -21704740.87548 -16902047.30547  20469867.6954                   20469865.4064
 -17690869.59847 -13774490.08645  21709610.8754                   21709610.1644
 -16491608.40647 -12847685.27746  21843421.0704                   21843419.0004
 11  9 23  2 39 30.0000000  0  6G29G22G18G15G26G21
 -25097172.12548 -19546618.55547  20481856.3364                   20481855.5434
   5323373.14146   4156775.27043  24417594.1484                   24417592.5664
 -13842798.31248 -10776159.41446  21671972.9924                   21671970.3054
 -21720377.59848 -16914231.73847  20466891.7894                   20466890.1954
 -17644836.14847 -13738619.85945  21718371.1804                   21718369.5664
 -16573285.85248 -12911329.98846  21827878.4614                   21827875.5084
 11  9 23  2 40  0.0000000  0  6G29G22G18G15G26G21
 -25070138.70348 -19525553.54347  20487000.8984                   20486999.6564
   5230828.88746   4084663.07043  24399983.9224                   24399982.0784
 -13898683.89548 -10819706.56646  21661338.6564                   21661335.7234
 -21735412.75848 -16925947.42247  20464030.8524                   20464028.7774
 -17598223.25047 -13702298.09845  21727240.8054                   21727240.0904
 -16654895.72348 -12974922.04346  21812349.1254                   21812345.5394
 11  9 23  2 40 30.0000000  0  6G29G22G18G15G26G21
 -25042581.06248 -19504080.05947  20492245.1024                   20492243.6174
   5138446.61746   4012677.04743  24382403.9304                   24382401.5824
 -13954337.03148 -10863072.60246  21650747.9144                   21650745.5274
 -21749846.80548 -16937194.69147  20461283.8204                   20461281.9104
 -17551033.91047 -13665527.16845  21736220.9144                   21736220.1804
 -16736437.27747 -13038460.86346  21796832.0234                   21796828.2814
 11  9 23  2 41  0.0000000  0  6G29G22G18G15G26G21
 -25014500.11748 -19482198.79746  20497588.7114                   20497587.3524
   5046227.04345   3940817.85243  24364853.7274                   24364852.5824
 -14009758.03148 -10906257.73846  21640201.5314                   21640198.6334
 -21763679.94948 -16947973.74247  20458651.6024                   20458649.8014
 -17503270.16847 -13628308.64845  21745310.1724                   21745308.5904
 -16817908.57447 -13101944.94146  21781328.0554                   21781325.5434
 11  9 23  2 41 30.0000000  0  6G29G22G18G15G26G21
 -24985898.19548 -19459911.58246  20503031.3284                   20503029.9924
   4954168.70745   3869084.36743  24347334.9144                   24347333.5394
 -14064948.50048 -10949263.25045  21629699.0394                   21629696.2854
 -21776913.72748 -16958285.75047  20456133.4064                   20456131.7814
 -17454935.65247 -13590645.37145  21754508.0084                   21754506.6054
 -16899309.33248 -13165374.05946  21765838.4844                   21765836.1484
 11  9 23  2 42  0.0000000  0  6G29G22G18G15G26G21
 -24956778.07448 -19437220.57047  20508572.5004                   20508571.3134
   4862270.62946   3797475.68043  24329848.0234                   24329845.8954
 -14119910.51248 -10992090.74646  21619240.2894                   21619237.4734
 -21789549.47348 -16968131.75447  20453728.7034                   20453726.6884
 -17406034.14147 -13552540.29345  21763813.7584                   21763812.4454
 -16980639.13348 -13228747.87546  21750361.7274                   21750358.7424
 11  9 23  2 42 30.0000000  0  6G29G22G18G15G26G21
 -23351720.64848 -18186526.47746  20814004.6954                   20814002.8674
   6345957.96546   4953595.81343  24612184.8524                   24612181.6804
 -12599221.42648  -9807138.16446  21908617.4304                   21908614.9964
 -20226165.68748 -15749910.60247  20751230.8984                   20751229.0474
 -15781148.29747 -12286395.46945  22073018.8674                   22073018.0354
 -15486472.18448 -12064461.88746  22034692.2424                   22034688.9144
 11  9 23  2 43  0.0000000  0  6G29G22G18G15G26G21
 -23321567.41048 -18163030.45346  20819742.9614                   20819741.3754
   6254382.17646   4882238.18443  24594758.5394                   24594756.8674
 -12653727.23048  -9849610.16846  21898245.5004                   21898242.6994
 -20237605.94948 -15758825.07047  20749053.8594                   20749051.9844
 -15731119.87547 -12247412.27045  22082539.0634                   22082538.2274
 -15567654.69948 -12127720.93446  22019243.2974                   22019240.4384
 11  9 23  2 43 30.0000000  0  7G29G22G18G05G15G26G21
 -23290898.64148 -18139132.70746  20825579.0234                   20825577.5864
   6162969.41046   4811007.60943  24577363.0084                   24577360.9884
 -12708004.60948  -9891904.17646  21887916.6564                   21887914.2504
   7907698.05915                  24942931.609
 -20248448.14548 -15767273.50847  20746990.5944                   20746988.6724
 -15680530.75047 -12207992.16445  22092166.3674                   22092164.8554
 -15648760.73448 -12190920.41046  22003809.6644                   22003806.8524
 11  9 23  2 44  0.0000000  0  7G29G22G18G05G15G26G21
 -23259717.59848 -18114835.77346  20831512.5314                   20831511.0864
   6071717.30946   4739902.21143  24559998.2814                   24559996.0124
 -12762055.78148  -9934021.91046  21877631.2194                   21877628.4104
   7971395.168 5                  24955045.422
 -20258694.44948 -15775257.61347  20745040.5474                   20745038.9064
 -15629385.28147 -12168138.53145  22101898.3754                   22101897.0664
 -15729790.31647 -12254060.31246  21988390.3364                   21988387.1374
 11  9 23  2 44 30.0000000  0  6G29G22G18G15G26G21
 -23228026.02748 -18090141.05546  20837543.2344                   20837541.8054
   5980625.60246   4668921.79344  24542663.6174                   24542661.7774
 -12815882.35948  -9975964.63745  21867388.1954                   21867385.4534
 -20268345.94148 -15782778.23847  20743204.0004                   20743202.2504
 -15577686.63747 -12127853.88345  22111736.5164                   22111735.6134
 -15810742.07848 -12317139.56246  21972985.7034                   21972982.3014
 11  9 23  2 45  0.0000000  0  6G29G22G18G15G26G21
 -23195822.48848 -18065047.38746  20843671.4774                   20843669.8714
   5889697.53546   4598068.97744  24525360.9064                   24525358.4534
 -12869481.53948 -10017730.18045  21857188.6334                   21857185.7194
 -20277400.15248 -15789833.44947  20741481.2034                   20741479.3834
 -15525434.55147 -12087137.96145  22121679.6644                   22121678.0474
 -15891611.96548 -12380155.02746  21957596.1804                   21957593.5124
 11  9 23  2 45 30.0000000  0  6G29G22G18G15G26G21
 -23163101.62148 -18039550.59846  20849898.2114                   20849896.4774
   5798940.36747   4527349.29744  24508090.1484                   24508087.3634
 -12922847.15248 -10059313.72345  21847032.9534                   21847030.4964
 -20285850.72748 -15796418.29347  20739872.7584                   20739870.9844
 -15472624.83647 -12045987.51245  22131728.8754                   22131727.7424
 -15972391.32048 -12443099.94146  21942224.8134                   21942221.9304
 11  9 23  2 46  0.0000000  0  6G29G22G18G15G26G21
 -23129864.25848 -18013651.35246  20856222.8364                   20856221.3794
   5708354.72747   4456763.24644  24490852.3054                   24490850.5044
 -12975979.16448 -10100715.23846  21836922.7504                   21836920.2584
 -20293697.51248 -15802532.64547  20738379.9144                   20738377.5634
 -15419259.21947 -12004403.92645  22141883.9924                   22141883.3244
 -16053077.96548 -12505972.60946  21926870.6334                   21926867.7304
 11  9 23  2 46 30.0000000  0  6G29G22G18G15G26G21
 -23096113.80148 -17987352.28547  20862645.3834                   20862643.2934
   5617938.57847   4386309.27744  24473646.8364                   24473644.2114
 -13028879.80948 -10141936.47745  21826856.1414                   21826853.0274
 -20300942.69148 -15808178.21947  20737001.2424                   20736999.0904
 -15365342.50847 -11962390.89545  22152144.5554                   22152142.5274
 -16133671.73848 -12568772.91446  21911534.0394                   21911531.2544
 11  9 23  2 47  0.0000000  0  6G29G22G18G15G26G21
 -23061857.62948 -17960659.15646  20869163.9774                   20869162.4534
   5527686.20347   4315982.89144  24456471.7114                   24456469.0474
 -13081555.85248 -10182982.69546  21816831.9924                   21816829.3984
 -20307593.25848 -15813360.45747  20735735.3674                   20735733.3554
 -15310883.36347 -11919955.19545  22162507.2034                   22162506.3954
 -16214177.50847 -12631504.65246  21896214.1024                   21896211.0744
 11  9 23  2 47 30.0000000  0  6G29G22G18G15G26G21
 -23027097.34048 -17933573.21946  20875778.5864                   20875777.3364
   5437598.25847   4245784.62144  24439328.5314                   24439325.5204
 -13134007.61347 -10223854.14546  21806850.7584                   21806847.9804
 -20313650.00448 -15818079.98046  20734582.7584                   20734580.9534
 -15255884.37547 -11877098.82845  22172973.0474                   22172971.7274
 -16294593.93448 -12694166.77746  21880911.2194                   21880908.3054
 11  9 23  2 48  0.0000000  0  6G29G22G18G15G26G21
 -22991833.32848 -17906094.77346  20882489.1094                   20882487.5204
   5347675.91047   4175715.40244  24422216.5474                   24422214.2464
 -13186234.73847 -10264550.57046  21796912.1804                   21796909.8874
 -20319112.00048 -15822336.05947  20733543.6334                   20733541.5944
 -15200346.90247 -11833822.86745  22183541.4774                   22183540.5044
 -16374917.16047 -12756756.27046  21865626.4534                   21865622.9694
 11  9 23  2 48 30.0000000  0  6G29G22G18G15G26G21
 -22956068.86348 -17878226.35946  20889295.0704                   20889293.4614
   5257917.55546   4105773.98044  24405135.9534                   24405133.8284
 -13238239.09447 -10305073.39846  21787016.2894                   21787013.6684
 -20323981.35948 -15826130.34447  20732616.8134                   20732614.9224
 -15144275.44547 -11790130.81645  22194212.0234                   22194210.1844
 -16455148.34848 -12819274.05546  21850359.0164                   21850355.7934
 11  9 23  2 49  0.0000000  0  6G29G22G18G15G26G21
 -22919805.96948 -17849969.56646  20896195.5394                   20896194.0234
   5168322.53146   4035959.83644  24388087.2194                   24388085.3204
 -13290022.08247 -10345423.72746  21777161.9844                   21777159.7234
 -20328259.78548 -15829464.16046  20731802.6414                   20731800.5044
 -15087673.42247 -11746025.34045  22204983.0394                   22204981.3284
 -16535285.73447 -12881718.73846  21835109.2114                   21835106.1564
 11  9 23  2 49 30.0000000  0  6G29G22G18G15G26G21
 -22883046.18748 -17821325.57846  20903191.0314                   20903189.4184
   5078891.32446   3966273.35944  24371067.9064                   24371065.6254
 -13341584.21147 -10385601.97346  21767349.8204                   21767347.1214
 -20331947.60548 -15832337.77047  20731101.0704                   20731098.8364
 -15030543.47747 -11701508.50045  22215854.5944                   22215852.9654
 -16615328.00447 -12944089.32046  21819877.6564                   21819874.7194
 11  9 23  2 50  0.0000000  0  6G29G22G18G15G26G21
 -22845793.15647 -17792297.24246  20910279.8984                   20910278.1564
   4989622.13346   3896713.07844  24354080.2114                   24354078.6724
 -13392927.62947 -10425609.80146  21757579.5944                   21757577.0354
 -20335047.57048 -15834753.30947  20730511.1094                   20730508.8754
 -14972890.33247 -11656583.96145  22226825.2894                   22226823.5044
 -16695274.93748 -13006385.59446  21804664.3674                   21804661.2934
 11  9 23  2 50 30.0000000  0  6G29G22G18G15G26G21
 -22808047.81247 -17762885.28546  20917462.3054                   20917460.7384
   4900515.59046   3827279.50443  24337124.3754                   24337122.1454
 -13444052.75447 -10465447.52346  21747850.8204                   21747847.8364
 -20337560.09848 -15836711.10247  20730032.6724                   20730030.8674
 -14914716.27347 -11611253.51645  22237895.5084                   22237894.1764
 -16775125.04347 -13068606.42646  21789469.4384                   21789466.2664
 11  9 23  2 51  0.0000000  0  6G29G22G18G15G26G21
 -22769811.12147 -17733090.45346  20924738.7664                   20924737.1954
   4811572.52746   3757973.39543  24320198.8674                   24320195.3324
 -13494959.22747 -10505114.86746  21738163.5704                   21738160.4924
 -20339484.80548 -15838210.85247  20729666.6334                   20729664.6644
 -14856022.94947 -11565518.46945  22249065.0394                   22249063.3594
 -16854874.93448 -13130749.16446  21774292.8984                   21774290.4304
 11  9 23  2 51 30.0000000  0  7G29G22G09G18G15G26G21
 -22731087.30947 -17702916.05946  20932107.4774                   20932106.3324
   4722790.60246   3688792.77343  24303304.6254                   24303299.0824
   7693686.89556   6010208.48853  24940385.5084                   24940384.2464
 -13545650.21547 -10544614.30946  21728517.7504                   21728514.8594
 -20340825.52348 -15839255.55547  20729411.6414                   20729409.4494
 -14796816.00447 -11519383.19145  22260331.3444                   22260330.2304
 -16934525.56647 -13192814.57446  21759136.1804                   21759133.0004
 11  9 23  2 52  0.0000000  0  7G29G22G09G18G15G26G21
 -22691886.25847 -17672369.78546  20939567.2274                   20939565.5904
   4634161.56346   3619731.37943  24286437.8284                   24286434.8014
   7587534.28946   5927492.28143  24920184.9924                   24920184.7894
 -13596134.55547 -10583952.73846  21718910.8204                   21718908.1094
 -20341591.03948 -15839852.04347  20729265.7974                   20729263.3444
 -14737106.39147 -11472856.21545  22271693.3204                   22271691.7974
 -17014084.16447 -13254808.25446  21743996.6804                   21743993.9924
 11  9 23  2 52 30.0000000  0  7G29G22G09G18G15G26G21
 -22652210.21148 -17641453.37946  20947117.0864                   20947115.4844
   4545685.11346   3550788.82043  24269602.1094                   24269598.7894
   7481281.26246   5844697.84843  24899966.2194                   24899965.6994
 -13646413.24647 -10623130.91446  21709343.1644                   21709340.0904
 -20341782.20348 -15840000.97346  20729229.7194                   20729227.2424
 -14676897.55947 -11425940.24245  22283151.1884                   22283149.7304
 -17093548.49647 -13316728.48846  21728875.3134                   21728872.1414
 11  9 23  2 53  0.0000000  0  7G29G22G09G18G15G26G21
 -22612058.29348 -17610166.17646  20954758.1414                   20954756.4414
   4457364.25846   3481967.51643  24252794.7194                   24252791.2344
   7374933.96546   5761829.86743  24879728.1884                   24879727.7344
 -13696483.98047 -10662147.03946  21699814.7274                   21699811.7854
 -20341397.94148 -15839701.53146  20729302.3834                   20729300.1214
 -14616189.50047 -11378635.27045  22294703.5704                   22294701.8364
 -17172915.14548 -13378572.60246  21713772.2034                   21713768.9844
 11  9 23  2 53 30.0000000  0  7G29G22G09G18G15G26G21
 -22571432.18748 -17578509.46546  20962488.8364                   20962487.4414
   4369198.61347   3413267.19144  24236017.6884                   24236015.3404
   7268494.98446   5678890.51643  24859473.6254                   24859474.1134
 -13746347.73047 -10701001.87146  21690325.8284                   21690323.3364
 -20340438.97748 -15838954.26247  20729484.9924                   20729483.0664
 -14554985.23047 -11330943.60945  22306349.7344                   22306348.9574
 -17252182.00448 -13440338.95746  21698687.9304                   21698684.7974
 11  9 23  2 54  0.0000000  0  7G29G22G09G18G15G26G21
 -22530331.46947 -17546482.93446  20970310.2894                   20970308.4064
   4281190.64146   3344689.70344  24219269.8674                   24219267.4064
   7161969.44546   5595883.69943  24839202.4614                   24839201.4734
 -13796003.01247 -10739694.28146  21680876.7424                   21680874.5314
 -20338904.07048 -15837758.23047  20729777.3204                   20729774.9264
 -14493285.23047 -11282865.72345  22318091.1724                   22318089.7424
 -17331345.28547 -13502024.60546  21683623.6804                   21683620.9304
 11  9 23  2 54 30.0000000  0  7G29G22G09G18G15G26G21
 -22488757.35947 -17514087.52346  20978221.2814                   20978220.3284
   4193341.13346   3276235.68844  24202553.0314                   24202549.6644
   7055361.23046   5512812.42643  24818914.9534                   24818914.2774
 -13845449.53947 -10778224.00046  21671467.5394                   21671464.8634
 -20336793.45348 -15836113.56647  20730178.7894                   20730176.3204
 -14431091.92247 -11234403.40245  22329926.2664                   22329924.7974
 -17410402.40647 -13563627.52046  21668580.0084                   21668576.8834
 11  9 23  2 55  0.0000000  0  7G29G22G09G18G15G26G21
 -22446709.70347 -17481323.10946  20986222.7734                   20986221.4844
   4105651.78146   3207906.49244  24185865.8984                   24185863.3324
   6948675.30146   5429680.60243  24798613.7584                   24798613.2034
 -13894686.33647 -10816590.30546  21662098.3134                   21662095.2074
 -20334106.35948 -15834019.71146  20730689.9534                   20730687.8484
 -14368406.61347 -11185557.71544  22341854.7814                   22341853.0744
 -17489349.94947 -13625145.05946  21653556.7584                   21653553.5634
 11  9 23  2 55 30.0000000  0  7G29G22G09G18G15G26G21
 -22404190.65247 -17448191.37946  20994313.8674                   20994312.3404
   4018122.63746   3139702.05944  24169209.7114                   24169207.4734
   6841914.28546   5346490.28543  24778298.1094                   24778298.3984
 -13943713.87947 -10854793.55546  21652768.3984                   21652765.8634
 -20330843.91048 -15831477.52347  20731310.7734                   20731308.4804
 -14305231.87547 -11136330.64844  22353876.5864                   22353874.7034
 -17568186.25447 -13686575.90646  21638554.5474                   21638550.8284
 11  9 23  2 56  0.0000000  0  7G29G22G09G18G15G26G21
 -22361201.33247 -17414693.20346  21002494.6254                   21002492.7544
   3930754.26246   3071622.91444  24152583.8284                   24152581.1884
   6735081.72346   5263244.27343  24757968.3674                   24757967.5274
 -13992532.01647 -10892833.63746  21643478.3444                   21643475.7274
 -20327006.47348 -15828487.29346  20732040.8444                   20732038.6604
 -14241570.45347 -11086724.35544  22365991.1954                   22365989.2034
 -17646909.02748 -13747918.30546  21623574.2034                   21623570.7074
 11  9 23  2 56 30.0000000  0  7G29G22G09G18G15G26G21
 -22317744.67247 -17380830.87946  21010763.8204                   21010762.4574
   3843545.71146   3003668.33244  24135988.6414                   24135985.0234
   6628179.78546   5179944.15243  24737625.7664                   24737625.1914
 -14041142.65647 -10930712.02746  21634228.4774                   21634225.6134
 -20322596.09048 -15825050.61746  20732880.3204                   20732877.9344
 -14177426.11747 -11036741.77045  22378197.1414                   22378195.9064
 -17725517.59048 -13809171.71546  21608615.1804                   21608612.1294
 11  9 23  2 57  0.0000000  0  7G29G22G09G18G15G26G21
 -22273822.52348 -17346605.82046  21019122.4774                   21019120.7774
   3756497.15246   2935838.40244  24119423.7504                   24119420.3714
   6521211.88345   5096592.62943  24717269.9844                   24717270.7774
 -14089546.43747 -10968429.22346  21625017.1954                   21625014.1604
 -20317613.86348 -15821168.34846  20733828.5474                   20733826.1334
 -14112801.71547 -10986385.10244  22390494.8524                   22390492.7774
 -17804009.91847 -13870334.54346  21593678.5394                   21593675.7384
 11  9 23  2 57 30.0000000  0  7G29G22G09G18G15G26G21
 -22229436.23848 -17312019.10946  21027568.6884                   21027567.3754
   3669609.04747   2868133.48444  24102889.2504                   24102886.3014
   6414181.60945   5013192.51644  24696902.7814                   24696903.6134
 -14137743.27348 -11005985.16446  21615845.5314                   21615843.0594
 -20312060.13748 -15816840.77046  20734884.9844                   20734882.9884
 -14047699.71147 -10935656.27744  22402882.8444                   22402881.8754
 -17882383.46148 -13931404.79746  21578764.5394                   21578761.4384
 11  9 23  2 58  0.0000000  0  7G29G22G09G18G15G26G21
 -22184587.23448 -17277071.81646  21036103.2974                   21036101.7114
   3582881.70747   2800553.84444  24086385.8134                   24086382.2504
   6307092.34846   4929746.40244  24676524.5164                   24676524.0664
 -14185733.73047 -11043380.29346  21606713.3444                   21606710.8914
 -20305936.03948 -15812068.73446  20736050.4924                   20736048.3364
 -13982122.69147 -10884557.31244  22415362.0634                   22415360.6374
 -17960636.48848 -13992381.16846  21563873.7584                   21563870.4304
 11  9 23  2 58 30.0000000  0  7G29G22G09G18G15G26G21
 -22139277.92648 -17241765.87546  21044725.3364                   21044723.6804
   3496314.94547   2733099.34044  24069912.8284                   24069909.3754
   6199946.50445   4846256.17243  24656134.9534                   24656134.5274
 -14233518.55148 -11080615.17246  21597619.8834                   21597617.5514
 -20299243.12948 -15806853.45746  20737323.8364                   20737321.6804
 -13916074.04747 -10833090.84044  22427931.2274                   22427929.0204
 -18038767.35948 -14053262.33646  21549005.8204                   21549002.7664
 11  9 23  2 59  0.0000000  0  7G29G22G09G18G15G26G21
 -22093510.93748 -17206103.27746  21053434.3054                   21053432.7424
   3409907.95347   2665769.34844  24053469.2194                   24053466.4534
   6092746.63346   4762723.91843  24635735.5234                   24635734.8594
 -14281099.13748 -11117690.91846  21588566.0474                   21588563.3794
 -20291982.82048 -15801196.06246  20738705.7734                   20738703.0784
 -13849557.59447 -10781259.85544  22440588.6254                   22440586.5824
 -18116774.84047 -14114047.36346  21534161.4224                   21534158.0664
 11  9 23  2 59 30.0000000  0  7G29G22G09G18G15G26G21
 -22047288.30948 -17170085.64846  21062230.2274                   21062228.5984
   3323660.86747   2598563.96144  24037057.4774                   24037053.6524
   5985495.70346   4679151.84443  24615326.6954                   24615326.5434
 -14328476.04347 -11154607.94946  21579550.2814                   21579547.6484
 -20284156.75048 -15795097.81646  20740195.0084                   20740192.8404
 -13782576.14847 -10729066.53144  22453334.3674                   22453333.3444
 -18194657.41847 -14174735.06646  21519341.0164                   21519337.9694
 11  9 23  3  0  0.0000000  0  8G29G22G09G06G18G15G26G21
 -22000615.65648 -17133717.34046  21071111.4614                   21071110.0314
   3237570.01247   2531480.28544  24020674.7034                   24020671.3244
   5878193.50446   4595539.81344  24594908.2114                   24594907.2234
   7692923.65656   6009668.05553  24832998.4064                   24832997.1454
 -14375653.50448 -11191369.58646  21570572.7194                   21570569.9734
 -20275769.45748 -15788562.25446  20741791.0084                   20741788.7344
 -13715136.54746 -10676516.20744  22466167.5864                   22466167.2624
 -18272416.69548 -14235326.69146  21504543.7584                   21504540.6094
 11  9 23  3  0 30.0000000  0  8G29G22G09G06G18G15G26G21
 -21953498.61748 -17097002.77746  21080077.7734                   21080076.3674
   3151631.68047   2464515.50444  24004320.6174                   24004317.6914
   5770839.16845   4511887.15243  24574478.5704                   24574478.0084
   7587213.41846   5927296.59443  24812881.9224                   24812881.2464
 -14422636.01647 -11227979.29346  21561632.4304                   21561629.3834
 -20266826.01648 -15781593.32446  20743493.1954                   20743490.6914
 -13647245.28146 -10623613.95744  22479087.3914                   22479085.4184
 -18350054.52348 -14295823.66846  21489769.6484                   21489766.6804
 11  9 23  3  1  0.0000000  0  8G29G22G09G06G18G15G26G21
 -21905943.23448 -17059946.62946  21089127.1174                   21089125.6484
   3065841.65647   2397666.28544  23987994.7734                   23987992.4574
   5663431.96146   4428193.31343  24554039.3914                   24554039.1994
   7481753.59446   5845120.25443  24792813.5234                   24792813.6174
 -14469428.26647 -11264440.75046  21552727.8524                   21552724.5044
 -20257331.74648 -15774195.18446  20745299.4924                   20745297.1764
 -13578909.62147 -10570365.39544  22492091.2114                   22492089.8094
 -18427573.13348 -14356227.77046  21475018.5554                   21475015.5314
 11  9 23  3  1 30.0000000  0  8G29G22G09G06G18G15G26G21
 -21857946.95348 -17022546.93046  21098260.4924                   21098259.3404
   2980204.73847   2330936.34043  23971699.5234                   23971694.5864
   5555979.60246   4344464.26244  24533592.3284                   24533591.4804
   7376551.21146   5763144.50443  24772793.3284                   24772794.3634
 -14516026.07448 -11300750.69946  21543860.6254                   21543857.9104
 -20247283.11348 -15766365.07446  20747211.8834                   20747209.4344
 -13510127.96147 -10516769.31244  22505179.5704                   22505178.0004
 -18504966.21547 -14416534.05146  21460290.9774                   21460287.6484
 11  9 23  3  2  0.0000000  0  8G29G22G09G06G18G15G26G21
 -21809511.65648 -16984805.14146  21107477.1884                   21107475.9264
   2894720.96546   2264325.73444  23955432.1884                   23955429.1024
   5448485.57445   4260702.76643  24513136.5234                   24513136.4264
   7271609.09846   5681371.59843  24752823.8284                   24752824.2734
 -14562429.85247 -11336909.45746  21535029.9924                   21535027.6524
 -20236681.43748 -15758104.01646  20749229.2194                   20749226.8164
 -13440902.76647 -10462827.61744  22518353.3134                   22518351.6254
 -18582231.83247 -14476741.00446  21445587.9304                   21445584.6644
 11  9 23  3  2 30.0000000  0  8G29G22G09G06G18G15G26G21
 -21760637.17648 -16946721.13746  21116778.1954                   21116776.7304
   2809392.39546   2197836.10543  23939194.5314                   23939191.5474
   5340955.40645   4176913.09043  24492673.5704                   24492674.2034
   7166931.79746   5599804.98844  24732904.6174                   24732904.6454
 -14608638.02747 -11372915.79346  21526236.8054                   21526234.0234
 -20225525.53148 -15749411.09046  20751352.0864                   20751349.5904
 -13371235.30547 -10408541.30544  22531610.4064                   22531608.7934
 -18659365.55147 -14536845.18046  21430909.8674                   21430907.0704
 11  9 23  3  3  0.0000000  0  8G29G22G09G06G18G15G26G21
 -21711324.16848 -16908295.41046  21126162.0394                   21126160.2544
   2724220.51246   2131468.52744  23922986.5634                   23922982.7584
   5233392.98046   4093098.23043  24472206.0234                   24472205.4844
   7062522.50046   5518447.23443  24713035.8984                   24713036.2154
 -14654650.21147 -11408769.41046  21517481.3054                   21517478.3834
 -20213815.90647 -15740286.70346  20753580.6804                   20753578.2344
 -13301127.50847 -10353911.89144  22544951.6174                   22544950.1134
 -18736364.30547 -14596844.18046  21416257.1954                   21416254.0234
 11  9 23  3  3 30.0000000  0  8G29G22G09G06G18G15G26G21
 -21661574.44148 -16869529.38346  21135628.6954                   21135627.2464
   2639205.84847   2065223.46943  23906808.7034                   23906804.6174
   5125802.44145   4009261.53943  24451731.3054                   24451731.5474
   6958384.71146   5437301.03143  24693219.4454                   24693219.2854
 -14700466.51247 -11444470.38746  21508762.5234                   21508759.9804
 -20201553.18747 -15730731.32046  20755913.8594                   20755911.7344
 -13230581.61747 -10298941.07844  22558375.8594                   22558374.2034
 -18813224.76247 -14656735.42646  21401631.0554                   21401627.8404
 11  9 23  3  4  0.0000000  0  8G29G22G09G06G18G15G26G21
 -21611390.53148 -16830425.03546  21145178.5474                   21145177.1724
   2554347.55146   1999100.23444  23890661.1564                   23890656.7114
   5018186.23846   3925404.85243  24431252.6254                   24431252.4574
   6854519.98046   5356367.58643  24673455.1334                   24673453.9774
 -14746088.33647 -11480019.84046  21500081.0554                   21500078.2624
 -20188739.45347 -15720746.58646  20758352.3444                   20758349.7034
 -13159601.52347 -10243631.93744  22571882.6954                   22571881.0704
 -18889947.02347 -14716518.98846  21387031.7344                   21387028.1684
 11  9 23  3  4 30.0000000  0  8G29G22G09G06G18G15G26G21
 -21560773.78948 -16790983.42246  21154810.6954                   21154809.3834
   2469646.54746   1933099.53543  23874542.3834                   23874538.5004
   4910548.45746   3841531.31343  24410770.0394                   24410769.1454
   6750931.58246   5275649.47343  24653741.9384                   24653741.4064
 -14791514.95347 -11515417.18046  21491436.6644                   21491433.3324
 -20175375.15248 -15710332.83246  20760895.2814                   20760892.7974
 -13088189.10247 -10187985.92244  22585472.4924                   22585470.8554
 -18966527.89547 -14776192.37546  21372458.8284                   21372455.5704
 11  9 23  3  5  0.0000000  0  8G29G22G09G06G18G15G26G21
 -21509726.29348 -16751206.15246  21164525.3914                   21164523.4104
   2385102.76647   1867221.39844  23858454.9384                   23858450.7624
   4802892.38346   3757643.54743  24390283.6334                   24390283.4614
   6647622.10246   5195148.68843  24634082.6334                   24634082.4264
 -14836747.20347 -11550663.05946  21482829.1724                   21482825.9224
 -20161461.83247 -15699491.27046  20763543.0634                   20763540.7544
 -13016347.73447 -10132005.64144  22599143.3054                   22599142.4654
 -19042965.00847 -14835753.74246  21357913.2034                   21357910.0904
 11  9 23  3  5 30.0000000  0  8G29G22G09G06G18G15G26G21
 -21458249.28148 -16711094.19946  21174320.4304                   21174319.3754
   2300717.14146   1801466.47744  23842396.5314                   23842391.7544
   4695221.88346   3673744.44943  24369794.6954                   24369793.9384
   6544594.66846   5114867.64143  24614476.9384                   24614476.7034
 -14881784.88347 -11585757.32846  21474259.0944                   21474256.0514
 -20146999.70347 -15688222.06246  20766294.9534                   20766292.5824
 -12944079.62946 -10075692.86344  22612895.0474                   22612894.5634
 -19119256.63747 -14895201.73846  21343395.2034                   21343391.8204
 11  9 23  3  6  0.0000000  0  8G29G22G09G06G18G15G26G21
 -21406345.98448 -16670650.07446  21184197.4384                   21184195.8404
   2216488.40246   1735833.80944  23826367.8594                   23826364.2704
   4587539.13746   3589835.87143  24349302.7424                   24349301.5354
   6441850.94946   5034807.69944  24594925.9304                   24594925.2304
 -14926629.62147 -11620701.25046  21465725.0164                   21465722.0944
 -20131991.10948 -15676527.04746  20769151.1254                   20769148.5314
 -12871388.72346 -10019050.64544  22626727.7734                   22626726.3714
 -19195401.12547 -14954535.08646  21328905.4694                   21328902.0744
 11  9 23  3  6 30.0000000  0  8G29G22G09G06G18G15G26G21
 -21354018.36348 -16629875.30146  21194155.0864                   21194153.7304
   2132416.63747   1670323.40244  23810369.3134                   23810365.7934
   4479847.77046   3505920.51643  24328810.4534                   24328809.7624
   6339393.48146   4954970.73443  24575428.3364                   24575427.9804
 -14971281.80148 -11655495.12946  21457228.0704                   21457225.5004
 -20116437.77047 -15664407.55946  20772110.6644                   20772108.4064
 -12798277.81646  -9962081.12544  22640640.6644                   22640638.9924
 -19271395.99247 -15013751.84446  21314444.2114                   21314440.9344
 11  9 23  3  7  0.0000000  0  8G29G22G09G06G18G15G26G21
 -21301270.11748 -16588772.76646  21204192.7734                   21204191.2854
   2048500.23047   1604934.10944  23794401.2344                   23794396.7894
   4372149.35546   3421999.76244  24308316.4774                   24308315.3524
   6237222.58246   4875357.17243  24555986.2194                   24555985.1764
 -15015743.96547 -11690140.94546  21448767.2424                   21448764.4264
 -20100342.92248 -15651866.10946  20775173.4064                   20775171.2074
 -12724752.20346  -9904788.44944  22654631.8754                   22654630.6914
 -19347241.50047 -15072852.22346  21300011.1484                   21300007.8634
 11  9 23  3  7 30.0000000  0  8G29G22G09G06G18G15G26G21
 -21248101.69148 -16547342.82846  21214310.7274                   21214309.0204
   1964740.76247   1539667.09044  23778461.7894                   23778458.5594
   4264448.92646   3338077.40644  24287821.3754                   24287821.5664
   6135342.64846   4795970.26243  24536599.1174                   24536597.7344
 -15060014.72747 -11724637.61746  21440342.6094                   21440339.8794
 -20083706.11747 -15638902.35946  20778339.4534                   20778336.9264
 -12650812.73446  -9847173.31244  22668702.3984                   22668701.2114
 -19422933.80948 -15131833.22346  21285607.4304                   21285603.6604
 11  9 23  3  8  0.0000000  0  8G29G22G09G06G18G15G26G21
 -21194515.20348 -16505587.12546  21224507.6644                   21224506.0944
   1881138.43047   1474522.51244  23762552.8594                   23762548.3244
   4156749.87146   3254156.10944  24267326.5634                   24267326.5354
   6033756.07446   4716811.95743  24517267.8674                   24517266.3164
 -15104094.85547 -11758985.75046  21431954.6024                   21431951.4144
 -20066528.83248 -15625517.45346  20781607.6564                   20781605.7464
 -12576462.80546  -9789238.32844  22682850.0864                   22682849.0274
 -19498470.73448 -15190693.14146  21271232.8364                   21271229.6804
 11  9 23  3  8 30.0000000  0  8G29G22G09G06G18G15G26G21
 -21140514.97348 -16463509.03146  21234783.7034                   21234782.1564
   1797691.31347   1409498.86744  23746673.1954                   23746668.7814
   4049053.61347   3170237.01244  24246833.0004                   24246832.6884
   5932463.57446   4637882.80543  24497992.4064                   24497990.8484
 -15147986.74247 -11793187.19946  21423602.1644                   21423599.6684
 -20048814.40648 -15611713.99246  20784978.6334                   20784976.6484
 -12501706.98046  -9730987.07444  22697076.3054                   22697075.2814
 -19573852.43448 -15249432.10946  21256888.5554                   21256884.9844
 11  9 23  3  9  0.0000000  0  8G29G22G09G06G18G15G26G21
 -21086101.59848 -16421109.00046  21245138.0474                   21245135.9024
   1714400.85547   1344597.30144  23730823.0004                   23730819.5234
   3941364.91446   3086323.79744  24226340.0234                   24226340.1454
   5831468.98846   4559185.77343  24478773.3204                   24478772.7424
 -15191689.01247 -11827240.89546  21415286.0314                   21415282.8014
 -20030562.87548 -15597492.01646  20788451.9614                   20788449.9844
 -12426547.07847  -9672420.95344  22711379.2114                   22711377.9064
 -19649074.77348 -15308046.90646  21242573.9924                   21242570.9184
 11  9 23  3  9 30.0000000  0  8G29G22G09G06G18G15G26G21
 -21031277.29348 -16378388.76646  21255570.6954                   21255569.0784
   1631266.77747   1279817.61344  23715003.7194                   23715000.4534
   3833687.34846   3002419.26644  24205849.1174                   24205849.4494
   5730774.75046   4480722.79343  24459612.3204                   24459611.0354
 -15235202.89848 -11861147.78546  21407005.4924                   21407002.5704
 -20011775.65648 -15582852.62146  20792027.3524                   20792024.9804
 -12350986.30946  -9613542.46144  22725757.4614                   22725756.4734
 -19724136.49648 -15366536.53546  21228290.3134                   21228287.1954
 11  9 23  3 10  0.0000000  0  8G29G22G09G06G18G15G26G21
 -20976046.37148 -16335351.69146  21266080.6174                   21266079.3794
   1548287.12947   1215158.26644  23699212.3524                   23699209.7544
   3726021.94146   2918524.25043  24185361.3054                   24185360.9264
   5630381.08646   4402493.97743  24440508.3444                   24440507.3404
 -15278530.92648 -11894909.84846  21398760.3834                   21398757.3094
 -19992456.71948 -15567798.89146  20795703.8834                   20795701.2114
 -12275029.64146  -9554355.48044  22740211.2974                   22740210.5084
 -19799037.50048 -15424900.94146  21214037.3524                   21214033.5354
 11  9 23  3 10 30.0000000  0  8G29G22G09G06G18G15G26G21
 -20920409.40248 -16291998.21946  21276668.6024                   21276666.8634
   1465463.23847   1150620.26244  23683452.2274                   23683448.2034
   3618373.84046   2834642.68443  24164877.2504                   24164875.6294
   5530292.05946   4324502.59843  24421461.5864                   24421461.4844
 -15321672.19947 -11928526.41046  21390550.7814                   21390548.0084
 -19972605.80948 -15552330.64846  20799481.0554                   20799478.7894
 -12198678.48046  -9494861.09444  22754740.3914                   22754739.4734
 -19873774.08248 -15483137.21946  21199815.1804                   21199811.8014
 11  9 23  3 11  0.0000000  0  8G29G22G09G06G18G15G26G21
 -20864368.68448 -16248330.12946  21287332.2274                   21287331.1604
   1382795.00447   1086203.56644  23667720.9224                   23667716.8984
   3510745.97746   2750776.90643  24144395.2194                   24144395.5164
   5430509.99246   4246750.39543  24402474.1334                   24402473.0744
 -15364627.40648 -11961997.97746  21382376.7114                   21382373.7424
 -19952224.91848 -15536449.43046  20803359.3984                   20803356.8364
 -12121936.40246  -9435062.10544  22769343.7734                   22769343.0664
 -19948343.76648 -15541243.45746  21185625.0944                   21185621.6644
 11  9 23  3 11 30.0000000  0  8G29G22G09G06G18G15G26G21
 -20807926.10548 -16204348.91846  21298073.3914                   21298071.5394
   1300282.50847   1021908.22744  23652018.7664                   23652015.3914
   3403142.04346   2666929.77343  24123918.7974                   24123918.8984
   5331037.39546   4169239.31643  24383544.4924                   24383544.0864
 -15407396.80948 -11995324.74646  21374238.1334                   21374235.2274
 -19931315.26648 -15520156.18446  20807338.1254                   20807335.9964
 -12044806.37546  -9374960.80944  22784021.6334                   22784020.6054
 -20022744.78948 -15599218.25846  21171467.3054                   21171463.7544
 11  9 23  3 12  0.0000000  0  8G29G22G09G06G18G15G26G21
 -20751085.47748 -16160057.52346  21308889.5004                   21308887.6334
   1217924.80147    957733.49244  23636346.3284                   23636343.4304
   3295563.93846   2583102.75843  24103448.1094                   24103447.3754
   5231875.29746   4091970.19143  24364674.8754                   24364673.5234
 -15449982.17648 -12028508.12546  21366134.2424                   21366131.0124
 -19909879.85948 -15503453.25446  20811417.3674                   20811415.0124
 -11967292.28946  -9314560.26644  22798772.0784                   22798770.7504
 -20096976.32848 -15657061.00446  21157341.1254                   21157337.7814
 11  9 23  3 12 30.0000000  0  8G29G22G09G06G18G15G26G21
 -20693848.61748 -16115457.37146  21319781.3834                   21319779.7154
   1135722.48447    893679.84444  23620704.1174                   23620700.5514
   3188016.13346   2499299.36744  24082982.2894                   24082981.9534
   5133026.82046   4014945.43443  24345864.6174                   24345862.8364
 -15492383.64848 -12061548.21146  21358065.5944                   21358062.5434
 -19887919.66848 -15486341.41447  20815596.4774                   20815594.2704
 -11889397.02746  -9253862.67644  22813594.6484                   22813593.7384
 -20171035.89548 -15714769.72746  21143248.3834                   21143244.7034
 11  9 23  3 13  0.0000000  0  8G29G22G09G06G18G15G26G21
 -20636217.04348 -16070549.66046  21330748.2734                   21330746.3754
   1053675.38747    829747.16044  23605091.0234                   23605087.2194
   3080502.24247   2415522.35244  24062523.5784                   24062522.9654
   5034494.83646   3938167.31343  24327113.8204                   24327112.9414
 -15534601.45348 -12094445.18746  21350031.5784                   21350028.6094
 -19865435.85248 -15468821.54346  20819874.7734                   20819872.3914
 -11811123.02346  -9192869.95744  22828490.2664                   22828488.8054
 -20244920.67248 -15772342.27046  21129188.1174                   21129185.0944
 11  9 23  3 13 30.0000000  0  8G29G22G09G06G18G15G26G21
 -20578194.56648 -16025337.34446  21341789.4064                   21341787.6884
    971781.82847    765934.10944  23589506.6484                   23589503.4614
   2973023.90247   2331773.07844  24042070.3834                   24042069.8164
   4936280.20346   3861636.50443  24308424.8134                   24308422.5664
 -15576637.73047 -12127200.70746  21342032.2734                   21342029.5824
 -19842431.71148 -15450896.23446  20824252.3054                   20824250.2624
 -11732475.09846  -9131585.89844  22843456.6094                   22843455.4144
 -20318630.00848 -15829778.08646  21115161.9224                   21115158.8984
 11  9 23  3 14  0.0000000  0  8G29G22G09G06G18G15G26G21
 -20519783.60248 -15979822.32046  21352904.7034                   21352903.2854
    890042.06646    702240.89544  23573952.1804                   23573948.4774
   2865584.90246   2248054.41844  24021625.2504                   24021624.7544
   4838385.26646   3785354.76643  24289796.7424                   24289795.0474
 -15618492.66447 -12159814.90246  21334067.8364                   21334064.9064
 -19818908.89548 -15432566.76246  20828728.3364                   20828726.4734
 -11653456.20346  -9070012.76244  22858492.6174                   22858491.2464
 -20392162.22748 -15887075.89846  21101169.3834                   21101165.9844
 11  9 23  3 14 30.0000000  0  8G29G22G09G06G18G15G26G21
 -20460986.62548 -15934006.51246  21364093.3134                   21364092.0394
    808455.99246    638667.43044  23558426.6644                   23558423.2814
   2758188.19147   2164368.69544  24001188.8984                   24001187.4104
   4740812.31646   3709323.93043  24271228.1564                   24271227.5664
 -15660167.04748 -12192288.42646  21326137.3754                   21326134.3874
 -19794868.93448 -15413834.31246  20833302.9774                   20833300.8054
 -11574069.64846  -9008153.14544  22873599.9144                   22873598.9614
 -20465514.73448 -15944233.68046  21087210.6954                   21087206.9104
 11  9 23  3 15  0.0000000  0  8G29G22G09G06G18G15G26G21
 -20401805.75448 -15887891.56646  21375355.1804                   21375353.6644
    727023.33246    575213.50844  23542931.0864                   23542926.8554
   2650837.39147   2080718.77343  23980760.5004                   23980758.4384
   4643563.71746   3633545.86343  24252722.0314                   24252721.2274
 -15701661.45347 -12224621.70346  21318241.4774                   21318238.4534
 -19770314.15648 -15394700.70746  20837976.0474                   20837973.9844
 -11494318.47346  -8946009.39144  22888776.6414                   22888774.6294
 -20538686.01247 -16001250.24646  21073286.7194                   21073283.4104
 11  9 23  3 15 30.0000000  0  8G29G22G09G06G18G15G26G21
 -20342243.18448 -15841479.19546  21386689.3674                   21386688.3094
    645744.29347    511879.27344  23527464.0864                   23527459.8754
   2543536.34447   1997107.60944  23960341.7734                   23960340.3834
   4546642.13346   3558022.52743  24234278.2974                   24234278.1564
 -15742976.63748 -12256815.32446  21310378.9384                   21310376.1954
 -19745245.72748 -15375166.84846  20842746.1254                   20842744.0984
 -11414205.68047  -8883583.87544  22904021.2734                   22904020.0164
 -20611673.30148 -16058123.43446  21059397.4694                   21059394.3014
 11  9 23  3 16  0.0000000  0  8G29G22G09G06G18G15G26G21
 -20282301.75848 -15794771.60546  21398096.1724                   21398094.8134
    564618.47747    448664.44944  23512026.2034                   23512022.0474
   2436287.82447   1913537.39543  23939933.2504                   23939931.6294
   4450049.25446   3482755.40643  24215897.6414                   24215896.5274
 -15784113.52047 -12288870.01246  21302551.2734                   21302547.9064
 -19719665.61348 -15355234.29346  20847613.7734                   20847611.7774
 -11333734.73846  -8820879.26244  22919334.5784                   22919333.3484
 -20684475.12548 -16114852.09846  21045543.9064                   21045540.5554
 11  9 23  3 16 30.0000000  0  8G29G22G09G06G18G15G26G21
 -20221983.28948 -15747770.22346  21409574.6414                   21409572.6414
    483646.18847    385569.24244  23496617.6024                   23496613.5704
   2329095.78547   1830011.18044  23919535.1484                   23919534.0744
   4353788.18447   3407746.80143  24197580.2344                   24197577.8834
 -15825071.84848 -12320785.57046  21294756.7974                   21294753.5314
 -19693575.30948 -15334904.17646  20852578.8134                   20852576.4734
 -11252908.08246  -8757897.49644  22934715.4614                   22934713.8634
 -20757088.52048 -16171433.94546  21031725.9384                   21031722.6174
 11  9 23  3 17  0.0000000  0  8G29G22G09G06G18G15G26G21
 -20161290.43748 -15700477.09846  21421123.6564                   21421122.0354
    402826.90647    322593.25844  23481237.6564                   23481233.8134
   2221963.39847   1746531.49244  23899148.0784                   23899147.1564
   4257860.73047   3332998.19543  24179326.0634                   24179323.9064
 -15865852.79348 -12352562.89146  21286996.4694                   21286993.1334
 -19666977.05948 -15314178.26646  20857640.2814                   20857637.7234
 -11171729.41846  -8694641.40644  22950163.6724                   22950161.5274
 -20829511.87548 -16227867.70346  21017944.4534                   21017941.2384
 11  9 23  3 17 30.0000000  0  8G29G22G09G06G18G15G26G21
 -20100226.82848 -15652895.06646  21432743.8204                   21432742.1604
    322159.28547    259735.44144  23465887.3054                   23465883.5204
   2114892.91446   1663099.99243  23878773.1254                   23878772.1334
   4162268.25447   3258510.58643  24161134.7814                   24161133.0314
 -15906457.85248 -12384203.16846  21279269.3984                   21279266.4144
 -19639873.92248 -15293058.92246  20862798.1334                   20862795.0744
 -11090202.98046  -8631114.35243  22965676.7114                   22965675.6454
 -20901744.19948 -16284152.59846  21004198.7664                   21004195.6174
 11  9 23  3 18  0.0000000  0  8G29G22G09G06G18G15G26G21
 -20038794.41848 -15605025.68446  21444434.0084                   21444432.6414
    241643.58646    196996.00444  23450565.6644                   23450561.0354
   2007888.18846   1579719.74243  23858410.8364                   23858409.8244
   4067013.18047   3184285.89844  24143008.1954                   24143007.2584
 -15946887.36748 -12415706.65246  21271576.3134                   21271572.8284
 -19612267.12948 -15271547.11746  20868051.1884                   20868048.9144
 -11008331.64146  -8567318.53544  22981257.0084                   22981255.7034
 -20973783.02048 -16340286.72346  20990490.2734                   20990487.1024
 11  9 23  3 18 30.0000000  0  8G29G22G09G06G18G15G26G21
 -19976995.74648 -15556870.88746  21456193.6884                   21456192.3204
    161279.88747    134375.00044  23435273.1484                   23435268.8484
   1900952.63746   1496393.45743  23838061.2734                   23838061.0394
   3972098.00847   3110326.06644  24124946.3914                   24124945.5554
 -15987141.89148 -12447073.79746  21263916.0554                   21263912.7854
 -19584158.68448 -15249644.42246  20873399.7344                   20873397.5164
 -10926118.32847  -8503256.24244  22996902.1564                   22996901.3404
 -21045626.56248 -16396268.67646  20976819.1414                   20976815.5634
 11  9 23  3 19  0.0000000  0  8G29G22G09G06G18G15G26G21
 -19914832.76248 -15508432.19946  21468023.2504                   21468022.0164
     81068.35947     71872.57444  23420009.1884                   23420005.4494
   1794090.04746   1413123.98843  23817726.0864                   23817725.3324
   3877525.03947   3036632.87944  24106949.7274                   24106948.9924
 -16027221.92248 -12478304.97346  21256288.8674                   21256285.7464
 -19555549.98448 -15227351.91846  20878843.8524                   20878841.3984
 -10843566.23047  -8438929.96544  23012611.0084                   23012609.3404
 -21117271.89148 -16452096.17246  20963185.3054                   20963181.9574
 11  9 23  3 19 30.0000000  0  8G29G22G09G06G18G15G26G21
 -19852309.28548 -15459712.62946  21479921.0314                   21479919.6884
      1007.31647      9487.41044  23404774.0474                   23404770.2734
   1687302.66046   1329913.08243  23797405.3204                   23797403.9384
   3783295.59047   2963207.38344  24089018.8834                   24089017.6804
 -16067129.14848 -12509401.48446  21248695.1644                   21248692.2194
 -19526444.49248 -15204672.31646  20884382.6334                   20884380.4574
 -10760679.43047  -8374342.85544  23028383.0864                   23028381.1954
 -21188718.22748 -16507768.62146  20949589.5864                   20949586.2544
 11  9 23  3 20  0.0000000  0  8G29G22G09G06G18G15G26G21
 -19789427.42648 -15410713.78546  21491887.1414                   21491885.8794
    -78902.76647    -52780.14144  23389567.7664                   23389563.5044
   1580594.25847   1246763.77044  23777099.6024                   23777098.0084
   3689412.31346   2890051.61044  24071152.7814                   24071152.0594
 -16106863.69947 -12540363.43746  21241133.5234                   21241130.1484
 -19496843.43748 -15181606.54746  20890015.5314                   20890013.2664
 -10677460.84047  -8309497.22744  23044219.6804                   23044218.1764
 -21259963.16848 -16563284.13746  20936032.0234                   20936028.6804
 11  9 23  3 20 30.0000000  0  8G29G22G09G06G18G15G26G21
 -19726189.03148 -15361437.12946  21503920.8524                   21503919.6914
   -158661.74647   -114929.93444  23374389.9144                   23374385.2854
   1473968.87147   1163679.11744  23756809.3134                   23756808.5354
   3595877.93047   2817167.80544  24053354.2114                   24053352.9144
 -16146425.57848 -12571190.84846  21233605.2114                   21233602.3834
 -19466748.37948 -15158155.84046  20895742.2734                   20895739.8914
 -10593913.03147  -8244395.07043  23060118.0234                   23060117.0664
 -21331004.10948 -16618640.69146  20922513.2664                   20922509.8874
 11  9 23  3 21  0.0000000  0  8G29G22G09G06G18G15G26G21
 -19662597.74248 -15311885.49646  21516022.2034                   21516020.7504
   -238270.77347   -176962.86344  23359241.0234                   23359236.4184
   1367428.78147   1080660.91844  23736534.9774                   23736534.7424
   3502693.59846   2744556.68844  24035621.3984                   24035620.5664
 -16185816.85948 -12601885.33646  21226109.3134                   21226106.4304
 -19436162.15648 -15134322.41846  20901562.5394                   20901560.3444
 -10510040.25847  -8179039.69544  23076078.6334                   23076077.5864
 -21401839.82048 -16673837.31646  20909033.7664                   20909030.1684
